Time,TemperatureF,DewpointF,PressureIn,WindDirection,WindDirectionDegrees,WindSpeedMPH,WindSpeedGustMPH,Humidity,HourlyPrecipIn,Conditions,Clouds,dailyrainin,SoftwareType,DateUTC
2013-04-01 00:00:00,43.2,41.9,29.68,ENE,62,0.0,3.0,95,0.00,,,0.11,VWS V14.01,2013-04-01 04:00:00,
2013-04-01 00:01:00,43.2,41.9,29.68,ENE,62,0.0,0.0,95,0.00,,,0.00,VWS V14.01,2013-04-01 04:01:00,
2013-04-01 00:02:00,43.2,41.9,29.68,ENE,62,2.0,2.0,95,0.00,,,0.00,VWS V14.01,2013-04-01 04:02:00,
2013-04-01 00:03:00,43.2,41.9,29.68,ENE,61,3.0,3.0,95,0.00,,,0.00,VWS V14.01,2013-04-01 04:03:00,
2013-04-01 00:04:00,43.2,41.9,29.68,ENE,61,0.0,3.0,95,0.00,,,0.00,VWS V14.01,2013-04-01 04:04:00,
2013-04-01 00:05:00,43.2,41.9,29.68,ENE,61,0.0,3.0,95,0.00,,,0.00,VWS V14.01,2013-04-01 04:05:00,
2013-04-01 00:06:00,43.2,41.9,29.68,ENE,59,2.0,3.0,95,0.00,,,0.00,VWS V14.01,2013-04-01 04:06:00,
2013-04-01 00:07:00,43.2,41.9,29.68,ENE,59,0.0,3.0,95,0.00,,,0.00,VWS V14.01,2013-04-01 04:07:00,
2013-04-01 00:08:00,43.2,41.9,29.68,ENE,59,0.0,3.0,95,0.00,,,0.00,VWS V14.01,2013-04-01 04:08:00,
2013-04-01 00:09:00,43.2,41.9,29.68,ENE,59,0.0,3.0,95,0.00,,,0.00,VWS V14.01,2013-04-01 04:09:00,
2013-04-01 00:10:00,43.2,41.9,29.68,ENE,59,0.0,3.0,95,0.00,,,0.00,VWS V14.01,2013-04-01 04:10:00,
2013-04-01 00:11:00,43.2,41.9,29.68,ENE,59,1.0,1.0,95,0.00,,,0.00,VWS V14.01,2013-04-01 04:11:00,
2013-04-01 00:12:00,43.2,41.9,29.68,NNW,346,0.0,2.0,95,0.00,,,0.00,VWS V14.01,2013-04-01 04:12:00,
2013-04-01 00:13:00,43.2,41.9,29.68,WNW,295,3.0,4.0,95,0.00,,,0.00,VWS V14.01,2013-04-01 04:13:00,
2013-04-01 00:14:00,43.2,41.9,29.68,NW,316,4.0,4.0,95,0.00,,,0.00,VWS V14.01,2013-04-01 04:14:00,
2013-04-01 00:15:00,43.2,41.9,29.68,WNW,301,3.0,4.0,95,0.00,,,0.00,VWS V14.01,2013-04-01 04:15:00,
2013-04-01 00:16:00,43.2,41.9,29.68,WNW,301,1.0,4.0,95,0.00,,,0.00,VWS V14.01,2013-04-01 04:16:00,
2013-04-01 00:17:00,43.2,41.9,29.68,WNW,301,0.0,4.0,95,0.00,,,0.00,VWS V14.01,2013-04-01 04:17:00,
2013-04-01 00:18:00,43.2,41.9,29.68,WNW,300,0.0,4.0,95,0.00,,,0.00,VWS V14.01,2013-04-01 04:18:00,
2013-04-01 00:19:00,43.2,41.9,29.68,WNW,300,0.0,4.0,95,0.00,,,0.00,VWS V14.01,2013-04-01 04:19:00,
2013-04-01 00:20:00,43.2,41.9,29.68,WNW,300,0.0,4.0,95,0.00,,,0.00,VWS V14.01,2013-04-01 04:20:00,
2013-04-01 00:21:00,43.2,41.9,29.68,WNW,300,0.0,4.0,95,0.00,,,0.00,VWS V14.01,2013-04-01 04:21:00,
2013-04-01 00:22:00,43.2,41.9,29.68,WNW,300,0.0,4.0,95,0.00,,,0.00,VWS V14.01,2013-04-01 04:22:00,
2013-04-01 00:23:00,43.2,41.9,29.68,WNW,296,0.0,0.0,95,0.00,,,0.00,VWS V14.01,2013-04-01 04:23:00,
2013-04-01 00:24:00,43.2,41.9,29.68,WNW,296,0.0,0.0,95,0.00,,,0.00,VWS V14.01,2013-04-01 04:24:00,
2013-04-01 00:25:00,43.2,41.9,29.68,WNW,296,2.0,3.0,95,0.00,,,0.00,VWS V14.01,2013-04-01 04:25:00,
2013-04-01 00:26:00,43.2,41.9,29.68,WNW,296,1.0,3.0,95,0.00,,,0.00,VWS V14.01,2013-04-01 04:26:00,
2013-04-01 00:27:00,43.2,41.9,29.68,WNW,296,1.0,3.0,95,0.00,,,0.00,VWS V14.01,2013-04-01 04:27:00,
2013-04-01 00:28:00,43.2,41.9,29.68,West,273,3.0,3.0,95,0.00,,,0.00,VWS V14.01,2013-04-01 04:28:00,
2013-04-01 00:29:00,43.2,41.9,29.68,West,273,1.0,3.0,95,0.00,,,0.00,VWS V14.01,2013-04-01 04:29:00,
2013-04-01 00:30:00,43.2,41.9,29.68,West,273,0.0,3.0,95,0.00,,,0.00,VWS V14.01,2013-04-01 04:30:00,
2013-04-01 00:31:00,43.1,41.8,29.68,West,273,0.0,1.0,95,0.00,,,0.00,VWS V14.01,2013-04-01 04:31:00,
2013-04-01 00:32:00,43.2,41.9,29.68,West,267,0.0,1.0,95,0.00,,,0.00,VWS V14.01,2013-04-01 04:32:00,
2013-04-01 00:33:00,43.2,41.9,29.68,West,267,0.0,1.0,95,0.00,,,0.00,VWS V14.01,2013-04-01 04:33:00,
2013-04-01 00:34:00,43.1,41.8,29.68,West,267,0.0,2.0,95,0.00,,,0.00,VWS V14.01,2013-04-01 04:34:00,
2013-04-01 00:35:00,43.1,41.8,29.68,WSW,258,4.0,4.0,95,0.00,,,0.00,VWS V14.01,2013-04-01 04:35:00,
2013-04-01 00:36:00,43.2,41.9,29.68,WSW,238,3.0,4.0,95,0.00,,,0.00,VWS V14.01,2013-04-01 04:36:00,
2013-04-01 00:37:00,43.1,41.8,29.68,West,273,2.0,4.0,95,0.00,,,0.00,VWS V14.01,2013-04-01 04:37:00,
2013-04-01 00:38:00,43.1,41.8,29.68,WNW,288,4.0,4.0,95,0.00,,,0.00,VWS V14.01,2013-04-01 04:38:00,
2013-04-01 00:39:00,43.1,41.8,29.68,WNW,288,1.0,4.0,95,0.00,,,0.00,VWS V14.01,2013-04-01 04:39:00,
2013-04-01 00:40:00,43.1,41.8,29.68,WNW,288,0.0,4.0,95,0.00,,,0.00,VWS V14.01,2013-04-01 04:40:00,
2013-04-01 00:41:00,43.1,41.8,29.68,West,263,3.0,3.0,95,0.00,,,0.00,VWS V14.01,2013-04-01 04:41:00,
2013-04-01 00:42:00,43.2,41.9,29.68,West,260,1.0,3.0,95,0.00,,,0.00,VWS V14.01,2013-04-01 04:42:00,
2013-04-01 00:43:00,43.1,41.8,29.68,West,260,1.0,3.0,95,0.00,,,0.00,VWS V14.01,2013-04-01 04:43:00,
2013-04-01 00:44:00,43.1,41.8,29.68,West,263,0.0,3.0,95,0.00,,,0.00,VWS V14.01,2013-04-01 04:44:00,
2013-04-01 00:45:00,43.1,41.8,29.68,West,263,4.0,4.0,95,0.00,,,0.00,VWS V14.01,2013-04-01 04:45:00,
2013-04-01 00:46:00,43.1,41.8,29.68,West,263,3.0,4.0,95,0.00,,,0.00,VWS V14.01,2013-04-01 04:46:00,
2013-04-01 00:47:00,43.1,41.8,29.68,West,263,0.0,4.0,95,0.00,,,0.00,VWS V14.01,2013-04-01 04:47:00,
2013-04-01 00:48:00,43.1,41.8,29.68,West,263,0.0,4.0,95,0.00,,,0.00,VWS V14.01,2013-04-01 04:48:00,
2013-04-01 00:49:00,43.1,41.8,29.68,West,263,1.0,4.0,95,0.00,,,0.00,VWS V14.01,2013-04-01 04:49:00,
2013-04-01 00:50:00,43.1,41.8,29.68,West,263,2.0,4.0,95,0.00,,,0.00,VWS V14.01,2013-04-01 04:50:00,
2013-04-01 00:51:00,43.1,41.8,29.68,West,263,1.0,1.0,95,0.00,,,0.00,VWS V14.01,2013-04-01 04:51:00,
2013-04-01 00:52:00,43.1,41.8,29.68,West,263,1.0,1.0,95,0.00,,,0.00,VWS V14.01,2013-04-01 04:52:00,
2013-04-01 00:53:00,43.1,41.8,29.68,West,260,3.0,3.0,95,0.00,,,0.00,VWS V14.01,2013-04-01 04:53:00,
2013-04-01 00:54:00,43.1,41.8,29.68,West,260,1.0,3.0,95,0.00,,,0.00,VWS V14.01,2013-04-01 04:54:00,
2013-04-01 00:55:00,43.1,41.8,29.68,West,262,0.0,3.0,95,0.00,,,0.00,VWS V14.01,2013-04-01 04:55:00,
2013-04-01 00:56:00,43.1,41.8,29.68,WSW,254,2.0,6.0,95,0.00,,,0.00,VWS V14.01,2013-04-01 04:56:00,
2013-04-01 00:57:00,43.1,41.8,29.68,West,261,4.0,6.0,95,0.00,,,0.00,VWS V14.01,2013-04-01 04:57:00,
2013-04-01 00:58:00,43.1,41.8,29.68,WSW,257,4.0,6.0,95,0.00,,,0.00,VWS V14.01,2013-04-01 04:58:00,
2013-04-01 00:59:00,43.1,41.8,29.68,WNW,290,2.0,7.0,95,0.00,,,0.00,VWS V14.01,2013-04-01 04:59:00,
2013-04-01 01:00:00,43.1,41.8,29.68,WNW,290,3.0,7.0,95,0.00,,,0.00,VWS V14.01,2013-04-01 05:00:00,
2013-04-01 01:01:00,43.1,41.8,29.68,WNW,290,2.0,3.0,95,0.00,,,0.00,VWS V14.01,2013-04-01 05:01:00,
2013-04-01 01:02:00,43.1,41.8,29.68,WNW,290,0.0,3.0,95,0.00,,,0.00,VWS V14.01,2013-04-01 05:02:00,
2013-04-01 01:03:00,43.1,41.8,29.68,WNW,292,2.0,4.0,95,0.00,,,0.00,VWS V14.01,2013-04-01 05:03:00,
2013-04-01 01:04:00,43.1,41.8,29.68,WNW,292,0.0,4.0,95,0.00,,,0.00,VWS V14.01,2013-04-01 05:04:00,
2013-04-01 01:05:00,43.1,41.8,29.68,West,265,3.0,5.0,95,0.00,,,0.00,VWS V14.01,2013-04-01 05:05:00,
2013-04-01 01:06:00,43.1,41.8,29.68,West,265,2.0,5.0,95,0.00,,,0.00,VWS V14.01,2013-04-01 05:06:00,
2013-04-01 01:07:00,43.1,41.8,29.68,West,265,2.0,5.0,95,0.00,,,0.00,VWS V14.01,2013-04-01 05:07:00,
2013-04-01 01:08:00,43.1,41.8,29.68,WSW,251,0.0,5.0,95,0.00,,,0.00,VWS V14.01,2013-04-01 05:08:00,
2013-04-01 01:09:00,43.1,41.8,29.68,WSW,251,0.0,5.0,95,0.00,,,0.00,VWS V14.01,2013-04-01 05:09:00,
2013-04-01 01:10:00,43.1,41.8,29.68,WSW,252,1.0,5.0,95,0.00,,,0.00,VWS V14.01,2013-04-01 05:10:00,
2013-04-01 01:11:00,43.1,41.8,29.68,WSW,252,1.0,5.0,95,0.00,,,0.00,VWS V14.01,2013-04-01 05:11:00,
2013-04-01 01:12:00,43.1,41.8,29.68,WSW,252,0.0,0.0,95,0.00,,,0.00,VWS V14.01,2013-04-01 05:12:00,
2013-04-01 01:13:00,43.1,41.8,29.68,WSW,252,0.0,0.0,95,0.00,,,0.00,VWS V14.01,2013-04-01 05:13:00,
2013-04-01 01:14:00,43.1,41.8,29.68,WSW,252,2.0,2.0,95,0.00,,,0.00,VWS V14.01,2013-04-01 05:14:00,
2013-04-01 01:15:00,43.1,41.8,29.67,WSW,252,2.0,4.0,95,0.00,,,0.00,VWS V14.01,2013-04-01 05:15:00,
2013-04-01 01:16:00,43.1,41.8,29.67,WSW,252,0.0,4.0,95,0.00,,,0.00,VWS V14.01,2013-04-01 05:16:00,
2013-04-01 01:17:00,43.1,41.8,29.67,WSW,252,0.0,4.0,95,0.00,,,0.00,VWS V14.01,2013-04-01 05:17:00,
2013-04-01 01:18:00,43.1,41.8,29.67,WSW,252,0.0,4.0,95,0.00,,,0.00,VWS V14.01,2013-04-01 05:18:00,
2013-04-01 01:19:00,43.1,41.8,29.67,WNW,293,3.0,4.0,95,0.00,,,0.00,VWS V14.01,2013-04-01 05:19:00,
2013-04-01 01:20:00,43.1,41.8,29.67,WNW,293,3.0,4.0,95,0.00,,,0.00,VWS V14.01,2013-04-01 05:20:00,
2013-04-01 01:21:00,43.1,41.8,29.67,WNW,293,2.0,2.0,95,0.00,,,0.00,VWS V14.01,2013-04-01 05:21:00,
2013-04-01 01:22:00,43.1,41.8,29.67,West,277,3.0,4.0,95,0.00,,,0.00,VWS V14.01,2013-04-01 05:22:00,
2013-04-01 01:23:00,43.1,41.8,29.67,West,277,2.0,4.0,95,0.00,,,0.00,VWS V14.01,2013-04-01 05:23:00,
2013-04-01 01:24:00,43.1,41.8,29.67,West,277,2.0,4.0,95,0.00,,,0.00,VWS V14.01,2013-04-01 05:24:00,
2013-04-01 01:25:00,43.1,41.8,29.67,West,273,3.0,4.0,95,0.00,,,0.00,VWS V14.01,2013-04-01 05:25:00,
2013-04-01 01:26:00,43.1,41.8,29.67,West,273,2.0,4.0,95,0.00,,,0.00,VWS V14.01,2013-04-01 05:26:00,
2013-04-01 01:27:00,43.1,41.8,29.67,West,273,0.0,4.0,95,0.00,,,0.00,VWS V14.01,2013-04-01 05:27:00,
2013-04-01 01:28:00,43.1,41.8,29.67,West,273,1.0,4.0,95,0.00,,,0.00,VWS V14.01,2013-04-01 05:28:00,
2013-04-01 01:29:00,43.1,41.8,29.67,West,275,4.0,6.0,95,0.00,,,0.00,VWS V14.01,2013-04-01 05:29:00,
2013-04-01 01:30:00,43.2,41.9,29.67,West,265,1.0,6.0,95,0.00,,,0.00,VWS V14.01,2013-04-01 05:30:00,
2013-04-01 01:31:00,43.1,41.8,29.67,WSW,255,3.0,5.0,95,0.00,,,0.00,VWS V14.01,2013-04-01 05:31:00,
2013-04-01 01:32:00,43.1,41.8,29.67,WSW,255,2.0,5.0,95,0.00,,,0.00,VWS V14.01,2013-04-01 05:32:00,
2013-04-01 01:33:00,43.1,41.8,29.67,West,271,4.0,5.0,95,0.00,,,0.00,VWS V14.01,2013-04-01 05:33:00,
2013-04-01 01:34:00,43.2,41.9,29.67,West,265,4.0,5.0,95,0.00,,,0.00,VWS V14.01,2013-04-01 05:34:00,
2013-04-01 01:35:00,43.1,41.8,29.67,West,265,1.0,5.0,95,0.00,,,0.00,VWS V14.01,2013-04-01 05:35:00,
2013-04-01 01:36:00,43.2,41.9,29.67,West,265,3.0,5.0,95,0.00,,,0.00,VWS V14.01,2013-04-01 05:36:00,
2013-04-01 01:37:00,43.2,41.9,29.67,West,265,1.0,5.0,95,0.00,,,0.00,VWS V14.01,2013-04-01 05:37:00,
2013-04-01 01:38:00,43.1,41.8,29.67,West,265,3.0,5.0,95,0.00,,,0.00,VWS V14.01,2013-04-01 05:38:00,
2013-04-01 01:39:00,43.2,41.9,29.67,West,265,3.0,5.0,95,0.00,,,0.00,VWS V14.01,2013-04-01 05:39:00,
2013-04-01 01:40:00,43.2,41.9,29.67,WNW,285,2.0,5.0,95,0.00,,,0.00,VWS V14.01,2013-04-01 05:40:00,
2013-04-01 01:41:00,43.2,41.9,29.67,WNW,285,1.0,5.0,95,0.00,,,0.00,VWS V14.01,2013-04-01 05:41:00,
2013-04-01 01:42:00,43.2,41.9,29.67,WNW,285,1.0,5.0,95,0.00,,,0.00,VWS V14.01,2013-04-01 05:42:00,
2013-04-01 01:43:00,43.2,41.9,29.67,WNW,285,3.0,4.0,95,0.00,,,0.00,VWS V14.01,2013-04-01 05:43:00,
2013-04-01 01:44:00,43.1,41.8,29.67,WNW,285,2.0,4.0,95,0.00,,,0.00,VWS V14.01,2013-04-01 05:44:00,
2013-04-01 01:45:00,43.1,41.8,29.67,WNW,285,3.0,4.0,95,0.00,,,0.00,VWS V14.01,2013-04-01 05:45:00,
2013-04-01 01:46:00,43.1,41.8,29.67,WNW,285,3.0,4.0,95,0.00,,,0.00,VWS V14.01,2013-04-01 05:46:00,
2013-04-01 01:47:00,43.1,41.8,29.67,WNW,285,3.0,4.0,95,0.00,,,0.00,VWS V14.01,2013-04-01 05:47:00,
2013-04-01 01:48:00,43.1,41.8,29.67,West,265,3.0,4.0,95,0.00,,,0.00,VWS V14.01,2013-04-01 05:48:00,
2013-04-01 01:49:00,43.1,41.8,29.67,West,265,2.0,4.0,95,0.00,,,0.00,VWS V14.01,2013-04-01 05:49:00,
2013-04-01 01:50:00,43.1,41.8,29.67,West,265,3.0,4.0,95,0.00,,,0.00,VWS V14.01,2013-04-01 05:50:00,
2013-04-01 01:51:00,43.1,41.8,29.67,West,265,0.0,2.0,95,0.00,,,0.00,VWS V14.01,2013-04-01 05:51:00,
2013-04-01 01:52:00,43.1,41.8,29.67,West,265,0.0,2.0,95,0.00,,,0.00,VWS V14.01,2013-04-01 05:52:00,
2013-04-01 01:53:00,43.1,41.8,29.67,West,265,1.0,3.0,95,0.00,,,0.00,VWS V14.01,2013-04-01 05:53:00,
2013-04-01 01:54:00,43.0,41.7,29.67,West,265,1.0,3.0,95,0.00,,,0.00,VWS V14.01,2013-04-01 05:54:00,
2013-04-01 01:55:00,43.0,41.7,29.67,West,265,0.0,3.0,95,0.00,,,0.00,VWS V14.01,2013-04-01 05:55:00,
2013-04-01 01:56:00,43.0,41.7,29.67,West,271,3.0,4.0,95,0.00,,,0.00,VWS V14.01,2013-04-01 05:56:00,
2013-04-01 01:57:00,43.0,41.7,29.67,West,271,0.0,4.0,95,0.00,,,0.00,VWS V14.01,2013-04-01 05:57:00,
2013-04-01 01:58:00,43.0,41.7,29.67,West,271,3.0,4.0,95,0.00,,,0.00,VWS V14.01,2013-04-01 05:58:00,
2013-04-01 01:59:00,42.9,41.6,29.67,West,271,0.0,4.0,95,0.00,,,0.00,VWS V14.01,2013-04-01 05:59:00,
2013-04-01 02:00:00,42.9,41.6,29.67,West,271,2.0,4.0,95,0.00,,,0.00,VWS V14.01,2013-04-01 06:00:00,
2013-04-01 02:01:00,42.9,41.6,29.67,West,270,4.0,4.0,95,0.00,,,0.00,VWS V14.01,2013-04-01 06:01:00,
2013-04-01 02:02:00,42.9,41.6,29.67,West,275,5.0,5.0,95,0.00,,,0.00,VWS V14.01,2013-04-01 06:02:00,
2013-04-01 02:03:00,42.9,41.6,29.67,West,269,5.0,6.0,95,0.00,,,0.00,VWS V14.01,2013-04-01 06:03:00,
2013-04-01 02:04:00,42.8,41.5,29.67,West,269,0.0,6.0,95,0.00,,,0.00,VWS V14.01,2013-04-01 06:04:00,
2013-04-01 02:05:00,42.8,41.5,29.67,West,267,3.0,6.0,95,0.00,,,0.00,VWS V14.01,2013-04-01 06:05:00,
2013-04-01 02:06:00,42.8,41.5,29.67,West,267,2.0,6.0,95,0.00,,,0.00,VWS V14.01,2013-04-01 06:06:00,
2013-04-01 02:07:00,42.8,41.5,29.67,West,270,4.0,6.0,95,0.00,,,0.00,VWS V14.01,2013-04-01 06:07:00,
2013-04-01 02:08:00,42.8,41.5,29.67,West,269,2.0,6.0,95,0.00,,,0.00,VWS V14.01,2013-04-01 06:08:00,
2013-04-01 02:09:00,42.8,41.5,29.67,West,268,3.0,6.0,95,0.00,,,0.00,VWS V14.01,2013-04-01 06:09:00,
2013-04-01 02:10:00,42.8,41.5,29.67,West,281,2.0,6.0,95,0.00,,,0.00,VWS V14.01,2013-04-01 06:10:00,
2013-04-01 02:11:00,42.8,41.5,29.67,West,281,2.0,6.0,95,0.00,,,0.00,VWS V14.01,2013-04-01 06:11:00,
2013-04-01 02:12:00,42.8,41.5,29.67,West,281,2.0,6.0,95,0.00,,,0.00,VWS V14.01,2013-04-01 06:12:00,
2013-04-01 02:13:00,42.7,41.4,29.67,WSW,258,3.0,5.0,95,0.00,,,0.00,VWS V14.01,2013-04-01 06:13:00,
2013-04-01 02:14:00,42.7,41.4,29.67,West,260,2.0,5.0,95,0.00,,,0.00,VWS V14.01,2013-04-01 06:14:00,
2013-04-01 02:15:00,42.7,41.4,29.68,West,260,0.0,5.0,95,0.00,,,0.00,VWS V14.01,2013-04-01 06:15:00,
2013-04-01 02:16:00,42.7,41.4,29.68,West,260,1.0,5.0,95,0.00,,,0.00,VWS V14.01,2013-04-01 06:16:00,
2013-04-01 02:17:00,42.7,41.4,29.68,West,260,2.0,5.0,95,0.00,,,0.00,VWS V14.01,2013-04-01 06:17:00,
2013-04-01 02:18:00,42.7,41.4,29.68,West,260,3.0,5.0,95,0.00,,,0.00,VWS V14.01,2013-04-01 06:18:00,
2013-04-01 02:19:00,42.6,41.3,29.68,West,260,1.0,5.0,95,0.00,,,0.00,VWS V14.01,2013-04-01 06:19:00,
2013-04-01 02:20:00,42.5,41.2,29.68,West,260,2.0,5.0,95,0.00,,,0.00,VWS V14.01,2013-04-01 06:20:00,
2013-04-01 02:21:00,42.5,41.2,29.68,West,260,2.0,2.0,95,0.00,,,0.00,VWS V14.01,2013-04-01 06:21:00,
2013-04-01 02:22:00,42.5,41.2,29.68,West,260,2.0,2.0,95,0.00,,,0.00,VWS V14.01,2013-04-01 06:22:00,
2013-04-01 02:23:00,42.5,41.2,29.68,West,260,0.0,2.0,95,0.00,,,0.00,VWS V14.01,2013-04-01 06:23:00,
2013-04-01 02:24:00,42.5,41.2,29.68,West,260,0.0,2.0,95,0.00,,,0.00,VWS V14.01,2013-04-01 06:24:00,
2013-04-01 02:25:00,42.5,41.2,29.68,West,260,3.0,4.0,95,0.00,,,0.00,VWS V14.01,2013-04-01 06:25:00,
2013-04-01 02:26:00,42.5,41.2,29.68,West,260,2.0,4.0,95,0.00,,,0.00,VWS V14.01,2013-04-01 06:26:00,
2013-04-01 02:27:00,42.5,41.2,29.68,West,260,1.0,4.0,95,0.00,,,0.00,VWS V14.01,2013-04-01 06:27:00,
2013-04-01 02:28:00,42.5,41.2,29.68,West,260,0.0,4.0,95,0.00,,,0.00,VWS V14.01,2013-04-01 06:28:00,
2013-04-01 02:29:00,42.5,41.2,29.68,West,269,3.0,7.0,95,0.00,,,0.00,VWS V14.01,2013-04-01 06:29:00,
2013-04-01 02:30:00,42.5,41.2,29.68,West,269,0.0,7.0,95,0.00,,,0.00,VWS V14.01,2013-04-01 06:30:00,
2013-04-01 02:31:00,42.5,41.2,29.68,West,269,0.0,0.0,95,0.00,,,0.00,VWS V14.01,2013-04-01 06:31:00,
2013-04-01 02:32:00,42.5,41.2,29.68,West,270,2.0,3.0,95,0.00,,,0.00,VWS V14.01,2013-04-01 06:32:00,
2013-04-01 02:33:00,42.5,41.2,29.68,West,270,1.0,3.0,95,0.00,,,0.00,VWS V14.01,2013-04-01 06:33:00,
2013-04-01 02:34:00,42.5,41.2,29.68,West,270,0.0,3.0,95,0.00,,,0.00,VWS V14.01,2013-04-01 06:34:00,
2013-04-01 02:35:00,42.5,41.2,29.68,West,270,3.0,3.0,95,0.00,,,0.00,VWS V14.01,2013-04-01 06:35:00,
2013-04-01 02:36:00,42.5,41.2,29.68,West,270,1.0,3.0,95,0.00,,,0.00,VWS V14.01,2013-04-01 06:36:00,
2013-04-01 02:37:00,42.5,41.2,29.68,West,269,4.0,4.0,95,0.00,,,0.00,VWS V14.01,2013-04-01 06:37:00,
2013-04-01 02:38:00,42.5,41.2,29.68,West,269,1.0,4.0,95,0.00,,,0.00,VWS V14.01,2013-04-01 06:38:00,
2013-04-01 02:39:00,42.5,41.2,29.68,West,260,2.0,5.0,95,0.00,,,0.00,VWS V14.01,2013-04-01 06:39:00,
2013-04-01 02:40:00,42.5,41.2,29.68,West,264,4.0,5.0,95,0.00,,,0.00,VWS V14.01,2013-04-01 06:40:00,
2013-04-01 02:41:00,42.5,41.2,29.68,West,264,2.0,5.0,95,0.00,,,0.00,VWS V14.01,2013-04-01 06:41:00,
2013-04-01 02:42:00,42.5,41.2,29.68,West,264,2.0,5.0,95,0.00,,,0.00,VWS V14.01,2013-04-01 06:42:00,
2013-04-01 02:43:00,42.5,41.2,29.68,West,266,3.0,5.0,95,0.00,,,0.00,VWS V14.01,2013-04-01 06:43:00,
2013-04-01 02:44:00,42.6,41.3,29.68,West,266,0.0,5.0,95,0.00,,,0.00,VWS V14.01,2013-04-01 06:44:00,
2013-04-01 02:45:00,42.5,41.2,29.69,West,265,4.0,5.0,95,0.00,,,0.00,VWS V14.01,2013-04-01 06:45:00,
2013-04-01 02:46:00,42.6,41.3,29.69,West,273,2.0,5.0,95,0.00,,,0.00,VWS V14.01,2013-04-01 06:46:00,
2013-04-01 02:47:00,42.6,41.3,29.69,West,273,2.0,5.0,95,0.00,,,0.00,VWS V14.01,2013-04-01 06:47:00,
2013-04-01 02:48:00,42.6,41.3,29.69,WSW,254,2.0,5.0,95,0.00,,,0.00,VWS V14.01,2013-04-01 06:48:00,
2013-04-01 02:49:00,42.7,41.4,29.69,WSW,254,0.0,5.0,95,0.00,,,0.00,VWS V14.01,2013-04-01 06:49:00,
2013-04-01 02:50:00,42.7,41.4,29.69,WSW,254,0.0,5.0,95,0.00,,,0.00,VWS V14.01,2013-04-01 06:50:00,
2013-04-01 02:51:00,42.7,41.4,29.69,WSW,254,0.0,0.0,95,0.00,,,0.00,VWS V14.01,2013-04-01 06:51:00,
2013-04-01 02:52:00,42.7,41.4,29.69,WSW,254,0.0,1.0,95,0.00,,,0.00,VWS V14.01,2013-04-01 06:52:00,
2013-04-01 02:53:00,42.7,41.4,29.69,WSW,254,0.0,1.0,95,0.00,,,0.00,VWS V14.01,2013-04-01 06:53:00,
2013-04-01 02:54:00,42.7,41.4,29.69,WSW,254,1.0,2.0,95,0.00,,,0.00,VWS V14.01,2013-04-01 06:54:00,
2013-04-01 02:55:00,42.7,41.4,29.69,West,265,5.0,5.0,95,0.00,,,0.00,VWS V14.01,2013-04-01 06:55:00,
2013-04-01 02:56:00,42.7,41.4,29.69,West,268,3.0,5.0,95,0.00,,,0.00,VWS V14.01,2013-04-01 06:56:00,
2013-04-01 02:57:00,42.7,41.4,29.69,West,281,3.0,5.0,95,0.00,,,0.00,VWS V14.01,2013-04-01 06:57:00,
2013-04-01 02:58:00,42.8,41.5,29.69,West,271,3.0,6.0,95,0.00,,,0.00,VWS V14.01,2013-04-01 06:58:00,
2013-04-01 02:59:00,42.8,41.5,29.69,West,271,0.0,6.0,95,0.00,,,0.00,VWS V14.01,2013-04-01 06:59:00,
2013-04-01 03:00:00,42.8,41.5,29.68,West,271,1.0,6.0,95,0.00,,,0.00,VWS V14.01,2013-04-01 07:00:00,
2013-04-01 03:01:00,42.8,41.5,29.68,West,271,0.0,1.0,95,0.00,,,0.00,VWS V14.01,2013-04-01 07:01:00,
2013-04-01 03:02:00,42.8,41.5,29.68,West,271,0.0,1.0,95,0.00,,,0.00,VWS V14.01,2013-04-01 07:02:00,
2013-04-01 03:03:00,42.8,41.5,29.68,West,271,1.0,2.0,95,0.00,,,0.00,VWS V14.01,2013-04-01 07:03:00,
2013-04-01 03:04:00,42.8,41.5,29.68,West,271,0.0,2.0,95,0.00,,,0.00,VWS V14.01,2013-04-01 07:04:00,
2013-04-01 03:05:00,42.8,41.5,29.68,West,271,1.0,2.0,95,0.00,,,0.00,VWS V14.01,2013-04-01 07:05:00,
2013-04-01 03:06:00,42.8,41.5,29.68,West,271,1.0,2.0,95,0.00,,,0.00,VWS V14.01,2013-04-01 07:06:00,
2013-04-01 03:07:00,42.8,41.5,29.68,West,272,2.0,3.0,95,0.00,,,0.00,VWS V14.01,2013-04-01 07:07:00,
2013-04-01 03:08:00,42.8,41.5,29.68,West,271,3.0,4.0,95,0.00,,,0.00,VWS V14.01,2013-04-01 07:08:00,
2013-04-01 03:09:00,42.7,41.4,29.68,West,271,0.0,4.0,95,0.00,,,0.00,VWS V14.01,2013-04-01 07:09:00,
2013-04-01 03:10:00,42.8,41.5,29.68,West,271,2.0,4.0,95,0.00,,,0.00,VWS V14.01,2013-04-01 07:10:00,
2013-04-01 03:11:00,42.8,41.5,29.68,West,271,1.0,4.0,95,0.00,,,0.00,VWS V14.01,2013-04-01 07:11:00,
2013-04-01 03:12:00,42.8,41.5,29.68,West,271,1.0,4.0,95,0.00,,,0.00,VWS V14.01,2013-04-01 07:12:00,
2013-04-01 03:13:00,42.8,41.5,29.68,West,271,2.0,3.0,95,0.00,,,0.00,VWS V14.01,2013-04-01 07:13:00,
2013-04-01 03:14:00,42.7,41.4,29.68,WSW,258,2.0,4.0,95,0.00,,,0.00,VWS V14.01,2013-04-01 07:14:00,
2013-04-01 03:15:00,42.7,41.4,29.68,WSW,258,3.0,4.0,95,0.00,,,0.00,VWS V14.01,2013-04-01 07:15:00,
2013-04-01 03:16:00,42.7,41.4,29.68,WSW,258,2.0,4.0,95,0.00,,,0.00,VWS V14.01,2013-04-01 07:16:00,
2013-04-01 03:17:00,42.7,41.4,29.68,WSW,258,2.0,4.0,95,0.00,,,0.00,VWS V14.01,2013-04-01 07:17:00,
2013-04-01 03:18:00,42.7,41.4,29.68,West,280,3.0,4.0,95,0.00,,,0.00,VWS V14.01,2013-04-01 07:18:00,
2013-04-01 03:19:00,42.7,41.4,29.68,West,280,0.0,4.0,95,0.00,,,0.00,VWS V14.01,2013-04-01 07:19:00,
2013-04-01 03:20:00,42.7,41.4,29.68,West,261,5.0,5.0,95,0.00,,,0.00,VWS V14.01,2013-04-01 07:20:00,
2013-04-01 03:21:00,42.7,41.4,29.68,WSW,257,2.0,4.0,95,0.00,,,0.00,VWS V14.01,2013-04-01 07:21:00,
2013-04-01 03:22:00,42.7,41.4,29.68,WSW,257,2.0,4.0,95,0.00,,,0.00,VWS V14.01,2013-04-01 07:22:00,
2013-04-01 03:23:00,42.7,41.4,29.68,West,265,0.0,4.0,95,0.00,,,0.00,VWS V14.01,2013-04-01 07:23:00,
2013-04-01 03:24:00,42.6,41.3,29.68,West,265,0.0,4.0,95,0.00,,,0.00,VWS V14.01,2013-04-01 07:24:00,
2013-04-01 03:25:00,42.6,41.3,29.68,WSW,240,4.0,5.0,95,0.00,,,0.00,VWS V14.01,2013-04-01 07:25:00,
2013-04-01 03:26:00,42.6,41.3,29.68,WSW,240,0.0,5.0,95,0.00,,,0.00,VWS V14.01,2013-04-01 07:26:00,
2013-04-01 03:27:00,42.6,41.3,29.68,West,261,1.0,5.0,95,0.00,,,0.00,VWS V14.01,2013-04-01 07:27:00,
2013-04-01 03:28:00,42.6,41.3,29.68,West,260,2.0,5.0,95,0.00,,,0.00,VWS V14.01,2013-04-01 07:28:00,
2013-04-01 03:29:00,42.6,41.3,29.68,West,263,5.0,6.0,95,0.00,,,0.00,VWS V14.01,2013-04-01 07:29:00,
2013-04-01 03:30:00,42.6,41.3,29.68,West,263,2.0,6.0,95,0.00,,,0.00,VWS V14.01,2013-04-01 07:30:00,
2013-04-01 03:31:00,42.7,41.4,29.68,West,263,3.0,3.0,95,0.00,,,0.00,VWS V14.01,2013-04-01 07:31:00,
2013-04-01 03:32:00,42.6,41.3,29.68,West,259,0.0,3.0,95,0.00,,,0.00,VWS V14.01,2013-04-01 07:32:00,
2013-04-01 03:33:00,42.6,41.3,29.68,West,259,0.0,3.0,95,0.00,,,0.00,VWS V14.01,2013-04-01 07:33:00,
2013-04-01 03:34:00,42.7,41.4,29.68,West,275,2.0,5.0,95,0.00,,,0.00,VWS V14.01,2013-04-01 07:34:00,
2013-04-01 03:35:00,42.7,41.4,29.68,West,275,2.0,5.0,95,0.00,,,0.00,VWS V14.01,2013-04-01 07:35:00,
2013-04-01 03:36:00,42.7,41.4,29.68,West,275,0.0,5.0,95,0.00,,,0.00,VWS V14.01,2013-04-01 07:36:00,
2013-04-01 03:37:00,42.7,41.4,29.68,West,275,0.0,5.0,95,0.00,,,0.00,VWS V14.01,2013-04-01 07:37:00,
2013-04-01 03:38:00,42.7,41.4,29.68,West,278,0.0,5.0,95,0.00,,,0.00,VWS V14.01,2013-04-01 07:38:00,
2013-04-01 03:39:00,42.7,41.4,29.68,West,278,0.0,5.0,95,0.00,,,0.00,VWS V14.01,2013-04-01 07:39:00,
2013-04-01 03:40:00,42.7,41.4,29.68,West,278,1.0,5.0,95,0.00,,,0.00,VWS V14.01,2013-04-01 07:40:00,
2013-04-01 03:41:00,42.7,41.4,29.68,West,278,1.0,5.0,95,0.00,,,0.00,VWS V14.01,2013-04-01 07:41:00,
2013-04-01 03:42:00,42.7,41.4,29.68,West,278,1.0,5.0,95,0.00,,,0.00,VWS V14.01,2013-04-01 07:42:00,
2013-04-01 03:43:00,42.7,41.4,29.68,West,269,0.0,4.0,95,0.00,,,0.00,VWS V14.01,2013-04-01 07:43:00,
2013-04-01 03:44:00,42.8,41.5,29.68,NW,304,2.0,4.0,95,0.00,,,0.00,VWS V14.01,2013-04-01 07:44:00,
2013-04-01 03:45:00,42.8,41.5,29.68,WNW,303,3.0,4.0,95,0.00,,,0.00,VWS V14.01,2013-04-01 07:45:00,
2013-04-01 03:46:00,42.8,41.5,29.68,WNW,295,4.0,4.0,95,0.00,,,0.00,VWS V14.01,2013-04-01 07:46:00,
2013-04-01 03:47:00,42.8,41.5,29.68,WNW,295,4.0,4.0,95,0.00,,,0.00,VWS V14.01,2013-04-01 07:47:00,
2013-04-01 03:48:00,42.7,41.4,29.68,West,263,2.0,4.0,95,0.00,,,0.00,VWS V14.01,2013-04-01 07:48:00,
2013-04-01 03:49:00,42.8,41.5,29.68,WNW,303,3.0,6.0,95,0.00,,,0.00,VWS V14.01,2013-04-01 07:49:00,
2013-04-01 03:50:00,42.8,41.5,29.68,West,271,0.0,6.0,95,0.00,,,0.00,VWS V14.01,2013-04-01 07:50:00,
2013-04-01 03:51:00,42.8,41.5,29.68,West,271,0.0,0.0,95,0.00,,,0.00,VWS V14.01,2013-04-01 07:51:00,
2013-04-01 03:52:00,42.8,41.5,29.68,West,271,0.0,0.0,95,0.00,,,0.00,VWS V14.01,2013-04-01 07:52:00,
2013-04-01 03:53:00,42.8,41.5,29.68,West,265,2.0,2.0,95,0.00,,,0.00,VWS V14.01,2013-04-01 07:53:00,
2013-04-01 03:54:00,42.8,41.5,29.68,West,259,6.0,6.0,95,0.00,,,0.00,VWS V14.01,2013-04-01 07:54:00,
2013-04-01 03:55:00,42.8,41.5,29.68,West,278,3.0,6.0,95,0.00,,,0.00,VWS V14.01,2013-04-01 07:55:00,
2013-04-01 03:56:00,42.8,41.5,29.68,West,279,0.0,6.0,95,0.00,,,0.00,VWS V14.01,2013-04-01 07:56:00,
2013-04-01 03:57:00,42.8,41.5,29.68,WNW,285,2.0,6.0,95,0.00,,,0.00,VWS V14.01,2013-04-01 07:57:00,
2013-04-01 03:58:00,42.8,41.5,29.68,WNW,285,2.0,6.0,95,0.00,,,0.00,VWS V14.01,2013-04-01 07:58:00,
2013-04-01 03:59:00,42.8,41.5,29.68,WNW,285,2.0,6.0,95,0.00,,,0.00,VWS V14.01,2013-04-01 07:59:00,
2013-04-01 04:00:00,42.8,41.5,29.68,West,269,3.0,4.0,95,0.00,,,0.00,VWS V14.01,2013-04-01 08:00:00,
2013-04-01 04:01:00,42.8,41.5,29.68,West,273,2.0,4.0,95,0.00,,,0.00,VWS V14.01,2013-04-01 08:01:00,
2013-04-01 04:02:00,42.8,41.5,29.68,West,266,2.0,4.0,95,0.00,,,0.00,VWS V14.01,2013-04-01 08:02:00,
2013-04-01 04:03:00,42.9,41.6,29.68,West,266,0.0,4.0,95,0.00,,,0.00,VWS V14.01,2013-04-01 08:03:00,
2013-04-01 04:04:00,42.9,41.6,29.68,West,266,1.0,4.0,95,0.00,,,0.00,VWS V14.01,2013-04-01 08:04:00,
2013-04-01 04:05:00,42.9,41.6,29.68,West,265,4.0,4.0,95,0.00,,,0.00,VWS V14.01,2013-04-01 08:05:00,
2013-04-01 04:06:00,42.9,41.6,29.68,West,261,3.0,5.0,95,0.00,,,0.00,VWS V14.01,2013-04-01 08:06:00,
2013-04-01 04:07:00,42.9,41.6,29.68,WNW,295,3.0,5.0,95,0.00,,,0.00,VWS V14.01,2013-04-01 08:07:00,
2013-04-01 04:08:00,42.9,41.6,29.68,NW,320,3.0,5.0,95,0.00,,,0.00,VWS V14.01,2013-04-01 08:08:00,
2013-04-01 04:09:00,42.9,41.6,29.68,West,278,7.0,10.0,95,0.00,,,0.00,VWS V14.01,2013-04-01 08:09:00,
2013-04-01 04:10:00,43.0,41.9,29.68,West,268,3.0,10.0,96,0.00,,,0.00,VWS V14.01,2013-04-01 08:10:00,
2013-04-01 04:11:00,43.0,41.9,29.68,West,268,3.0,10.0,96,0.00,,,0.00,VWS V14.01,2013-04-01 08:11:00,
2013-04-01 04:12:00,43.0,41.9,29.68,WNW,302,3.0,6.0,96,0.00,,,0.00,VWS V14.01,2013-04-01 08:12:00,
2013-04-01 04:13:00,43.0,41.9,29.68,WNW,302,1.0,6.0,96,0.00,,,0.00,VWS V14.01,2013-04-01 08:13:00,
2013-04-01 04:14:00,43.0,41.9,29.68,SW,229,3.0,6.0,96,0.00,,,0.00,VWS V14.01,2013-04-01 08:14:00,
2013-04-01 04:15:00,43.0,41.9,29.68,West,264,4.0,7.0,96,0.00,,,0.00,VWS V14.01,2013-04-01 08:15:00,
2013-04-01 04:16:00,43.1,42.0,29.68,WSW,257,4.0,7.0,96,0.00,,,0.00,VWS V14.01,2013-04-01 08:16:00,
2013-04-01 04:17:00,43.1,42.0,29.68,WSW,241,5.0,7.0,96,0.00,,,0.00,VWS V14.01,2013-04-01 08:17:00,
2013-04-01 04:18:00,43.1,42.0,29.68,West,274,5.0,7.0,96,0.00,,,0.00,VWS V14.01,2013-04-01 08:18:00,
2013-04-01 04:19:00,43.1,41.8,29.68,WSW,252,5.0,7.0,95,0.00,,,0.00,VWS V14.01,2013-04-01 08:19:00,
2013-04-01 04:20:00,43.1,42.0,29.68,SW,217,4.0,7.0,96,0.00,,,0.00,VWS V14.01,2013-04-01 08:20:00,
2013-04-01 04:21:00,43.1,42.0,29.68,West,263,7.0,7.0,96,0.00,,,0.00,VWS V14.01,2013-04-01 08:21:00,
2013-04-01 04:22:00,43.1,41.8,29.68,West,274,4.0,11.0,95,0.00,,,0.00,VWS V14.01,2013-04-01 08:22:00,
2013-04-01 04:23:00,43.1,42.0,29.68,SW,226,10.0,11.0,96,0.00,,,0.00,VWS V14.01,2013-04-01 08:23:00,
2013-04-01 04:24:00,43.1,42.0,29.68,West,271,8.0,11.0,96,0.00,,,0.00,VWS V14.01,2013-04-01 08:24:00,
2013-04-01 04:25:00,43.2,42.1,29.68,West,267,3.0,11.0,96,0.00,,,0.00,VWS V14.01,2013-04-01 08:25:00,
2013-04-01 04:26:00,43.2,42.1,29.68,West,266,3.0,11.0,96,0.00,,,0.00,VWS V14.01,2013-04-01 08:26:00,
2013-04-01 04:27:00,43.2,42.1,29.68,West,266,3.0,11.0,96,0.00,,,0.00,VWS V14.01,2013-04-01 08:27:00,
2013-04-01 04:28:00,43.2,42.1,29.68,WSW,258,3.0,11.0,96,0.00,,,0.00,VWS V14.01,2013-04-01 08:28:00,
2013-04-01 04:29:00,43.2,41.9,29.68,West,262,5.0,11.0,95,0.00,,,0.00,VWS V14.01,2013-04-01 08:29:00,
2013-04-01 04:30:00,43.2,41.9,29.69,West,261,3.0,11.0,95,0.00,,,0.00,VWS V14.01,2013-04-01 08:30:00,
2013-04-01 04:31:00,43.2,41.9,29.69,West,277,7.0,7.0,95,0.00,,,0.00,VWS V14.01,2013-04-01 08:31:00,
2013-04-01 04:32:00,43.2,41.9,29.69,West,277,7.0,7.0,95,0.00,,,0.00,VWS V14.01,2013-04-01 08:32:00,
2013-04-01 04:33:00,43.2,42.1,29.69,NW,308,2.0,7.0,96,0.00,,,0.00,VWS V14.01,2013-04-01 08:33:00,
2013-04-01 04:34:00,43.2,42.1,29.69,WSW,252,2.0,7.0,96,0.00,,,0.00,VWS V14.01,2013-04-01 08:34:00,
2013-04-01 04:35:00,43.2,42.1,29.69,West,274,0.0,7.0,96,0.00,,,0.00,VWS V14.01,2013-04-01 08:35:00,
2013-04-01 04:36:00,43.2,41.9,29.69,West,274,0.0,7.0,95,0.00,,,0.00,VWS V14.01,2013-04-01 08:36:00,
2013-04-01 04:37:00,43.3,42.2,29.69,West,274,0.0,7.0,96,0.00,,,0.00,VWS V14.01,2013-04-01 08:37:00,
2013-04-01 04:38:00,43.3,42.0,29.69,West,274,0.0,7.0,95,0.00,,,0.00,VWS V14.01,2013-04-01 08:38:00,
2013-04-01 04:39:00,43.3,42.0,29.69,West,274,0.0,7.0,95,0.00,,,0.00,VWS V14.01,2013-04-01 08:39:00,
2013-04-01 04:40:00,43.2,41.9,29.69,West,274,0.0,7.0,95,0.00,,,0.00,VWS V14.01,2013-04-01 08:40:00,
2013-04-01 04:41:00,43.3,42.0,29.69,West,274,0.0,1.0,95,0.00,,,0.00,VWS V14.01,2013-04-01 08:41:00,
2013-04-01 04:42:00,43.3,42.0,29.69,West,261,2.0,4.0,95,0.00,,,0.00,VWS V14.01,2013-04-01 08:42:00,
2013-04-01 04:43:00,43.3,42.0,29.69,West,266,4.0,8.0,95,0.00,,,0.00,VWS V14.01,2013-04-01 08:43:00,
2013-04-01 04:44:00,43.3,42.0,29.69,WSW,248,4.0,8.0,95,0.00,,,0.00,VWS V14.01,2013-04-01 08:44:00,
2013-04-01 04:45:00,43.3,42.0,29.69,WSW,248,1.0,8.0,95,0.00,,,0.00,VWS V14.01,2013-04-01 08:45:00,
2013-04-01 04:46:00,43.3,42.0,29.69,West,260,0.0,8.0,95,0.00,,,0.00,VWS V14.01,2013-04-01 08:46:00,
2013-04-01 04:47:00,43.3,42.0,29.69,West,260,0.0,8.0,95,0.00,,,0.00,VWS V14.01,2013-04-01 08:47:00,
2013-04-01 04:48:00,43.3,42.0,29.69,SW,224,4.0,8.0,95,0.00,,,0.00,VWS V14.01,2013-04-01 08:48:00,
2013-04-01 04:49:00,43.3,42.0,29.69,WNW,303,4.0,8.0,95,0.00,,,0.00,VWS V14.01,2013-04-01 08:49:00,
2013-04-01 04:50:00,43.3,42.0,29.69,WSW,257,7.0,8.0,95,0.00,,,0.00,VWS V14.01,2013-04-01 08:50:00,
2013-04-01 04:51:00,43.3,42.0,29.69,WSW,248,8.0,13.0,95,0.00,,,0.00,VWS V14.01,2013-04-01 08:51:00,
2013-04-01 04:52:00,43.3,42.0,29.69,WSW,248,8.0,13.0,95,0.00,,,0.00,VWS V14.01,2013-04-01 08:52:00,
2013-04-01 04:53:00,43.3,42.0,29.69,WSW,258,2.0,13.0,95,0.00,,,0.00,VWS V14.01,2013-04-01 08:53:00,
2013-04-01 04:54:00,43.3,42.0,29.69,WSW,253,4.0,13.0,95,0.00,,,0.00,VWS V14.01,2013-04-01 08:54:00,
2013-04-01 04:55:00,43.3,42.0,29.69,NW,306,0.0,13.0,95,0.00,,,0.00,VWS V14.01,2013-04-01 08:55:00,
2013-04-01 04:56:00,43.2,41.9,29.69,West,276,5.0,13.0,95,0.00,,,0.00,VWS V14.01,2013-04-01 08:56:00,
2013-04-01 04:57:00,43.2,41.9,29.69,WSW,252,1.0,13.0,95,0.00,,,0.00,VWS V14.01,2013-04-01 08:57:00,
2013-04-01 04:58:00,43.2,41.9,29.69,WNW,283,2.0,13.0,95,0.00,,,0.00,VWS V14.01,2013-04-01 08:58:00,
2013-04-01 04:59:00,43.2,41.9,29.69,WNW,283,0.0,13.0,95,0.00,,,0.00,VWS V14.01,2013-04-01 08:59:00,
2013-04-01 05:00:00,43.3,42.0,29.69,West,276,3.0,13.0,95,0.00,,,0.00,VWS V14.01,2013-04-01 09:00:00,
2013-04-01 05:01:00,43.2,41.9,29.69,West,271,4.0,4.0,95,0.00,,,0.00,VWS V14.01,2013-04-01 09:01:00,
2013-04-01 05:02:00,43.2,41.9,29.69,West,271,0.0,4.0,95,0.00,,,0.00,VWS V14.01,2013-04-01 09:02:00,
2013-04-01 05:03:00,43.3,42.0,29.69,West,271,0.0,4.0,95,0.00,,,0.00,VWS V14.01,2013-04-01 09:03:00,
2013-04-01 05:04:00,43.2,41.9,29.69,West,271,1.0,4.0,95,0.00,,,0.00,VWS V14.01,2013-04-01 09:04:00,
2013-04-01 05:05:00,43.2,41.9,29.69,West,271,0.0,4.0,95,0.00,,,0.00,VWS V14.01,2013-04-01 09:05:00,
2013-04-01 05:06:00,43.2,41.9,29.69,West,271,0.0,4.0,95,0.00,,,0.00,VWS V14.01,2013-04-01 09:06:00,
2013-04-01 05:07:00,43.2,41.9,29.69,West,265,4.0,4.0,95,0.00,,,0.00,VWS V14.01,2013-04-01 09:07:00,
2013-04-01 05:08:00,43.2,41.9,29.69,West,265,4.0,4.0,95,0.00,,,0.00,VWS V14.01,2013-04-01 09:08:00,
2013-04-01 05:09:00,43.2,41.9,29.69,WSW,244,0.0,4.0,95,0.00,,,0.00,VWS V14.01,2013-04-01 09:09:00,
2013-04-01 05:10:00,43.3,42.0,29.69,WSW,245,0.0,4.0,95,0.00,,,0.00,VWS V14.01,2013-04-01 09:10:00,
2013-04-01 05:11:00,43.2,41.9,29.69,WSW,245,1.0,1.0,95,0.00,,,0.00,VWS V14.01,2013-04-01 09:11:00,
2013-04-01 05:12:00,43.2,41.9,29.69,West,272,1.0,2.0,95,0.00,,,0.00,VWS V14.01,2013-04-01 09:12:00,
2013-04-01 05:13:00,43.2,41.9,29.69,West,272,2.0,2.0,95,0.00,,,0.00,VWS V14.01,2013-04-01 09:13:00,
2013-04-01 05:14:00,43.2,41.9,29.69,West,267,5.0,5.0,95,0.00,,,0.00,VWS V14.01,2013-04-01 09:14:00,
2013-04-01 05:15:00,43.2,41.9,29.69,West,262,2.0,5.0,95,0.00,,,0.00,VWS V14.01,2013-04-01 09:15:00,
2013-04-01 05:16:00,43.2,41.9,29.69,West,262,2.0,5.0,95,0.00,,,0.00,VWS V14.01,2013-04-01 09:16:00,
2013-04-01 05:17:00,43.2,41.9,29.69,West,262,2.0,5.0,95,0.00,,,0.00,VWS V14.01,2013-04-01 09:17:00,
2013-04-01 05:18:00,43.2,41.9,29.69,West,262,0.0,5.0,95,0.00,,,0.00,VWS V14.01,2013-04-01 09:18:00,
2013-04-01 05:19:00,43.2,41.9,29.69,West,262,1.0,5.0,95,0.00,,,0.00,VWS V14.01,2013-04-01 09:19:00,
2013-04-01 05:20:00,43.2,41.9,29.69,West,262,3.0,5.0,95,0.00,,,0.00,VWS V14.01,2013-04-01 09:20:00,
2013-04-01 05:21:00,43.2,41.9,29.69,West,262,3.0,5.0,95,0.00,,,0.00,VWS V14.01,2013-04-01 09:21:00,
2013-04-01 05:22:00,43.2,41.9,29.69,West,262,3.0,5.0,95,0.00,,,0.00,VWS V14.01,2013-04-01 09:22:00,
2013-04-01 05:23:00,43.2,41.9,29.69,West,259,0.0,4.0,95,0.00,,,0.00,VWS V14.01,2013-04-01 09:23:00,
2013-04-01 05:24:00,43.2,41.9,29.69,WNW,299,4.0,6.0,95,0.00,,,0.00,VWS V14.01,2013-04-01 09:24:00,
2013-04-01 05:25:00,43.2,41.9,29.69,WNW,298,2.0,6.0,95,0.00,,,0.00,VWS V14.01,2013-04-01 09:25:00,
2013-04-01 05:26:00,43.2,41.9,29.69,WNW,296,3.0,6.0,95,0.00,,,0.00,VWS V14.01,2013-04-01 09:26:00,
2013-04-01 05:27:00,43.2,41.9,29.69,WNW,296,3.0,6.0,95,0.00,,,0.00,VWS V14.01,2013-04-01 09:27:00,
2013-04-01 05:28:00,43.2,41.9,29.69,WNW,296,0.0,6.0,95,0.00,,,0.00,VWS V14.01,2013-04-01 09:28:00,
2013-04-01 05:29:00,43.2,41.9,29.69,WNW,296,0.0,6.0,95,0.00,,,0.00,VWS V14.01,2013-04-01 09:29:00,
2013-04-01 05:30:00,43.2,41.9,29.69,WNW,296,0.0,6.0,95,0.00,,,0.00,VWS V14.01,2013-04-01 09:30:00,
2013-04-01 05:31:00,43.2,41.9,29.69,WNW,296,0.0,0.0,95,0.00,,,0.00,VWS V14.01,2013-04-01 09:31:00,
2013-04-01 05:32:00,43.1,41.8,29.69,WSW,249,6.0,7.0,95,0.00,,,0.00,VWS V14.01,2013-04-01 09:32:00,
2013-04-01 05:33:00,43.1,41.8,29.69,West,261,4.0,7.0,95,0.00,,,0.00,VWS V14.01,2013-04-01 09:33:00,
2013-04-01 05:34:00,43.1,41.8,29.69,West,261,2.0,7.0,95,0.00,,,0.00,VWS V14.01,2013-04-01 09:34:00,
2013-04-01 05:35:00,43.1,41.8,29.69,West,261,0.0,7.0,95,0.00,,,0.00,VWS V14.01,2013-04-01 09:35:00,
2013-04-01 05:36:00,43.1,41.8,29.69,West,261,1.0,7.0,95,0.00,,,0.00,VWS V14.01,2013-04-01 09:36:00,
2013-04-01 05:37:00,43.1,41.8,29.69,West,261,2.0,7.0,95,0.00,,,0.00,VWS V14.01,2013-04-01 09:37:00,
2013-04-01 05:38:00,43.1,41.8,29.69,West,261,0.0,7.0,95,0.00,,,0.00,VWS V14.01,2013-04-01 09:38:00,
2013-04-01 05:39:00,43.1,41.8,29.69,West,261,2.0,7.0,95,0.00,,,0.00,VWS V14.01,2013-04-01 09:39:00,
2013-04-01 05:40:00,43.1,41.8,29.69,West,261,0.0,7.0,95,0.00,,,0.00,VWS V14.01,2013-04-01 09:40:00,
2013-04-01 05:41:00,43.1,41.8,29.69,WSW,257,4.0,4.0,95,0.00,,,0.00,VWS V14.01,2013-04-01 09:41:00,
2013-04-01 05:42:00,43.1,41.8,29.69,West,261,7.0,7.0,95,0.00,,,0.00,VWS V14.01,2013-04-01 09:42:00,
2013-04-01 05:43:00,43.0,41.7,29.69,WSW,248,3.0,7.0,95,0.00,,,0.00,VWS V14.01,2013-04-01 09:43:00,
2013-04-01 05:44:00,43.0,41.7,29.69,WSW,248,2.0,7.0,95,0.00,,,0.00,VWS V14.01,2013-04-01 09:44:00,
2013-04-01 05:45:00,43.0,41.7,29.69,WSW,248,0.0,7.0,95,0.00,,,0.00,VWS V14.01,2013-04-01 09:45:00,
2013-04-01 05:46:00,43.0,41.7,29.69,WSW,248,3.0,7.0,95,0.00,,,0.00,VWS V14.01,2013-04-01 09:46:00,
2013-04-01 05:47:00,43.0,41.7,29.69,WSW,248,3.0,7.0,95,0.00,,,0.00,VWS V14.01,2013-04-01 09:47:00,
2013-04-01 05:48:00,43.0,41.7,29.69,WSW,248,2.0,7.0,95,0.00,,,0.00,VWS V14.01,2013-04-01 09:48:00,
2013-04-01 05:49:00,42.9,41.6,29.69,WSW,248,0.0,7.0,95,0.00,,,0.00,VWS V14.01,2013-04-01 09:49:00,
2013-04-01 05:50:00,42.9,41.6,29.69,WSW,248,2.0,7.0,95,0.00,,,0.00,VWS V14.01,2013-04-01 09:50:00,
2013-04-01 05:51:00,42.9,41.6,29.69,West,259,1.0,3.0,95,0.00,,,0.00,VWS V14.01,2013-04-01 09:51:00,
2013-04-01 05:52:00,42.9,41.6,29.69,West,259,1.0,3.0,95,0.00,,,0.00,VWS V14.01,2013-04-01 09:52:00,
2013-04-01 05:53:00,42.9,41.6,29.69,West,263,1.0,3.0,95,0.00,,,0.00,VWS V14.01,2013-04-01 09:53:00,
2013-04-01 05:54:00,42.8,41.5,29.69,WSW,246,4.0,4.0,95,0.00,,,0.00,VWS V14.01,2013-04-01 09:54:00,
2013-04-01 05:55:00,42.8,41.5,29.69,WSW,246,2.0,4.0,95,0.00,,,0.00,VWS V14.01,2013-04-01 09:55:00,
2013-04-01 05:56:00,42.8,41.5,29.69,West,260,4.0,4.0,95,0.00,,,0.00,VWS V14.01,2013-04-01 09:56:00,
2013-04-01 05:57:00,42.8,41.5,29.69,WSW,244,3.0,4.0,95,0.00,,,0.00,VWS V14.01,2013-04-01 09:57:00,
2013-04-01 05:58:00,42.8,41.5,29.69,West,267,2.0,8.0,95,0.00,,,0.00,VWS V14.01,2013-04-01 09:58:00,
2013-04-01 05:59:00,42.8,41.5,29.69,West,267,0.0,8.0,95,0.00,,,0.00,VWS V14.01,2013-04-01 09:59:00,
2013-04-01 06:00:00,42.7,41.4,29.69,West,269,2.0,8.0,95,0.00,,,0.00,VWS V14.01,2013-04-01 10:00:00,
2013-04-01 06:01:00,42.7,41.4,29.69,West,269,3.0,3.0,95,0.00,,,0.00,VWS V14.01,2013-04-01 10:01:00,
2013-04-01 06:02:00,42.7,41.4,29.69,West,280,3.0,4.0,95,0.00,,,0.00,VWS V14.01,2013-04-01 10:02:00,
2013-04-01 06:03:00,42.7,41.4,29.69,West,280,0.0,4.0,95,0.00,,,0.00,VWS V14.01,2013-04-01 10:03:00,
2013-04-01 06:04:00,42.7,41.4,29.69,West,280,2.0,4.0,95,0.00,,,0.00,VWS V14.01,2013-04-01 10:04:00,
2013-04-01 06:05:00,42.7,41.4,29.69,WNW,302,3.0,4.0,95,0.00,,,0.00,VWS V14.01,2013-04-01 10:05:00,
2013-04-01 06:06:00,42.7,41.4,29.69,WSW,257,4.0,5.0,95,0.00,,,0.00,VWS V14.01,2013-04-01 10:06:00,
2013-04-01 06:07:00,42.7,41.4,29.69,West,261,0.0,5.0,95,0.00,,,0.00,VWS V14.01,2013-04-01 10:07:00,
2013-04-01 06:08:00,42.6,41.3,29.69,West,261,0.0,5.0,95,0.00,,,0.00,VWS V14.01,2013-04-01 10:08:00,
2013-04-01 06:09:00,42.6,41.3,29.69,West,261,0.0,5.0,95,0.00,,,0.00,VWS V14.01,2013-04-01 10:09:00,
2013-04-01 06:10:00,42.6,41.3,29.69,WNW,292,0.0,5.0,95,0.00,,,0.00,VWS V14.01,2013-04-01 10:10:00,
2013-04-01 06:11:00,42.6,41.3,29.69,WNW,292,1.0,2.0,95,0.00,,,0.00,VWS V14.01,2013-04-01 10:11:00,
2013-04-01 06:12:00,42.6,41.3,29.69,WNW,292,0.0,2.0,95,0.00,,,0.00,VWS V14.01,2013-04-01 10:12:00,
2013-04-01 06:13:00,42.6,41.3,29.69,WNW,292,2.0,2.0,95,0.00,,,0.00,VWS V14.01,2013-04-01 10:13:00,
2013-04-01 06:14:00,42.6,41.3,29.69,WNW,292,0.0,2.0,95,0.00,,,0.00,VWS V14.01,2013-04-01 10:14:00,
2013-04-01 06:15:00,42.5,41.2,29.68,WNW,292,0.0,2.0,95,0.00,,,0.00,VWS V14.01,2013-04-01 10:15:00,
2013-04-01 06:16:00,42.5,41.2,29.68,WNW,292,0.0,2.0,95,0.00,,,0.00,VWS V14.01,2013-04-01 10:16:00,
2013-04-01 06:17:00,42.5,41.2,29.68,WNW,292,0.0,2.0,95,0.00,,,0.00,VWS V14.01,2013-04-01 10:17:00,
2013-04-01 06:18:00,42.5,41.2,29.68,WNW,292,0.0,2.0,95,0.00,,,0.00,VWS V14.01,2013-04-01 10:18:00,
2013-04-01 06:19:00,42.5,41.2,29.68,WNW,292,0.0,2.0,95,0.00,,,0.00,VWS V14.01,2013-04-01 10:19:00,
2013-04-01 06:20:00,42.5,41.2,29.68,WNW,292,0.0,2.0,95,0.00,,,0.00,VWS V14.01,2013-04-01 10:20:00,
2013-04-01 06:21:00,42.5,41.2,29.68,WNW,292,0.0,0.0,95,0.00,,,0.00,VWS V14.01,2013-04-01 10:21:00,
2013-04-01 06:22:00,42.4,41.1,29.68,WNW,292,0.0,0.0,95,0.00,,,0.00,VWS V14.01,2013-04-01 10:22:00,
2013-04-01 06:23:00,42.4,41.1,29.68,WNW,292,0.0,0.0,95,0.00,,,0.00,VWS V14.01,2013-04-01 10:23:00,
2013-04-01 06:24:00,42.4,41.1,29.68,WNW,292,0.0,0.0,95,0.00,,,0.00,VWS V14.01,2013-04-01 10:24:00,
2013-04-01 06:25:00,42.4,41.1,29.68,WNW,292,0.0,0.0,95,0.00,,,0.00,VWS V14.01,2013-04-01 10:25:00,
2013-04-01 06:26:00,42.4,41.1,29.68,WNW,292,0.0,0.0,95,0.00,,,0.00,VWS V14.01,2013-04-01 10:26:00,
2013-04-01 06:27:00,42.3,41.0,29.68,WNW,292,2.0,2.0,95,0.00,,,0.00,VWS V14.01,2013-04-01 10:27:00,
2013-04-01 06:28:00,42.3,41.0,29.68,West,265,3.0,5.0,95,0.00,,,0.00,VWS V14.01,2013-04-01 10:28:00,
2013-04-01 06:29:00,42.3,41.0,29.68,West,265,1.0,5.0,95,0.00,,,0.00,VWS V14.01,2013-04-01 10:29:00,
2013-04-01 06:30:00,42.3,41.0,29.68,West,265,1.0,5.0,95,0.00,,,0.00,VWS V14.01,2013-04-01 10:30:00,
2013-04-01 06:31:00,42.3,41.0,29.68,West,265,3.0,3.0,95,0.00,,,0.00,VWS V14.01,2013-04-01 10:31:00,
2013-04-01 06:32:00,42.3,41.0,29.68,West,265,1.0,3.0,95,0.00,,,0.00,VWS V14.01,2013-04-01 10:32:00,
2013-04-01 06:33:00,42.3,41.0,29.68,West,278,2.0,3.0,95,0.00,,,0.00,VWS V14.01,2013-04-01 10:33:00,
2013-04-01 06:34:00,42.3,41.0,29.68,WSW,257,4.0,4.0,95,0.00,,,0.00,VWS V14.01,2013-04-01 10:34:00,
2013-04-01 06:35:00,42.2,40.9,29.68,West,276,0.0,4.0,95,0.00,,,0.00,VWS V14.01,2013-04-01 10:35:00,
2013-04-01 06:36:00,42.3,41.0,29.68,West,263,3.0,4.0,95,0.00,,,0.00,VWS V14.01,2013-04-01 10:36:00,
2013-04-01 06:37:00,42.2,40.9,29.68,WNW,282,3.0,4.0,95,0.00,,,0.00,VWS V14.01,2013-04-01 10:37:00,
2013-04-01 06:38:00,42.3,41.0,29.68,WNW,282,1.0,4.0,95,0.00,,,0.00,VWS V14.01,2013-04-01 10:38:00,
2013-04-01 06:39:00,42.2,40.9,29.68,West,261,1.0,4.0,95,0.00,,,0.00,VWS V14.01,2013-04-01 10:39:00,
2013-04-01 06:40:00,42.3,41.0,29.68,West,261,3.0,4.0,95,0.00,,,0.00,VWS V14.01,2013-04-01 10:40:00,
2013-04-01 06:41:00,42.3,41.0,29.68,West,261,2.0,4.0,95,0.00,,,0.00,VWS V14.01,2013-04-01 10:41:00,
2013-04-01 06:42:00,42.3,41.0,29.68,West,261,2.0,4.0,95,0.00,,,0.00,VWS V14.01,2013-04-01 10:42:00,
2013-04-01 06:43:00,42.3,41.0,29.68,WSW,257,1.0,2.0,95,0.00,,,0.00,VWS V14.01,2013-04-01 10:43:00,
2013-04-01 06:44:00,42.3,41.0,29.68,WSW,257,0.0,2.0,95,0.00,,,0.00,VWS V14.01,2013-04-01 10:44:00,
2013-04-01 06:45:00,42.3,41.0,29.68,WSW,257,2.0,3.0,95,0.00,,,0.00,VWS V14.01,2013-04-01 10:45:00,
2013-04-01 06:46:00,42.3,41.0,29.68,WSW,257,0.0,3.0,95,0.00,,,0.00,VWS V14.01,2013-04-01 10:46:00,
2013-04-01 06:47:00,42.3,41.0,29.68,WSW,257,0.0,3.0,95,0.00,,,0.00,VWS V14.01,2013-04-01 10:47:00,
2013-04-01 06:48:00,42.3,41.0,29.68,WSW,257,0.0,3.0,95,0.00,,,0.00,VWS V14.01,2013-04-01 10:48:00,
2013-04-01 06:49:00,42.3,41.0,29.68,WSW,257,0.0,3.0,95,0.00,,,0.00,VWS V14.01,2013-04-01 10:49:00,
2013-04-01 06:50:00,42.3,41.0,29.68,WSW,257,0.0,3.0,95,0.00,,,0.00,VWS V14.01,2013-04-01 10:50:00,
2013-04-01 06:51:00,42.3,41.0,29.68,WSW,257,0.0,0.0,95,0.00,,,0.00,VWS V14.01,2013-04-01 10:51:00,
2013-04-01 06:52:00,42.3,41.0,29.68,WSW,257,0.0,0.0,95,0.00,,,0.00,VWS V14.01,2013-04-01 10:52:00,
2013-04-01 06:53:00,42.3,41.0,29.68,WSW,257,0.0,0.0,95,0.00,,,0.00,VWS V14.01,2013-04-01 10:53:00,
2013-04-01 06:54:00,42.3,41.0,29.68,WSW,257,0.0,1.0,95,0.00,,,0.00,VWS V14.01,2013-04-01 10:54:00,
2013-04-01 06:55:00,42.3,41.0,29.68,WSW,257,0.0,2.0,95,0.00,,,0.00,VWS V14.01,2013-04-01 10:55:00,
2013-04-01 06:56:00,42.3,41.0,29.68,WSW,257,0.0,2.0,95,0.00,,,0.00,VWS V14.01,2013-04-01 10:56:00,
2013-04-01 06:57:00,42.3,41.0,29.68,WSW,257,2.0,3.0,95,0.00,,,0.00,VWS V14.01,2013-04-01 10:57:00,
2013-04-01 06:58:00,42.3,41.0,29.68,West,265,5.0,5.0,95,0.00,,,0.00,VWS V14.01,2013-04-01 10:58:00,
2013-04-01 06:59:00,42.3,41.0,29.69,West,265,2.0,5.0,95,0.00,,,0.00,VWS V14.01,2013-04-01 10:59:00,
2013-04-01 07:00:00,42.3,41.0,29.69,SSW,197,2.0,5.0,95,0.00,,,0.00,VWS V14.01,2013-04-01 11:00:00,
2013-04-01 07:01:00,42.4,41.1,29.69,SSW,212,3.0,4.0,95,0.00,,,0.00,VWS V14.01,2013-04-01 11:01:00,
2013-04-01 07:02:00,42.3,41.0,29.69,SW,215,0.0,4.0,95,0.00,,,0.00,VWS V14.01,2013-04-01 11:02:00,
2013-04-01 07:03:00,42.3,41.0,29.69,SW,215,4.0,4.0,95,0.00,,,0.00,VWS V14.01,2013-04-01 11:03:00,
2013-04-01 07:04:00,42.4,41.1,29.69,SW,215,2.0,4.0,95,0.00,,,0.00,VWS V14.01,2013-04-01 11:04:00,
2013-04-01 07:05:00,42.4,41.1,29.69,SW,214,0.0,4.0,95,0.00,,,0.00,VWS V14.01,2013-04-01 11:05:00,
2013-04-01 07:06:00,42.4,41.1,29.69,SW,215,1.0,4.0,95,0.00,,,0.00,VWS V14.01,2013-04-01 11:06:00,
2013-04-01 07:07:00,42.4,41.1,29.69,SW,215,0.0,4.0,95,0.00,,,0.00,VWS V14.01,2013-04-01 11:07:00,
2013-04-01 07:08:00,42.4,41.1,29.69,SW,214,3.0,4.0,95,0.00,,,0.00,VWS V14.01,2013-04-01 11:08:00,
2013-04-01 07:09:00,42.4,41.1,29.69,SW,215,0.0,4.0,95,0.00,,,0.00,VWS V14.01,2013-04-01 11:09:00,
2013-04-01 07:10:00,42.4,41.1,29.69,SW,215,3.0,4.0,95,0.00,,,0.00,VWS V14.01,2013-04-01 11:10:00,
2013-04-01 07:11:00,42.4,41.1,29.69,SW,215,3.0,4.0,95,0.00,,,0.00,VWS V14.01,2013-04-01 11:11:00,
2013-04-01 07:12:00,42.4,41.1,29.69,SW,215,3.0,4.0,95,0.00,,,0.00,VWS V14.01,2013-04-01 11:12:00,
2013-04-01 07:13:00,42.4,41.1,29.69,West,278,2.0,6.0,95,0.00,,,0.00,VWS V14.01,2013-04-01 11:13:00,
2013-04-01 07:14:00,42.4,41.1,29.69,West,275,0.0,6.0,95,0.00,,,0.00,VWS V14.01,2013-04-01 11:14:00,
2013-04-01 07:15:00,42.5,41.2,29.69,West,275,1.0,6.0,95,0.00,,,0.00,VWS V14.01,2013-04-01 11:15:00,
2013-04-01 07:16:00,42.5,41.2,29.69,West,275,1.0,6.0,95,0.00,,,0.00,VWS V14.01,2013-04-01 11:16:00,
2013-04-01 07:17:00,42.5,41.2,29.69,West,275,1.0,6.0,95,0.00,,,0.00,VWS V14.01,2013-04-01 11:17:00,
2013-04-01 07:18:00,42.5,41.2,29.69,West,275,3.0,6.0,95,0.00,,,0.00,VWS V14.01,2013-04-01 11:18:00,
2013-04-01 07:19:00,42.5,41.2,29.69,West,275,3.0,6.0,95,0.00,,,0.00,VWS V14.01,2013-04-01 11:19:00,
2013-04-01 07:20:00,42.5,41.2,29.69,West,263,3.0,6.0,95,0.00,,,0.00,VWS V14.01,2013-04-01 11:20:00,
2013-04-01 07:21:00,42.5,41.2,29.69,West,263,2.0,3.0,95,0.00,,,0.00,VWS V14.01,2013-04-01 11:21:00,
2013-04-01 07:22:00,42.5,41.2,29.69,West,263,0.0,3.0,95,0.00,,,0.00,VWS V14.01,2013-04-01 11:22:00,
2013-04-01 07:23:00,42.5,41.2,29.69,West,263,0.0,3.0,95,0.00,,,0.00,VWS V14.01,2013-04-01 11:23:00,
2013-04-01 07:24:00,42.6,41.3,29.69,West,263,0.0,3.0,95,0.00,,,0.00,VWS V14.01,2013-04-01 11:24:00,
2013-04-01 07:25:00,42.6,41.3,29.69,West,263,3.0,3.0,95,0.00,,,0.00,VWS V14.01,2013-04-01 11:25:00,
2013-04-01 07:26:00,42.6,41.3,29.69,West,263,2.0,3.0,95,0.00,,,0.00,VWS V14.01,2013-04-01 11:26:00,
2013-04-01 07:27:00,42.6,41.3,29.69,WSW,253,3.0,3.0,95,0.00,,,0.00,VWS V14.01,2013-04-01 11:27:00,
2013-04-01 07:28:00,42.6,41.3,29.69,West,263,1.0,4.0,95,0.00,,,0.00,VWS V14.01,2013-04-01 11:28:00,
2013-04-01 07:29:00,42.6,41.3,29.69,West,263,0.0,4.0,95,0.00,,,0.00,VWS V14.01,2013-04-01 11:29:00,
2013-04-01 07:30:00,42.6,41.3,29.69,West,263,0.0,4.0,95,0.00,,,0.00,VWS V14.01,2013-04-01 11:30:00,
2013-04-01 07:31:00,42.7,41.4,29.69,WSW,257,4.0,4.0,95,0.00,,,0.00,VWS V14.01,2013-04-01 11:31:00,
2013-04-01 07:32:00,42.7,41.4,29.69,West,264,4.0,7.0,95,0.00,,,0.00,VWS V14.01,2013-04-01 11:32:00,
2013-04-01 07:33:00,42.7,41.4,29.69,West,275,0.0,7.0,95,0.00,,,0.00,VWS V14.01,2013-04-01 11:33:00,
2013-04-01 07:34:00,42.7,41.4,29.69,West,275,2.0,7.0,95,0.00,,,0.00,VWS V14.01,2013-04-01 11:34:00,
2013-04-01 07:35:00,42.7,41.4,29.69,West,275,0.0,7.0,95,0.00,,,0.00,VWS V14.01,2013-04-01 11:35:00,
2013-04-01 07:36:00,42.7,41.4,29.69,West,275,0.0,7.0,95,0.00,,,0.00,VWS V14.01,2013-04-01 11:36:00,
2013-04-01 07:37:00,42.8,41.5,29.69,West,279,2.0,7.0,95,0.00,,,0.00,VWS V14.01,2013-04-01 11:37:00,
2013-04-01 07:38:00,42.8,41.5,29.69,West,279,2.0,7.0,95,0.00,,,0.00,VWS V14.01,2013-04-01 11:38:00,
2013-04-01 07:39:00,42.8,41.5,29.69,West,279,2.0,7.0,95,0.00,,,0.00,VWS V14.01,2013-04-01 11:39:00,
2013-04-01 07:40:00,42.8,41.5,29.69,West,269,0.0,7.0,95,0.00,,,0.00,VWS V14.01,2013-04-01 11:40:00,
2013-04-01 07:41:00,42.8,41.5,29.69,West,269,0.0,7.0,95,0.00,,,0.00,VWS V14.01,2013-04-01 11:41:00,
2013-04-01 07:42:00,42.8,41.5,29.69,West,269,0.0,7.0,95,0.00,,,0.00,VWS V14.01,2013-04-01 11:42:00,
2013-04-01 07:43:00,42.9,41.6,29.69,West,269,1.0,1.0,95,0.00,,,0.00,VWS V14.01,2013-04-01 11:43:00,
2013-04-01 07:44:00,42.9,41.6,29.69,West,281,2.0,2.0,95,0.00,,,0.00,VWS V14.01,2013-04-01 11:44:00,
2013-04-01 07:45:00,42.9,41.6,29.69,West,281,0.0,2.0,95,0.00,,,0.00,VWS V14.01,2013-04-01 11:45:00,
2013-04-01 07:46:00,42.9,41.6,29.69,West,281,0.0,2.0,95,0.00,,,0.00,VWS V14.01,2013-04-01 11:46:00,
2013-04-01 07:47:00,42.9,41.6,29.69,West,281,0.0,2.0,95,0.00,,,0.00,VWS V14.01,2013-04-01 11:47:00,
2013-04-01 07:48:00,42.9,41.6,29.69,West,281,0.0,2.0,95,0.00,,,0.00,VWS V14.01,2013-04-01 11:48:00,
2013-04-01 07:49:00,42.9,41.6,29.69,West,281,0.0,2.0,95,0.00,,,0.00,VWS V14.01,2013-04-01 11:49:00,
2013-04-01 07:50:00,42.9,41.6,29.69,West,281,0.0,2.0,95,0.00,,,0.00,VWS V14.01,2013-04-01 11:50:00,
2013-04-01 07:51:00,43.0,41.7,29.69,West,281,0.0,0.0,95,0.00,,,0.00,VWS V14.01,2013-04-01 11:51:00,
2013-04-01 07:52:00,43.0,41.7,29.69,West,281,0.0,0.0,95,0.00,,,0.00,VWS V14.01,2013-04-01 11:52:00,
2013-04-01 07:53:00,43.0,41.7,29.69,WNW,282,3.0,4.0,95,0.00,,,0.00,VWS V14.01,2013-04-01 11:53:00,
2013-04-01 07:54:00,43.1,41.8,29.69,WNW,282,3.0,4.0,95,0.00,,,0.00,VWS V14.01,2013-04-01 11:54:00,
2013-04-01 07:55:00,43.1,41.8,29.69,WNW,282,0.0,4.0,95,0.00,,,0.00,VWS V14.01,2013-04-01 11:55:00,
2013-04-01 07:56:00,43.1,41.8,29.69,WNW,282,1.0,4.0,95,0.00,,,0.00,VWS V14.01,2013-04-01 11:56:00,
2013-04-01 07:57:00,43.1,41.8,29.69,WNW,282,4.0,4.0,95,0.00,,,0.00,VWS V14.01,2013-04-01 11:57:00,
2013-04-01 07:58:00,43.1,41.8,29.69,WSW,256,5.0,5.0,95,0.00,,,0.00,VWS V14.01,2013-04-01 11:58:00,
2013-04-01 07:59:00,43.2,41.9,29.69,WSW,256,1.0,5.0,95,0.00,,,0.00,VWS V14.01,2013-04-01 11:59:00,
2013-04-01 08:00:00,43.2,41.9,29.68,WSW,257,2.0,5.0,95,0.00,,,0.00,VWS V14.01,2013-04-01 12:00:00,
2013-04-01 08:01:00,43.2,41.9,29.68,WSW,256,2.0,2.0,95,0.00,,,0.00,VWS V14.01,2013-04-01 12:01:00,
2013-04-01 08:02:00,43.2,41.9,29.68,WSW,256,1.0,2.0,95,0.00,,,0.00,VWS V14.01,2013-04-01 12:02:00,
2013-04-01 08:03:00,43.2,41.9,29.68,WSW,257,0.0,2.0,95,0.00,,,0.00,VWS V14.01,2013-04-01 12:03:00,
2013-04-01 08:04:00,43.3,42.0,29.68,WSW,257,3.0,3.0,95,0.00,,,0.00,VWS V14.01,2013-04-01 12:04:00,
2013-04-01 08:05:00,43.3,42.0,29.68,WSW,257,0.0,4.0,95,0.00,,,0.00,VWS V14.01,2013-04-01 12:05:00,
2013-04-01 08:06:00,43.3,42.0,29.68,WSW,257,0.0,4.0,95,0.00,,,0.00,VWS V14.01,2013-04-01 12:06:00,
2013-04-01 08:07:00,43.4,42.1,29.68,West,262,3.0,4.0,95,0.00,,,0.00,VWS V14.01,2013-04-01 12:07:00,
2013-04-01 08:08:00,43.4,42.1,29.68,West,262,2.0,4.0,95,0.00,,,0.00,VWS V14.01,2013-04-01 12:08:00,
2013-04-01 08:09:00,43.4,42.3,29.68,West,262,0.0,4.0,96,0.00,,,0.00,VWS V14.01,2013-04-01 12:09:00,
2013-04-01 08:10:00,43.5,42.4,29.68,West,262,0.0,4.0,96,0.00,,,0.00,VWS V14.01,2013-04-01 12:10:00,
2013-04-01 08:11:00,43.5,42.4,29.68,West,262,0.0,0.0,96,0.00,,,0.00,VWS V14.01,2013-04-01 12:11:00,
2013-04-01 08:12:00,43.6,42.5,29.68,West,262,0.0,0.0,96,0.00,,,0.00,VWS V14.01,2013-04-01 12:12:00,
2013-04-01 08:13:00,43.6,42.5,29.68,West,262,0.0,1.0,96,0.00,,,0.00,VWS V14.01,2013-04-01 12:13:00,
2013-04-01 08:14:00,43.7,42.6,29.68,West,262,0.0,1.0,96,0.00,,,0.00,VWS V14.01,2013-04-01 12:14:00,
2013-04-01 08:15:00,43.7,42.6,29.68,West,262,0.0,1.0,96,0.00,,,0.00,VWS V14.01,2013-04-01 12:15:00,
2013-04-01 08:16:00,43.7,42.6,29.68,West,262,0.0,1.0,96,0.00,,,0.00,VWS V14.01,2013-04-01 12:16:00,
2013-04-01 08:17:00,43.9,42.6,29.68,West,262,0.0,1.0,95,0.00,,,0.00,VWS V14.01,2013-04-01 12:17:00,
2013-04-01 08:18:00,43.9,42.8,29.68,West,259,3.0,3.0,96,0.00,,,0.00,VWS V14.01,2013-04-01 12:18:00,
2013-04-01 08:19:00,43.9,42.6,29.68,West,269,3.0,4.0,95,0.00,,,0.00,VWS V14.01,2013-04-01 12:19:00,
2013-04-01 08:20:00,44.0,42.7,29.68,West,269,0.0,4.0,95,0.00,,,0.00,VWS V14.01,2013-04-01 12:20:00,
2013-04-01 08:21:00,44.0,42.7,29.68,West,269,0.0,0.0,95,0.00,,,0.00,VWS V14.01,2013-04-01 12:21:00,
2013-04-01 08:22:00,44.1,42.8,29.68,West,269,2.0,2.0,95,0.00,,,0.00,VWS V14.01,2013-04-01 12:22:00,
2013-04-01 08:23:00,44.1,42.8,29.68,West,269,3.0,4.0,95,0.00,,,0.00,VWS V14.01,2013-04-01 12:23:00,
2013-04-01 08:24:00,44.1,43.0,29.68,West,269,0.0,4.0,96,0.00,,,0.00,VWS V14.01,2013-04-01 12:24:00,
2013-04-01 08:25:00,44.2,43.1,29.68,West,269,1.0,4.0,96,0.00,,,0.00,VWS V14.01,2013-04-01 12:25:00,
2013-04-01 08:26:00,44.2,43.1,29.68,West,269,1.0,4.0,96,0.00,,,0.00,VWS V14.01,2013-04-01 12:26:00,
2013-04-01 08:27:00,44.2,43.1,29.68,West,269,1.0,4.0,96,0.00,,,0.00,VWS V14.01,2013-04-01 12:27:00,
2013-04-01 08:28:00,44.5,43.4,29.68,WSW,253,1.0,4.0,96,0.00,,,0.00,VWS V14.01,2013-04-01 12:28:00,
2013-04-01 08:29:00,44.6,43.5,29.68,SW,234,4.0,4.0,96,0.00,,,0.00,VWS V14.01,2013-04-01 12:29:00,
2013-04-01 08:30:00,44.7,43.6,29.68,SW,234,2.0,4.0,96,0.00,,,0.00,VWS V14.01,2013-04-01 12:30:00,
2013-04-01 08:31:00,44.7,43.6,29.68,SW,234,2.0,4.0,96,0.00,,,0.00,VWS V14.01,2013-04-01 12:31:00,
2013-04-01 08:32:00,44.8,43.7,29.68,SW,231,0.0,1.0,96,0.00,,,0.00,VWS V14.01,2013-04-01 12:32:00,
2013-04-01 08:33:00,44.8,43.7,29.68,WSW,251,4.0,4.0,96,0.00,,,0.00,VWS V14.01,2013-04-01 12:33:00,
2013-04-01 08:34:00,44.8,43.7,29.68,West,264,2.0,5.0,96,0.00,,,0.00,VWS V14.01,2013-04-01 12:34:00,
2013-04-01 08:35:00,44.9,43.8,29.68,SW,233,2.0,6.0,96,0.00,,,0.00,VWS V14.01,2013-04-01 12:35:00,
2013-04-01 08:36:00,44.9,43.8,29.68,West,274,4.0,6.0,96,0.00,,,0.00,VWS V14.01,2013-04-01 12:36:00,
2013-04-01 08:37:00,44.9,43.6,29.68,West,273,0.0,6.0,95,0.00,,,0.00,VWS V14.01,2013-04-01 12:37:00,
2013-04-01 08:38:00,44.9,43.6,29.68,West,273,0.0,6.0,95,0.00,,,0.00,VWS V14.01,2013-04-01 12:38:00,
2013-04-01 08:39:00,45.0,43.7,29.68,West,273,3.0,6.0,95,0.00,,,0.00,VWS V14.01,2013-04-01 12:39:00,
2013-04-01 08:40:00,45.1,43.8,29.68,West,273,3.0,6.0,95,0.00,,,0.00,VWS V14.01,2013-04-01 12:40:00,
2013-04-01 08:41:00,45.1,43.8,29.68,West,263,2.0,3.0,95,0.00,,,0.00,VWS V14.01,2013-04-01 12:41:00,
2013-04-01 08:42:00,45.2,43.9,29.68,SW,226,0.0,3.0,95,0.00,,,0.00,VWS V14.01,2013-04-01 12:42:00,
2013-04-01 08:43:00,45.2,43.9,29.68,SW,226,0.0,3.0,95,0.00,,,0.00,VWS V14.01,2013-04-01 12:43:00,
2013-04-01 08:44:00,45.2,43.9,29.68,WSW,246,3.0,3.0,95,0.00,,,0.00,VWS V14.01,2013-04-01 12:44:00,
2013-04-01 08:45:00,45.3,44.2,29.67,West,274,0.0,4.0,96,0.00,,,0.00,VWS V14.01,2013-04-01 12:45:00,
2013-04-01 08:46:00,45.4,44.3,29.67,West,274,0.0,4.0,96,0.00,,,0.00,VWS V14.01,2013-04-01 12:46:00,
2013-04-01 08:47:00,45.4,44.0,29.67,SW,215,3.0,4.0,95,0.00,,,0.00,VWS V14.01,2013-04-01 12:47:00,
2013-04-01 08:48:00,45.4,44.0,29.67,SW,215,1.0,4.0,95,0.00,,,0.00,VWS V14.01,2013-04-01 12:48:00,
2013-04-01 08:49:00,45.5,44.2,29.67,SW,215,3.0,4.0,95,0.00,,,0.00,VWS V14.01,2013-04-01 12:49:00,
2013-04-01 08:50:00,45.5,44.2,29.67,WSW,258,3.0,5.0,95,0.00,,,0.00,VWS V14.01,2013-04-01 12:50:00,
2013-04-01 08:51:00,45.4,44.0,29.67,West,263,3.0,3.0,95,0.00,,,0.00,VWS V14.01,2013-04-01 12:51:00,
2013-04-01 08:52:00,45.4,44.0,29.67,West,263,3.0,3.0,95,0.00,,,0.00,VWS V14.01,2013-04-01 12:52:00,
2013-04-01 08:53:00,45.4,44.0,29.67,SW,217,0.0,3.0,95,0.00,,,0.00,VWS V14.01,2013-04-01 12:53:00,
2013-04-01 08:54:00,45.5,44.2,29.67,WNW,290,0.0,3.0,95,0.00,,,0.00,VWS V14.01,2013-04-01 12:54:00,
2013-04-01 08:55:00,45.5,44.2,29.67,WNW,290,0.0,3.0,95,0.00,,,0.00,VWS V14.01,2013-04-01 12:55:00,
2013-04-01 08:56:00,45.5,44.2,29.67,WNW,290,0.0,3.0,95,0.00,,,0.00,VWS V14.01,2013-04-01 12:56:00,
2013-04-01 08:57:00,45.6,44.2,29.67,WNW,290,0.0,3.0,95,0.00,,,0.00,VWS V14.01,2013-04-01 12:57:00,
2013-04-01 08:58:00,45.6,44.2,29.67,WNW,290,0.0,3.0,95,0.00,,,0.00,VWS V14.01,2013-04-01 12:58:00,
2013-04-01 08:59:00,45.7,44.3,29.67,West,268,2.0,5.0,95,0.00,,,0.00,VWS V14.01,2013-04-01 12:59:00,
2013-04-01 09:00:00,45.8,44.5,29.68,West,268,1.0,5.0,95,0.00,,,0.00,VWS V14.01,2013-04-01 13:00:00,
2013-04-01 09:01:00,45.8,44.5,29.68,West,268,0.0,0.0,95,0.00,,,0.00,VWS V14.01,2013-04-01 13:01:00,
2013-04-01 09:02:00,45.8,44.5,29.68,West,267,2.0,2.0,95,0.00,,,0.00,VWS V14.01,2013-04-01 13:02:00,
2013-04-01 09:03:00,45.9,44.5,29.68,SSW,211,4.0,4.0,95,0.00,,,0.00,VWS V14.01,2013-04-01 13:03:00,
2013-04-01 09:04:00,45.9,44.5,29.68,WNW,290,4.0,5.0,95,0.00,,,0.00,VWS V14.01,2013-04-01 13:04:00,
2013-04-01 09:05:00,45.9,44.5,29.68,WSW,244,4.0,7.0,95,0.00,,,0.00,VWS V14.01,2013-04-01 13:05:00,
2013-04-01 09:06:00,45.9,44.5,29.68,West,261,4.0,7.0,95,0.00,,,0.00,VWS V14.01,2013-04-01 13:06:00,
2013-04-01 09:07:00,45.9,44.5,29.68,SW,221,2.0,7.0,95,0.00,,,0.00,VWS V14.01,2013-04-01 13:07:00,
2013-04-01 09:08:00,45.9,44.3,29.68,SSW,213,2.0,7.0,94,0.00,,,0.00,VWS V14.01,2013-04-01 13:08:00,
2013-04-01 09:09:00,45.9,44.3,29.68,SSW,213,0.0,7.0,94,0.00,,,0.00,VWS V14.01,2013-04-01 13:09:00,
2013-04-01 09:10:00,46.0,44.4,29.68,SSW,210,2.0,7.0,94,0.00,,,0.00,VWS V14.01,2013-04-01 13:10:00,
2013-04-01 09:11:00,46.0,44.4,29.68,SSW,210,2.0,7.0,94,0.00,,,0.00,VWS V14.01,2013-04-01 13:11:00,
2013-04-01 09:12:00,46.0,44.4,29.68,SSW,210,2.0,7.0,94,0.00,,,0.00,VWS V14.01,2013-04-01 13:12:00,
2013-04-01 09:13:00,46.1,44.5,29.68,SW,227,1.0,3.0,94,0.00,,,0.00,VWS V14.01,2013-04-01 13:13:00,
2013-04-01 09:14:00,46.1,44.5,29.68,SW,227,1.0,3.0,94,0.00,,,0.00,VWS V14.01,2013-04-01 13:14:00,
2013-04-01 09:15:00,46.2,44.6,29.67,SW,227,0.0,3.0,94,0.00,,,0.00,VWS V14.01,2013-04-01 13:15:00,
2013-04-01 09:16:00,46.2,44.6,29.67,SW,227,0.0,3.0,94,0.00,,,0.00,VWS V14.01,2013-04-01 13:16:00,
2013-04-01 09:17:00,46.2,44.6,29.67,SW,227,0.0,3.0,94,0.00,,,0.00,VWS V14.01,2013-04-01 13:17:00,
2013-04-01 09:18:00,46.3,44.7,29.67,WSW,237,2.0,3.0,94,0.00,,,0.00,VWS V14.01,2013-04-01 13:18:00,
2013-04-01 09:19:00,46.3,44.7,29.67,West,279,0.0,3.0,94,0.00,,,0.00,VWS V14.01,2013-04-01 13:19:00,
2013-04-01 09:20:00,46.4,44.8,29.67,West,279,0.0,3.0,94,0.00,,,0.00,VWS V14.01,2013-04-01 13:20:00,
2013-04-01 09:21:00,46.4,44.8,29.67,West,279,0.0,0.0,94,0.00,,,0.00,VWS V14.01,2013-04-01 13:21:00,
2013-04-01 09:22:00,46.5,44.9,29.67,West,269,0.0,0.0,94,0.00,,,0.00,VWS V14.01,2013-04-01 13:22:00,
2013-04-01 09:23:00,46.6,45.0,29.67,NW,309,4.0,4.0,94,0.00,,,0.00,VWS V14.01,2013-04-01 13:23:00,
2013-04-01 09:24:00,46.6,45.0,29.67,WSW,256,5.0,5.0,94,0.00,,,0.00,VWS V14.01,2013-04-01 13:24:00,
2013-04-01 09:25:00,46.6,45.0,29.67,West,263,2.0,5.0,94,0.00,,,0.00,VWS V14.01,2013-04-01 13:25:00,
2013-04-01 09:26:00,46.7,45.1,29.67,West,262,2.0,5.0,94,0.00,,,0.00,VWS V14.01,2013-04-01 13:26:00,
2013-04-01 09:27:00,46.7,45.1,29.67,SSW,209,3.0,5.0,94,0.00,,,0.00,VWS V14.01,2013-04-01 13:27:00,
2013-04-01 09:28:00,46.8,44.9,29.67,West,263,2.0,5.0,93,0.00,,,0.00,VWS V14.01,2013-04-01 13:28:00,
2013-04-01 09:29:00,46.8,44.9,29.67,West,262,0.0,5.0,93,0.00,,,0.00,VWS V14.01,2013-04-01 13:29:00,
2013-04-01 09:30:00,46.8,44.9,29.66,WSW,255,3.0,5.0,93,0.00,,,0.00,VWS V14.01,2013-04-01 13:30:00,
2013-04-01 09:31:00,46.8,44.9,29.66,WSW,246,3.0,3.0,93,0.00,,,0.00,VWS V14.01,2013-04-01 13:31:00,
2013-04-01 09:32:00,46.8,44.9,29.66,West,268,3.0,5.0,93,0.00,,,0.00,VWS V14.01,2013-04-01 13:32:00,
2013-04-01 09:33:00,46.9,45.0,29.66,West,269,0.0,5.0,93,0.00,,,0.00,VWS V14.01,2013-04-01 13:33:00,
2013-04-01 09:34:00,47.0,45.1,29.66,West,269,1.0,5.0,93,0.00,,,0.00,VWS V14.01,2013-04-01 13:34:00,
2013-04-01 09:35:00,47.0,45.1,29.66,West,269,1.0,5.0,93,0.00,,,0.00,VWS V14.01,2013-04-01 13:35:00,
2013-04-01 09:36:00,47.0,45.1,29.66,West,269,0.0,5.0,93,0.00,,,0.00,VWS V14.01,2013-04-01 13:36:00,
2013-04-01 09:37:00,47.1,45.2,29.66,West,269,0.0,5.0,93,0.00,,,0.00,VWS V14.01,2013-04-01 13:37:00,
2013-04-01 09:38:00,47.2,45.3,29.66,West,269,1.0,5.0,93,0.00,,,0.00,VWS V14.01,2013-04-01 13:38:00,
2013-04-01 09:45:00,47.6,45.4,29.66,West,280,1.0,1.0,92,0.00,,,0.00,VWS V14.01,2013-04-01 13:45:00,
2013-04-01 09:46:00,47.7,45.5,29.66,West,281,3.0,4.0,92,0.00,,,0.00,VWS V14.01,2013-04-01 13:46:00,
2013-04-01 09:47:00,47.8,45.6,29.66,West,279,0.0,4.0,92,0.00,,,0.00,VWS V14.01,2013-04-01 13:47:00,
2013-04-01 09:48:00,47.8,45.6,29.66,SW,236,0.0,4.0,92,0.00,,,0.00,VWS V14.01,2013-04-01 13:48:00,
2013-04-01 09:49:00,47.9,45.7,29.66,WSW,238,2.0,6.0,92,0.00,,,0.00,VWS V14.01,2013-04-01 13:49:00,
2013-04-01 09:50:00,47.9,45.7,29.66,SW,228,3.0,6.0,92,0.00,,,0.00,VWS V14.01,2013-04-01 13:50:00,
2013-04-01 09:51:00,47.9,45.4,29.66,SW,228,2.0,3.0,91,0.00,,,0.00,VWS V14.01,2013-04-01 13:51:00,
2013-04-01 09:52:00,48.0,45.5,29.66,SW,228,0.0,3.0,91,0.00,,,0.00,VWS V14.01,2013-04-01 13:52:00,
2013-04-01 09:53:00,48.0,45.5,29.66,SW,228,0.0,3.0,91,0.00,,,0.00,VWS V14.01,2013-04-01 13:53:00,
2013-04-01 09:54:00,48.1,45.6,29.66,WSW,249,5.0,6.0,91,0.00,,,0.00,VWS V14.01,2013-04-01 13:54:00,
2013-04-01 09:55:00,48.1,45.6,29.66,WSW,254,1.0,6.0,91,0.00,,,0.00,VWS V14.01,2013-04-01 13:55:00,
2013-04-01 09:56:00,48.1,45.6,29.66,SW,236,2.0,6.0,91,0.00,,,0.00,VWS V14.01,2013-04-01 13:56:00,
2013-04-01 09:57:00,48.2,45.4,29.66,SW,236,1.0,6.0,90,0.00,,,0.00,VWS V14.01,2013-04-01 13:57:00,
2013-04-01 09:58:00,48.2,45.4,29.66,WSW,258,9.0,9.0,90,0.00,,,0.00,VWS V14.01,2013-04-01 13:58:00,
2013-04-01 09:59:00,48.2,45.4,29.66,WNW,294,4.0,9.0,90,0.00,,,0.00,VWS V14.01,2013-04-01 13:59:00,
2013-04-01 10:00:00,48.3,45.5,29.66,WNW,292,0.0,9.0,90,0.00,,,0.00,VWS V14.01,2013-04-01 14:00:00,
2013-04-01 10:01:00,48.3,45.5,29.66,WNW,292,0.0,3.0,90,0.00,,,0.00,VWS V14.01,2013-04-01 14:01:00,
2013-04-01 10:02:00,48.4,45.6,29.66,SW,235,2.0,4.0,90,0.00,,,0.00,VWS V14.01,2013-04-01 14:02:00,
2013-04-01 10:03:00,48.5,45.7,29.66,NW,317,5.0,8.0,90,0.00,,,0.00,VWS V14.01,2013-04-01 14:03:00,
2013-04-01 10:04:00,48.6,45.8,29.66,SW,216,4.0,8.0,90,0.00,,,0.00,VWS V14.01,2013-04-01 14:04:00,
2013-04-01 10:05:00,48.6,45.8,29.66,SW,230,4.0,8.0,90,0.00,,,0.00,VWS V14.01,2013-04-01 14:05:00,
2013-04-01 10:06:00,48.7,45.9,29.66,SW,230,1.0,8.0,90,0.00,,,0.00,VWS V14.01,2013-04-01 14:06:00,
2013-04-01 10:07:00,48.9,46.1,29.66,SSW,205,4.0,8.0,90,0.00,,,0.00,VWS V14.01,2013-04-01 14:07:00,
2013-04-01 10:08:00,49.1,46.3,29.66,SSW,198,1.0,8.0,90,0.00,,,0.00,VWS V14.01,2013-04-01 14:08:00,
2013-04-01 10:09:00,49.2,46.4,29.66,West,271,5.0,8.0,90,0.00,,,0.00,VWS V14.01,2013-04-01 14:09:00,
2013-04-01 10:10:00,49.5,46.4,29.66,WSW,245,7.0,8.0,89,0.00,,,0.00,VWS V14.01,2013-04-01 14:10:00,
2013-04-01 10:11:00,49.6,46.5,29.66,SW,229,5.0,10.0,89,0.00,,,0.00,VWS V14.01,2013-04-01 14:11:00,
2013-04-01 10:12:00,49.7,46.3,29.66,SW,216,5.0,10.0,88,0.00,,,0.00,VWS V14.01,2013-04-01 14:12:00,
2013-04-01 10:13:00,49.9,46.5,29.66,WNW,292,4.0,10.0,88,0.00,,,0.00,VWS V14.01,2013-04-01 14:13:00,
2013-04-01 10:14:00,50.0,46.6,29.66,SW,214,2.0,10.0,88,0.00,,,0.00,VWS V14.01,2013-04-01 14:14:00,
2013-04-01 10:15:00,50.1,46.4,29.66,SSW,209,3.0,10.0,87,0.00,,,0.00,VWS V14.01,2013-04-01 14:15:00,
2013-04-01 10:16:00,50.2,46.5,29.66,SW,223,6.0,10.0,87,0.00,,,0.00,VWS V14.01,2013-04-01 14:16:00,
2013-04-01 10:17:00,50.3,46.6,29.66,SW,235,6.0,10.0,87,0.00,,,0.00,VWS V14.01,2013-04-01 14:17:00,
2013-04-01 10:18:00,50.4,46.7,29.66,WSW,238,3.0,10.0,87,0.00,,,0.00,VWS V14.01,2013-04-01 14:18:00,
2013-04-01 10:19:00,50.5,46.5,29.66,West,266,8.0,10.0,86,0.00,,,0.00,VWS V14.01,2013-04-01 14:19:00,
2013-04-01 10:20:00,50.6,46.6,29.66,SSW,208,1.0,10.0,86,0.00,,,0.00,VWS V14.01,2013-04-01 14:20:00,
2013-04-01 10:21:00,50.7,46.7,29.66,SW,227,1.0,2.0,86,0.00,,,0.00,VWS V14.01,2013-04-01 14:21:00,
2013-04-01 10:22:00,50.8,46.8,29.66,West,271,4.0,6.0,86,0.00,,,0.00,VWS V14.01,2013-04-01 14:22:00,
2013-04-01 10:23:00,50.9,46.6,29.66,WSW,256,2.0,6.0,85,0.00,,,0.00,VWS V14.01,2013-04-01 14:23:00,
2013-04-01 10:24:00,51.1,46.8,29.66,West,279,5.0,6.0,85,0.00,,,0.00,VWS V14.01,2013-04-01 14:24:00,
2013-04-01 10:25:00,51.2,46.8,29.66,SW,233,6.0,10.0,85,0.00,,,0.00,VWS V14.01,2013-04-01 14:25:00,
2013-04-01 10:26:00,51.3,46.6,29.66,WSW,244,3.0,10.0,84,0.00,,,0.00,VWS V14.01,2013-04-01 14:26:00,
2013-04-01 10:27:00,51.4,46.7,29.66,WNW,299,0.0,10.0,84,0.00,,,0.00,VWS V14.01,2013-04-01 14:27:00,
2013-04-01 10:28:00,51.4,46.7,29.66,West,263,5.0,10.0,84,0.00,,,0.00,VWS V14.01,2013-04-01 14:28:00,
2013-04-01 10:29:00,51.5,46.8,29.66,WSW,252,3.0,10.0,84,0.00,,,0.00,VWS V14.01,2013-04-01 14:29:00,
2013-04-01 10:30:00,51.6,46.6,29.66,SW,225,3.0,10.0,83,0.00,,,0.00,VWS V14.01,2013-04-01 14:30:00,
2013-04-01 10:31:00,51.7,46.7,29.66,WSW,249,3.0,8.0,83,0.00,,,0.00,VWS V14.01,2013-04-01 14:31:00,
2013-04-01 10:32:00,51.9,46.9,29.66,WSW,238,5.0,8.0,83,0.00,,,0.00,VWS V14.01,2013-04-01 14:32:00,
2013-04-01 10:33:00,52.1,47.1,29.66,West,274,11.0,11.0,83,0.00,,,0.00,VWS V14.01,2013-04-01 14:33:00,
2013-04-01 10:34:00,52.1,46.8,29.66,WSW,251,4.0,11.0,82,0.00,,,0.00,VWS V14.01,2013-04-01 14:34:00,
2013-04-01 10:35:00,52.2,46.5,29.66,NNW,331,0.0,11.0,81,0.00,,,0.00,VWS V14.01,2013-04-01 14:35:00,
2013-04-01 10:36:00,52.4,46.8,29.66,West,260,8.0,11.0,81,0.00,,,0.00,VWS V14.01,2013-04-01 14:36:00,
2013-04-01 10:37:00,52.4,46.4,29.66,West,274,6.0,11.0,80,0.00,,,0.00,VWS V14.01,2013-04-01 14:37:00,
2013-04-01 10:38:00,52.5,46.5,29.66,WNW,294,8.0,11.0,80,0.00,,,0.00,VWS V14.01,2013-04-01 14:38:00,
2013-04-01 10:39:00,52.5,46.2,29.66,West,265,13.0,13.0,79,0.00,,,0.00,VWS V14.01,2013-04-01 14:39:00,
2013-04-01 10:40:00,52.5,45.8,29.66,West,269,7.0,13.0,78,0.00,,,0.00,VWS V14.01,2013-04-01 14:40:00,
2013-04-01 10:41:00,52.4,45.8,29.66,West,269,7.0,8.0,78,0.00,,,0.00,VWS V14.01,2013-04-01 14:41:00,
2013-04-01 10:42:00,52.5,45.8,29.66,WSW,252,5.0,8.0,78,0.00,,,0.00,VWS V14.01,2013-04-01 14:42:00,
2013-04-01 10:43:00,52.6,46.0,29.66,WSW,254,6.0,15.0,78,0.00,,,0.00,VWS V14.01,2013-04-01 14:43:00,
2013-04-01 10:44:00,52.6,46.0,29.66,WSW,252,1.0,15.0,78,0.00,,,0.00,VWS V14.01,2013-04-01 14:44:00,
2013-04-01 10:45:00,52.7,46.0,29.65,WSW,257,5.0,15.0,78,0.00,,,0.00,VWS V14.01,2013-04-01 14:45:00,
2013-04-01 10:46:00,52.8,45.8,29.65,WSW,247,2.0,15.0,77,0.00,,,0.00,VWS V14.01,2013-04-01 14:46:00,
2013-04-01 10:47:00,53.0,46.3,29.65,SW,227,5.0,15.0,78,0.00,,,0.00,VWS V14.01,2013-04-01 14:47:00,
2013-04-01 10:48:00,53.1,46.4,29.65,SSW,213,7.0,15.0,78,0.00,,,0.00,VWS V14.01,2013-04-01 14:48:00,
2013-04-01 10:49:00,53.2,46.2,29.65,WSW,237,3.0,15.0,77,0.00,,,0.00,VWS V14.01,2013-04-01 14:49:00,
2013-04-01 10:50:00,53.3,46.3,29.65,SSW,202,2.0,15.0,77,0.00,,,0.00,VWS V14.01,2013-04-01 14:50:00,
2013-04-01 10:51:00,53.5,46.5,29.65,WSW,254,7.0,7.0,77,0.00,,,0.00,VWS V14.01,2013-04-01 14:51:00,
2013-04-01 10:52:00,53.7,46.7,29.65,West,267,4.0,13.0,77,0.00,,,0.00,VWS V14.01,2013-04-01 14:52:00,
2013-04-01 10:53:00,53.7,46.3,29.65,WSW,257,5.0,13.0,76,0.00,,,0.00,VWS V14.01,2013-04-01 14:53:00,
2013-04-01 10:54:00,53.7,46.0,29.65,WSW,246,12.0,14.0,75,0.00,,,0.00,VWS V14.01,2013-04-01 14:54:00,
2013-04-01 10:55:00,53.7,46.0,29.65,WSW,251,5.0,14.0,75,0.00,,,0.00,VWS V14.01,2013-04-01 14:55:00,
2013-04-01 10:56:00,53.8,46.1,29.65,West,275,11.0,14.0,75,0.00,,,0.00,VWS V14.01,2013-04-01 14:56:00,
2013-04-01 10:57:00,53.8,45.7,29.65,WSW,244,7.0,15.0,74,0.00,,,0.00,VWS V14.01,2013-04-01 14:57:00,
2013-04-01 10:58:00,53.8,45.4,29.65,West,259,8.0,15.0,73,0.00,,,0.00,VWS V14.01,2013-04-01 14:58:00,
2013-04-01 10:59:00,53.9,45.8,29.65,WSW,246,5.0,15.0,74,0.00,,,0.00,VWS V14.01,2013-04-01 14:59:00,
2013-04-01 11:00:00,54.0,45.9,29.64,SW,217,6.0,15.0,74,0.00,,,0.00,VWS V14.01,2013-04-01 15:00:00,
2013-04-01 11:01:00,54.1,46.0,29.64,SW,226,3.0,6.0,74,0.00,,,0.00,VWS V14.01,2013-04-01 15:01:00,
2013-04-01 11:02:00,54.3,46.2,29.64,SW,222,4.0,7.0,74,0.00,,,0.00,VWS V14.01,2013-04-01 15:02:00,
2013-04-01 11:03:00,54.4,45.9,29.64,WSW,252,8.0,10.0,73,0.00,,,0.00,VWS V14.01,2013-04-01 15:03:00,
2013-04-01 11:04:00,54.4,45.9,29.64,West,273,1.0,10.0,73,0.00,,,0.00,VWS V14.01,2013-04-01 15:04:00,
2013-04-01 11:05:00,54.5,46.0,29.64,WSW,246,7.0,10.0,73,0.00,,,0.00,VWS V14.01,2013-04-01 15:05:00,
2013-04-01 11:06:00,54.5,46.0,29.64,SSW,212,7.0,10.0,73,0.00,,,0.00,VWS V14.01,2013-04-01 15:06:00,
2013-04-01 11:07:00,54.5,46.0,29.64,WSW,244,1.0,10.0,73,0.00,,,0.00,VWS V14.01,2013-04-01 15:07:00,
2013-04-01 11:08:00,54.6,46.1,29.64,WSW,244,0.0,10.0,73,0.00,,,0.00,VWS V14.01,2013-04-01 15:08:00,
2013-04-01 11:09:00,54.7,46.6,29.64,West,277,4.0,10.0,74,0.00,,,0.00,VWS V14.01,2013-04-01 15:09:00,
2013-04-01 11:10:00,54.8,46.3,29.64,WNW,294,4.0,10.0,73,0.00,,,0.00,VWS V14.01,2013-04-01 15:10:00,
2013-04-01 11:11:00,54.8,46.3,29.64,WSW,249,8.0,9.0,73,0.00,,,0.00,VWS V14.01,2013-04-01 15:11:00,
2013-04-01 11:12:00,54.8,46.0,29.64,SSW,193,3.0,9.0,72,0.00,,,0.00,VWS V14.01,2013-04-01 15:12:00,
2013-04-01 11:13:00,54.8,46.0,29.64,WNW,293,6.0,13.0,72,0.00,,,0.00,VWS V14.01,2013-04-01 15:13:00,
2013-04-01 11:14:00,54.8,45.6,29.64,West,260,2.0,13.0,71,0.00,,,0.00,VWS V14.01,2013-04-01 15:14:00,
2013-04-01 11:15:00,54.8,46.0,29.64,SSW,209,3.0,13.0,72,0.00,,,0.00,VWS V14.01,2013-04-01 15:15:00,
2013-04-01 11:16:00,54.8,46.0,29.64,West,267,6.0,13.0,72,0.00,,,0.00,VWS V14.01,2013-04-01 15:16:00,
2013-04-01 11:17:00,54.9,45.7,29.64,WSW,254,10.0,16.0,71,0.00,,,0.00,VWS V14.01,2013-04-01 15:17:00,
2013-04-01 11:18:00,54.9,45.7,29.64,WSW,254,5.0,16.0,71,0.00,,,0.00,VWS V14.01,2013-04-01 15:18:00,
2013-04-01 11:19:00,55.0,45.4,29.64,WSW,244,9.0,16.0,70,0.00,,,0.00,VWS V14.01,2013-04-01 15:19:00,
2013-04-01 11:20:00,55.1,45.5,29.64,WSW,256,5.0,16.0,70,0.00,,,0.00,VWS V14.01,2013-04-01 15:20:00,
2013-04-01 11:21:00,55.1,45.5,29.64,West,273,8.0,10.0,70,0.00,,,0.00,VWS V14.01,2013-04-01 15:21:00,
2013-04-01 11:22:00,55.2,45.2,29.64,NW,304,3.0,10.0,69,0.00,,,0.00,VWS V14.01,2013-04-01 15:22:00,
2013-04-01 11:23:00,55.2,44.8,29.64,WNW,298,2.0,10.0,68,0.00,,,0.00,VWS V14.01,2013-04-01 15:23:00,
2013-04-01 11:24:00,55.3,44.9,29.64,WSW,252,7.0,10.0,68,0.00,,,0.00,VWS V14.01,2013-04-01 15:24:00,
2013-04-01 11:25:00,55.3,44.9,29.64,West,261,9.0,10.0,68,0.00,,,0.00,VWS V14.01,2013-04-01 15:25:00,
2013-04-01 11:26:00,55.5,45.1,29.64,West,272,5.0,13.0,68,0.00,,,0.00,VWS V14.01,2013-04-01 15:26:00,
2013-04-01 11:27:00,55.6,44.8,29.64,NW,313,2.0,13.0,67,0.00,,,0.00,VWS V14.01,2013-04-01 15:27:00,
2013-04-01 11:28:00,55.7,45.3,29.64,WNW,286,7.0,13.0,68,0.00,,,0.00,VWS V14.01,2013-04-01 15:28:00,
2013-04-01 11:29:00,55.8,45.4,29.64,WNW,292,8.0,13.0,68,0.00,,,0.00,VWS V14.01,2013-04-01 15:29:00,
2013-04-01 11:30:00,55.8,45.0,29.64,West,276,8.0,13.0,67,0.00,,,0.00,VWS V14.01,2013-04-01 15:30:00,
2013-04-01 11:31:00,55.9,45.1,29.64,WNW,282,5.0,10.0,67,0.00,,,0.00,VWS V14.01,2013-04-01 15:31:00,
2013-04-01 11:32:00,55.9,45.1,29.64,NE,53,2.0,12.0,67,0.00,,,0.00,VWS V14.01,2013-04-01 15:32:00,
2013-04-01 11:33:00,56.0,45.2,29.64,NNW,345,0.0,12.0,67,0.00,,,0.00,VWS V14.01,2013-04-01 15:33:00,
2013-04-01 11:34:00,56.1,45.3,29.64,WNW,290,5.0,12.0,67,0.00,,,0.00,VWS V14.01,2013-04-01 15:34:00,
2013-04-01 11:35:00,56.2,45.4,29.64,NW,305,10.0,16.0,67,0.00,,,0.00,VWS V14.01,2013-04-01 15:35:00,
2013-04-01 11:36:00,56.3,45.5,29.64,West,267,8.0,16.0,67,0.00,,,0.00,VWS V14.01,2013-04-01 15:36:00,
2013-04-01 11:37:00,56.4,44.8,29.64,WNW,293,3.0,16.0,65,0.00,,,0.00,VWS V14.01,2013-04-01 15:37:00,
2013-04-01 11:38:00,56.4,44.8,29.64,West,279,6.0,16.0,65,0.00,,,0.00,VWS V14.01,2013-04-01 15:38:00,
2013-04-01 11:39:00,56.4,44.4,29.64,West,265,3.0,16.0,64,0.00,,,0.00,VWS V14.01,2013-04-01 15:39:00,
2013-04-01 11:40:00,56.5,44.9,29.64,West,277,3.0,16.0,65,0.00,,,0.00,VWS V14.01,2013-04-01 15:40:00,
2013-04-01 11:41:00,56.6,45.0,29.64,West,272,13.0,18.0,65,0.00,,,0.00,VWS V14.01,2013-04-01 15:41:00,
2013-04-01 11:42:00,56.5,44.1,29.64,West,265,10.0,18.0,63,0.00,,,0.00,VWS V14.01,2013-04-01 15:42:00,
2013-04-01 11:43:00,56.5,44.5,29.64,WSW,258,6.0,18.0,64,0.00,,,0.00,VWS V14.01,2013-04-01 15:43:00,
2013-04-01 11:44:00,56.5,44.5,29.64,West,279,8.0,18.0,64,0.00,,,0.00,VWS V14.01,2013-04-01 15:44:00,
2013-04-01 11:45:00,56.5,44.1,29.64,SW,225,6.0,18.0,63,0.00,,,0.00,VWS V14.01,2013-04-01 15:45:00,
2013-04-01 11:46:00,56.5,44.5,29.64,West,278,7.0,18.0,64,0.00,,,0.00,VWS V14.01,2013-04-01 15:46:00,
2013-04-01 11:47:00,56.6,45.0,29.64,WSW,252,7.0,18.0,65,0.00,,,0.00,VWS V14.01,2013-04-01 15:47:00,
2013-04-01 11:48:00,56.6,44.6,29.64,WSW,252,2.0,18.0,64,0.00,,,0.00,VWS V14.01,2013-04-01 15:48:00,
2013-04-01 11:49:00,56.7,45.1,29.64,West,263,5.0,18.0,65,0.00,,,0.00,VWS V14.01,2013-04-01 15:49:00,
2013-04-01 11:50:00,56.9,45.3,29.64,WNW,284,16.0,18.0,65,0.00,,,0.00,VWS V14.01,2013-04-01 15:50:00,
2013-04-01 11:51:00,56.9,44.5,29.64,SSW,200,4.0,10.0,63,0.00,,,0.00,VWS V14.01,2013-04-01 15:51:00,
2013-04-01 11:52:00,57.0,45.0,29.64,WSW,244,10.0,14.0,64,0.00,,,0.00,VWS V14.01,2013-04-01 15:52:00,
2013-04-01 11:53:00,57.1,44.6,29.64,SW,227,3.0,14.0,63,0.00,,,0.00,VWS V14.01,2013-04-01 15:53:00,
2013-04-01 11:54:00,57.1,44.6,29.64,SW,227,6.0,14.0,63,0.00,,,0.00,VWS V14.01,2013-04-01 15:54:00,
2013-04-01 11:55:00,57.1,44.6,29.64,West,261,1.0,14.0,63,0.00,,,0.00,VWS V14.01,2013-04-01 15:55:00,
2013-04-01 11:56:00,57.2,44.3,29.64,WSW,251,7.0,14.0,62,0.00,,,0.00,VWS V14.01,2013-04-01 15:56:00,
2013-04-01 11:57:00,57.1,44.2,29.64,WSW,246,8.0,14.0,62,0.00,,,0.00,VWS V14.01,2013-04-01 15:57:00,
2013-04-01 11:58:00,57.1,44.6,29.64,WSW,245,3.0,14.0,63,0.00,,,0.00,VWS V14.01,2013-04-01 15:58:00,
2013-04-01 11:59:00,57.1,44.2,29.64,SW,217,6.0,14.0,62,0.00,,,0.00,VWS V14.01,2013-04-01 15:59:00,
2013-04-01 12:00:00,57.0,43.7,29.64,West,263,7.0,15.0,61,0.00,,,0.00,VWS V14.01,2013-04-01 16:00:00,
2013-04-01 12:01:00,56.9,43.6,29.64,West,278,11.0,11.0,61,0.00,,,0.00,VWS V14.01,2013-04-01 16:01:00,
2013-04-01 12:02:00,56.7,43.0,29.64,WSW,250,6.0,12.0,60,0.00,,,0.00,VWS V14.01,2013-04-01 16:02:00,
2013-04-01 12:03:00,56.5,43.2,29.64,WSW,246,6.0,12.0,61,0.00,,,0.00,VWS V14.01,2013-04-01 16:03:00,
2013-04-01 12:04:00,56.4,43.6,29.64,West,271,1.0,12.0,62,0.00,,,0.00,VWS V14.01,2013-04-01 16:04:00,
2013-04-01 12:05:00,56.3,43.5,29.64,SSW,193,2.0,12.0,62,0.00,,,0.00,VWS V14.01,2013-04-01 16:05:00,
2013-04-01 12:06:00,56.2,43.8,29.64,NW,320,2.0,12.0,63,0.00,,,0.00,VWS V14.01,2013-04-01 16:06:00,
2013-04-01 12:07:00,56.2,43.8,29.64,SSW,202,7.0,12.0,63,0.00,,,0.00,VWS V14.01,2013-04-01 16:07:00,
2013-04-01 12:08:00,56.1,43.3,29.64,SW,234,6.0,12.0,62,0.00,,,0.00,VWS V14.01,2013-04-01 16:08:00,
2013-04-01 12:09:00,56.1,43.3,29.64,SW,223,3.0,12.0,62,0.00,,,0.00,VWS V14.01,2013-04-01 16:09:00,
2013-04-01 12:10:00,56.0,43.6,29.64,SW,227,7.0,12.0,63,0.00,,,0.00,VWS V14.01,2013-04-01 16:10:00,
2013-04-01 12:11:00,56.0,43.2,29.64,WSW,253,12.0,12.0,62,0.00,,,0.00,VWS V14.01,2013-04-01 16:11:00,
2013-04-01 12:12:00,56.0,42.8,29.64,West,279,7.0,12.0,61,0.00,,,0.00,VWS V14.01,2013-04-01 16:12:00,
2013-04-01 12:13:00,56.0,42.8,29.64,WSW,242,8.0,15.0,61,0.00,,,0.00,VWS V14.01,2013-04-01 16:13:00,
2013-04-01 12:14:00,55.9,42.7,29.64,SW,236,4.0,15.0,61,0.00,,,0.00,VWS V14.01,2013-04-01 16:14:00,
2013-04-01 12:15:00,55.9,43.1,29.63,West,270,7.0,15.0,62,0.00,,,0.00,VWS V14.01,2013-04-01 16:15:00,
2013-04-01 12:16:00,55.9,43.1,29.63,WNW,285,6.0,15.0,62,0.00,,,0.00,VWS V14.01,2013-04-01 16:16:00,
2013-04-01 12:17:00,55.8,42.6,29.63,West,263,11.0,15.0,61,0.00,,,0.00,VWS V14.01,2013-04-01 16:17:00,
2013-04-01 12:18:00,55.7,42.5,29.63,WSW,253,2.0,15.0,61,0.00,,,0.00,VWS V14.01,2013-04-01 16:18:00,
2013-04-01 12:19:00,55.7,42.9,29.63,SSW,213,1.0,15.0,62,0.00,,,0.00,VWS V14.01,2013-04-01 16:19:00,
2013-04-01 12:20:00,55.7,43.3,29.63,WSW,249,12.0,18.0,63,0.00,,,0.00,VWS V14.01,2013-04-01 16:20:00,
2013-04-01 12:21:00,55.7,42.5,29.63,NW,305,5.0,17.0,61,0.00,,,0.00,VWS V14.01,2013-04-01 16:21:00,
2013-04-01 12:22:00,55.7,42.5,29.63,West,261,6.0,17.0,61,0.00,,,0.00,VWS V14.01,2013-04-01 16:22:00,
2013-04-01 12:23:00,55.6,42.4,29.63,WSW,250,9.0,17.0,61,0.00,,,0.00,VWS V14.01,2013-04-01 16:23:00,
2013-04-01 12:24:00,55.6,42.4,29.63,West,262,6.0,17.0,61,0.00,,,0.00,VWS V14.01,2013-04-01 16:24:00,
2013-04-01 12:25:00,55.6,42.8,29.63,NW,320,6.0,17.0,62,0.00,,,0.00,VWS V14.01,2013-04-01 16:25:00,
2013-04-01 12:26:00,55.8,43.8,29.63,SSW,207,0.0,17.0,64,0.00,,,0.00,VWS V14.01,2013-04-01 16:26:00,
2013-04-01 12:27:00,55.8,43.4,29.63,SW,234,4.0,17.0,63,0.00,,,0.00,VWS V14.01,2013-04-01 16:27:00,
2013-04-01 12:28:00,55.9,42.7,29.63,WNW,302,7.0,17.0,61,0.00,,,0.00,VWS V14.01,2013-04-01 16:28:00,
2013-04-01 12:29:00,56.0,42.8,29.63,West,275,10.0,17.0,61,0.00,,,0.00,VWS V14.01,2013-04-01 16:29:00,
2013-04-01 12:30:00,56.0,41.9,29.63,WNW,292,12.0,17.0,59,0.00,,,0.00,VWS V14.01,2013-04-01 16:30:00,
2013-04-01 12:31:00,56.0,41.9,29.63,SW,230,5.0,12.0,59,0.00,,,0.00,VWS V14.01,2013-04-01 16:31:00,
2013-04-01 12:32:00,56.1,41.5,29.63,WSW,253,5.0,12.0,58,0.00,,,0.00,VWS V14.01,2013-04-01 16:32:00,
2013-04-01 12:33:00,56.0,41.5,29.63,WSW,250,16.0,16.0,58,0.00,,,0.00,VWS V14.01,2013-04-01 16:33:00,
2013-04-01 12:34:00,56.0,40.1,29.63,SSW,210,2.0,16.0,55,0.00,,,0.00,VWS V14.01,2013-04-01 16:34:00,
2013-04-01 12:35:00,55.9,40.5,29.63,WSW,257,11.0,16.0,56,0.00,,,0.00,VWS V14.01,2013-04-01 16:35:00,
2013-04-01 12:36:00,55.9,40.0,29.63,WNW,293,9.0,16.0,55,0.00,,,0.00,VWS V14.01,2013-04-01 16:36:00,
2013-04-01 12:37:00,55.8,39.9,29.63,WSW,255,0.0,16.0,55,0.00,,,0.00,VWS V14.01,2013-04-01 16:37:00,
2013-04-01 12:38:00,55.8,39.9,29.63,WSW,245,9.0,16.0,55,0.00,,,0.00,VWS V14.01,2013-04-01 16:38:00,
2013-04-01 12:39:00,55.7,39.8,29.63,WNW,300,8.0,16.0,55,0.00,,,0.00,VWS V14.01,2013-04-01 16:39:00,
2013-04-01 12:40:00,55.7,39.8,29.63,WSW,243,7.0,16.0,55,0.00,,,0.00,VWS V14.01,2013-04-01 16:40:00,
2013-04-01 12:41:00,55.7,39.8,29.63,West,261,11.0,19.0,55,0.00,,,0.00,VWS V14.01,2013-04-01 16:41:00,
2013-04-01 12:42:00,55.6,39.7,29.63,SW,224,11.0,19.0,55,0.00,,,0.00,VWS V14.01,2013-04-01 16:42:00,
2013-04-01 12:43:00,55.5,39.6,29.63,West,260,7.0,19.0,55,0.00,,,0.00,VWS V14.01,2013-04-01 16:43:00,
2013-04-01 12:44:00,55.5,40.1,29.63,WSW,242,7.0,19.0,56,0.00,,,0.00,VWS V14.01,2013-04-01 16:44:00,
2013-04-01 12:45:00,55.5,40.1,29.63,WSW,247,2.0,19.0,56,0.00,,,0.00,VWS V14.01,2013-04-01 16:45:00,
2013-04-01 12:46:00,55.5,40.5,29.63,SW,230,5.0,19.0,57,0.00,,,0.00,VWS V14.01,2013-04-01 16:46:00,
2013-04-01 12:47:00,55.4,40.0,29.63,WSW,245,2.0,19.0,56,0.00,,,0.00,VWS V14.01,2013-04-01 16:47:00,
2013-04-01 12:48:00,55.4,40.0,29.63,WSW,243,9.0,19.0,56,0.00,,,0.00,VWS V14.01,2013-04-01 16:48:00,
2013-04-01 12:49:00,55.4,40.0,29.63,West,275,16.0,19.0,56,0.00,,,0.00,VWS V14.01,2013-04-01 16:49:00,
2013-04-01 12:50:00,55.4,39.5,29.63,West,267,7.0,19.0,55,0.00,,,0.00,VWS V14.01,2013-04-01 16:50:00,
2013-04-01 12:51:00,55.4,40.0,29.63,West,274,5.0,14.0,56,0.00,,,0.00,VWS V14.01,2013-04-01 16:51:00,
2013-04-01 12:52:00,55.3,39.9,29.63,WNW,296,9.0,14.0,56,0.00,,,0.00,VWS V14.01,2013-04-01 16:52:00,
2013-04-01 12:53:00,55.3,39.9,29.63,WSW,238,4.0,14.0,56,0.00,,,0.00,VWS V14.01,2013-04-01 16:53:00,
2013-04-01 12:54:00,55.3,39.4,29.63,WSW,249,7.0,14.0,55,0.00,,,0.00,VWS V14.01,2013-04-01 16:54:00,
2013-04-01 12:55:00,55.3,39.4,29.63,West,265,13.0,20.0,55,0.00,,,0.00,VWS V14.01,2013-04-01 16:55:00,
2013-04-01 12:56:00,55.2,39.3,29.63,WSW,240,6.0,20.0,55,0.00,,,0.00,VWS V14.01,2013-04-01 16:56:00,
2013-04-01 12:57:00,55.1,39.2,29.63,NNW,329,13.0,20.0,55,0.00,,,0.00,VWS V14.01,2013-04-01 16:57:00,
2013-04-01 12:58:00,55.1,39.2,29.63,WNW,286,5.0,20.0,55,0.00,,,0.00,VWS V14.01,2013-04-01 16:58:00,
2013-04-01 12:59:00,55.0,39.2,29.63,NNW,329,2.0,20.0,55,0.00,,,0.00,VWS V14.01,2013-04-01 16:59:00,
2013-04-01 13:00:00,55.0,39.6,29.63,SW,225,5.0,20.0,56,0.00,,,0.00,VWS V14.01,2013-04-01 17:00:00,
2013-04-01 13:01:00,54.9,39.0,29.63,WSW,238,10.0,15.0,55,0.00,,,0.00,VWS V14.01,2013-04-01 17:01:00,
2013-04-01 13:02:00,54.9,39.0,29.63,SSW,207,6.0,15.0,55,0.00,,,0.00,VWS V14.01,2013-04-01 17:02:00,
2013-04-01 13:03:00,54.9,39.5,29.63,West,270,3.0,15.0,56,0.00,,,0.00,VWS V14.01,2013-04-01 17:03:00,
2013-04-01 13:04:00,54.9,39.5,29.63,SSW,205,2.0,15.0,56,0.00,,,0.00,VWS V14.01,2013-04-01 17:04:00,
2013-04-01 13:05:00,54.9,39.5,29.63,SSW,203,4.0,15.0,56,0.00,,,0.00,VWS V14.01,2013-04-01 17:05:00,
2013-04-01 13:06:00,55.0,39.6,29.63,WSW,249,10.0,17.0,56,0.00,,,0.00,VWS V14.01,2013-04-01 17:06:00,
2013-04-01 13:07:00,54.9,39.5,29.63,WSW,245,7.0,17.0,56,0.00,,,0.00,VWS V14.01,2013-04-01 17:07:00,
2013-04-01 13:08:00,54.9,39.5,29.63,WSW,243,6.0,17.0,56,0.00,,,0.00,VWS V14.01,2013-04-01 17:08:00,
2013-04-01 13:09:00,54.9,40.0,29.63,WSW,241,14.0,17.0,57,0.00,,,0.00,VWS V14.01,2013-04-01 17:09:00,
2013-04-01 13:10:00,54.9,40.0,29.63,WSW,243,20.0,20.0,57,0.00,,,0.00,VWS V14.01,2013-04-01 17:10:00,
2013-04-01 13:11:00,54.8,39.9,29.63,SSW,195,7.0,17.0,57,0.00,,,0.00,VWS V14.01,2013-04-01 17:11:00,
2013-04-01 13:12:00,54.8,39.9,29.63,WSW,246,4.0,17.0,57,0.00,,,0.00,VWS V14.01,2013-04-01 17:12:00,
2013-04-01 13:13:00,54.7,40.2,29.63,WSW,255,4.0,17.0,58,0.00,,,0.00,VWS V14.01,2013-04-01 17:13:00,
2013-04-01 13:14:00,54.7,40.2,29.63,WSW,238,8.0,17.0,58,0.00,,,0.00,VWS V14.01,2013-04-01 17:14:00,
2013-04-01 13:15:00,54.6,39.7,29.64,WSW,252,9.0,17.0,57,0.00,,,0.00,VWS V14.01,2013-04-01 17:15:00,
2013-04-01 13:16:00,54.5,40.0,29.64,WSW,245,7.0,17.0,58,0.00,,,0.00,VWS V14.01,2013-04-01 17:16:00,
2013-04-01 13:17:00,54.4,40.0,29.64,SW,236,4.0,17.0,58,0.00,,,0.00,VWS V14.01,2013-04-01 17:17:00,
2013-04-01 13:18:00,54.4,40.0,29.64,NW,305,2.0,17.0,58,0.00,,,0.00,VWS V14.01,2013-04-01 17:18:00,
2013-04-01 13:19:00,54.4,40.4,29.64,WSW,244,9.0,17.0,59,0.00,,,0.00,VWS V14.01,2013-04-01 17:19:00,
2013-04-01 13:20:00,54.3,39.8,29.64,WSW,248,2.0,17.0,58,0.00,,,0.00,VWS V14.01,2013-04-01 17:20:00,
2013-04-01 13:21:00,54.4,40.4,29.64,South,190,1.0,4.0,59,0.00,,,0.00,VWS V14.01,2013-04-01 17:21:00,
2013-04-01 13:22:00,54.4,40.4,29.64,WSW,239,3.0,9.0,59,0.00,,,0.00,VWS V14.01,2013-04-01 17:22:00,
2013-04-01 13:23:00,54.5,40.5,29.64,WSW,242,10.0,12.0,59,0.00,,,0.00,VWS V14.01,2013-04-01 17:23:00,
2013-04-01 13:24:00,54.5,40.5,29.64,WSW,252,12.0,12.0,59,0.00,,,0.00,VWS V14.01,2013-04-01 17:24:00,
2013-04-01 13:25:00,54.6,41.0,29.64,SW,225,8.0,15.0,60,0.00,,,0.00,VWS V14.01,2013-04-01 17:25:00,
2013-04-01 13:26:00,54.7,40.7,29.64,WSW,244,12.0,15.0,59,0.00,,,0.00,VWS V14.01,2013-04-01 17:26:00,
2013-04-01 13:27:00,54.8,40.3,29.64,WSW,244,6.0,15.0,58,0.00,,,0.00,VWS V14.01,2013-04-01 17:27:00,
2013-04-01 13:28:00,54.8,40.3,29.64,West,263,5.0,15.0,58,0.00,,,0.00,VWS V14.01,2013-04-01 17:28:00,
2013-04-01 13:29:00,54.8,40.3,29.64,West,271,13.0,15.0,58,0.00,,,0.00,VWS V14.01,2013-04-01 17:29:00,
2013-04-01 13:30:00,54.8,39.9,29.64,West,276,4.0,15.0,57,0.00,,,0.00,VWS V14.01,2013-04-01 17:30:00,
2013-04-01 13:31:00,54.8,40.3,29.64,NW,304,3.0,15.0,58,0.00,,,0.00,VWS V14.01,2013-04-01 17:31:00,
2013-04-01 13:32:00,54.8,39.9,29.64,West,267,7.0,16.0,57,0.00,,,0.00,VWS V14.01,2013-04-01 17:32:00,
2013-04-01 13:33:00,54.8,39.9,29.64,WSW,238,8.0,16.0,57,0.00,,,0.00,VWS V14.01,2013-04-01 17:33:00,
2013-04-01 13:34:00,54.8,39.9,29.64,WSW,246,7.0,16.0,57,0.00,,,0.00,VWS V14.01,2013-04-01 17:34:00,
2013-04-01 13:35:00,54.7,40.2,29.64,WSW,248,21.0,21.0,58,0.00,,,0.00,VWS V14.01,2013-04-01 17:35:00,
2013-04-01 13:36:00,54.7,39.8,29.64,WSW,243,6.0,21.0,57,0.00,,,0.00,VWS V14.01,2013-04-01 17:36:00,
2013-04-01 13:37:00,54.6,40.1,29.64,West,275,6.0,21.0,58,0.00,,,0.00,VWS V14.01,2013-04-01 17:37:00,
2013-04-01 13:38:00,54.6,40.1,29.64,WNW,300,2.0,21.0,58,0.00,,,0.00,VWS V14.01,2013-04-01 17:38:00,
2013-04-01 13:39:00,54.6,40.6,29.64,NW,320,0.0,21.0,59,0.00,,,0.00,VWS V14.01,2013-04-01 17:39:00,
2013-04-01 13:40:00,54.6,40.6,29.64,SW,225,4.0,21.0,59,0.00,,,0.00,VWS V14.01,2013-04-01 17:40:00,
2013-04-01 13:41:00,54.7,40.2,29.64,WSW,249,7.0,9.0,58,0.00,,,0.00,VWS V14.01,2013-04-01 17:41:00,
2013-04-01 13:42:00,54.6,40.1,29.64,West,268,13.0,13.0,58,0.00,,,0.00,VWS V14.01,2013-04-01 17:42:00,
2013-04-01 13:43:00,54.6,40.6,29.64,SW,215,5.0,13.0,59,0.00,,,0.00,VWS V14.01,2013-04-01 17:43:00,
2013-04-01 13:44:00,54.6,40.6,29.64,SSW,213,6.0,16.0,59,0.00,,,0.00,VWS V14.01,2013-04-01 17:44:00,
2013-04-01 13:45:00,54.6,40.1,29.64,SW,227,6.0,16.0,58,0.00,,,0.00,VWS V14.01,2013-04-01 17:45:00,
2013-04-01 13:46:00,54.6,40.6,29.64,WSW,248,0.0,16.0,59,0.00,,,0.00,VWS V14.01,2013-04-01 17:46:00,
2013-04-01 13:47:00,54.5,40.5,29.64,WSW,252,5.0,16.0,59,0.00,,,0.00,VWS V14.01,2013-04-01 17:47:00,
2013-04-01 13:48:00,54.6,40.6,29.64,WNW,303,4.0,16.0,59,0.00,,,0.00,VWS V14.01,2013-04-01 17:48:00,
2013-04-01 13:49:00,54.6,40.6,29.64,West,267,11.0,16.0,59,0.00,,,0.00,VWS V14.01,2013-04-01 17:49:00,
2013-04-01 13:50:00,54.6,40.6,29.64,WNW,294,5.0,16.0,59,0.00,,,0.00,VWS V14.01,2013-04-01 17:50:00,
2013-04-01 13:51:00,54.6,40.1,29.64,WSW,249,8.0,12.0,58,0.00,,,0.00,VWS V14.01,2013-04-01 17:51:00,
2013-04-01 13:52:00,54.7,40.7,29.64,South,188,7.0,12.0,59,0.00,,,0.00,VWS V14.01,2013-04-01 17:52:00,
2013-04-01 13:53:00,54.6,40.1,29.64,WSW,245,14.0,14.0,58,0.00,,,0.00,VWS V14.01,2013-04-01 17:53:00,
2013-04-01 13:54:00,54.6,39.7,29.64,West,265,10.0,17.0,57,0.00,,,0.00,VWS V14.01,2013-04-01 17:54:00,
2013-04-01 13:55:00,54.6,39.7,29.64,West,268,6.0,17.0,57,0.00,,,0.00,VWS V14.01,2013-04-01 17:55:00,
2013-04-01 13:56:00,54.5,39.6,29.64,West,277,4.0,17.0,57,0.00,,,0.00,VWS V14.01,2013-04-01 17:56:00,
2013-04-01 13:57:00,54.5,39.6,29.64,West,277,6.0,17.0,57,0.00,,,0.00,VWS V14.01,2013-04-01 17:57:00,
2013-04-01 13:58:00,54.4,39.5,29.64,West,277,0.0,17.0,57,0.00,,,0.00,VWS V14.01,2013-04-01 17:58:00,
2013-04-01 13:59:00,54.4,40.0,29.64,SW,216,6.0,17.0,58,0.00,,,0.00,VWS V14.01,2013-04-01 17:59:00,
2013-04-01 14:00:00,54.4,40.0,29.64,WSW,237,2.0,17.0,58,0.00,,,0.00,VWS V14.01,2013-04-01 18:00:00,
2013-04-01 14:01:00,54.4,40.0,29.64,SW,229,9.0,9.0,58,0.00,,,0.00,VWS V14.01,2013-04-01 18:01:00,
2013-04-01 14:02:00,54.4,40.0,29.64,WSW,238,2.0,9.0,58,0.00,,,0.00,VWS V14.01,2013-04-01 18:02:00,
2013-04-01 14:03:00,54.4,39.5,29.64,WSW,248,6.0,9.0,57,0.00,,,0.00,VWS V14.01,2013-04-01 18:03:00,
2013-04-01 14:04:00,54.3,39.4,29.64,West,263,9.0,10.0,57,0.00,,,0.00,VWS V14.01,2013-04-01 18:04:00,
2013-04-01 14:05:00,54.3,39.4,29.64,WSW,242,5.0,15.0,57,0.00,,,0.00,VWS V14.01,2013-04-01 18:05:00,
2013-04-01 14:06:00,54.2,39.3,29.64,West,270,9.0,15.0,57,0.00,,,0.00,VWS V14.01,2013-04-01 18:06:00,
2013-04-01 14:07:00,54.2,39.3,29.64,WSW,248,7.0,15.0,57,0.00,,,0.00,VWS V14.01,2013-04-01 18:07:00,
2013-04-01 14:08:00,54.2,39.3,29.64,West,259,7.0,15.0,57,0.00,,,0.00,VWS V14.01,2013-04-01 18:08:00,
2013-04-01 14:09:00,54.2,39.3,29.64,South,178,3.0,15.0,57,0.00,,,0.00,VWS V14.01,2013-04-01 18:09:00,
2013-04-01 14:10:00,54.1,38.8,29.64,WSW,248,9.0,15.0,56,0.00,,,0.00,VWS V14.01,2013-04-01 18:10:00,
2013-04-01 14:11:00,54.0,38.7,29.64,WNW,292,14.0,19.0,56,0.00,,,0.00,VWS V14.01,2013-04-01 18:11:00,
2013-04-01 14:12:00,53.9,38.6,29.64,WSW,253,6.0,19.0,56,0.00,,,0.00,VWS V14.01,2013-04-01 18:12:00,
2013-04-01 14:13:00,53.8,38.5,29.64,NW,313,0.0,19.0,56,0.00,,,0.00,VWS V14.01,2013-04-01 18:13:00,
2013-04-01 14:14:00,53.7,38.4,29.64,NNE,15,3.0,19.0,56,0.00,,,0.00,VWS V14.01,2013-04-01 18:14:00,
2013-04-01 14:15:00,53.6,38.3,29.65,SW,229,8.0,19.0,56,0.00,,,0.00,VWS V14.01,2013-04-01 18:15:00,
2013-04-01 14:16:00,53.5,38.7,29.65,West,279,6.0,19.0,57,0.00,,,0.00,VWS V14.01,2013-04-01 18:16:00,
2013-04-01 14:17:00,53.4,39.0,29.65,SW,217,6.0,19.0,58,0.00,,,0.00,VWS V14.01,2013-04-01 18:17:00,
2013-04-01 14:18:00,53.3,38.9,29.65,ESE,104,2.0,19.0,58,0.00,,,0.00,VWS V14.01,2013-04-01 18:18:00,
2013-04-01 14:19:00,53.2,38.8,29.65,West,279,4.0,19.0,58,0.00,,,0.00,VWS V14.01,2013-04-01 18:19:00,
2013-04-01 14:20:00,53.1,39.2,29.65,West,259,2.0,19.0,59,0.00,,,0.00,VWS V14.01,2013-04-01 18:20:00,
2013-04-01 14:21:00,53.0,39.1,29.65,WSW,257,2.0,7.0,59,0.00,,,0.00,VWS V14.01,2013-04-01 18:21:00,
2013-04-01 14:22:00,52.9,39.4,29.65,WNW,293,0.0,8.0,60,0.00,,,0.00,VWS V14.01,2013-04-01 18:22:00,
2013-04-01 14:23:00,52.9,39.4,29.65,WSW,245,3.0,8.0,60,0.00,,,0.00,VWS V14.01,2013-04-01 18:23:00,
2013-04-01 14:24:00,52.8,39.7,29.65,NW,313,7.0,12.0,61,0.00,,,0.00,VWS V14.01,2013-04-01 18:24:00,
2013-04-01 14:25:00,52.6,39.1,29.65,WSW,251,6.0,12.0,60,0.00,,,0.00,VWS V14.01,2013-04-01 18:25:00,
2013-04-01 14:26:00,52.4,38.9,29.65,WNW,296,4.0,12.0,60,0.00,,,0.00,VWS V14.01,2013-04-01 18:26:00,
2013-04-01 14:27:00,52.4,39.4,29.65,SW,231,5.0,12.0,61,0.00,,,0.00,VWS V14.01,2013-04-01 18:27:00,
2013-04-01 14:28:00,52.2,39.2,29.65,West,260,5.0,12.0,61,0.00,,,0.00,VWS V14.01,2013-04-01 18:28:00,
2013-04-01 14:29:00,52.1,39.1,29.65,WSW,240,10.0,12.0,61,0.00,,,0.00,VWS V14.01,2013-04-01 18:29:00,
2013-04-01 14:30:00,52.0,39.0,29.66,WSW,250,4.0,12.0,61,0.00,,,0.00,VWS V14.01,2013-04-01 18:30:00,
2013-04-01 14:31:00,51.9,38.9,29.66,WNW,286,1.0,5.0,61,0.00,,,0.00,VWS V14.01,2013-04-01 18:31:00,
2013-04-01 14:32:00,51.8,38.8,29.66,West,261,7.0,9.0,61,0.00,,,0.00,VWS V14.01,2013-04-01 18:32:00,
2013-04-01 14:33:00,51.7,38.7,29.66,WNW,300,13.0,13.0,61,0.00,,,0.00,VWS V14.01,2013-04-01 18:33:00,
2013-04-01 14:34:00,51.5,38.5,29.66,West,267,11.0,13.0,61,0.00,,,0.00,VWS V14.01,2013-04-01 18:34:00,
2013-04-01 14:35:00,51.4,38.4,29.66,WNW,286,9.0,13.0,61,0.00,,,0.00,VWS V14.01,2013-04-01 18:35:00,
2013-04-01 14:36:00,51.3,38.7,29.66,WSW,242,7.0,13.0,62,0.00,,,0.00,VWS V14.01,2013-04-01 18:36:00,
2013-04-01 14:37:00,51.0,38.9,29.66,West,261,17.0,17.0,63,0.00,,,0.00,VWS V14.01,2013-04-01 18:37:00,
2013-04-01 14:38:00,50.8,38.7,29.66,West,280,4.0,17.0,63,0.00,,,0.00,VWS V14.01,2013-04-01 18:38:00,
2013-04-01 14:39:00,50.7,39.0,29.66,WSW,249,3.0,17.0,64,0.00,,,0.00,VWS V14.01,2013-04-01 18:39:00,
2013-04-01 14:40:00,50.5,38.8,29.66,WSW,244,4.0,17.0,64,0.00,,,0.00,VWS V14.01,2013-04-01 18:40:00,
2013-04-01 14:41:00,50.4,39.1,29.66,WSW,257,5.0,9.0,65,0.00,,,0.00,VWS V14.01,2013-04-01 18:41:00,
2013-04-01 14:42:00,50.3,39.0,29.66,West,267,7.0,9.0,65,0.00,,,0.00,VWS V14.01,2013-04-01 18:42:00,
2013-04-01 14:43:00,50.1,38.8,29.66,WSW,238,2.0,9.0,65,0.00,,,0.00,VWS V14.01,2013-04-01 18:43:00,
2013-04-01 14:44:00,50.1,39.2,29.66,SW,236,2.0,9.0,66,0.00,,,0.00,VWS V14.01,2013-04-01 18:44:00,
2013-04-01 14:45:00,50.0,39.1,29.67,WSW,253,2.0,9.0,66,0.00,,,0.00,VWS V14.01,2013-04-01 18:45:00,
2013-04-01 14:46:00,50.0,39.1,29.67,West,277,7.0,9.0,66,0.00,,,0.00,VWS V14.01,2013-04-01 18:46:00,
2013-04-01 14:47:00,49.9,39.0,29.67,North,355,1.0,9.0,66,0.00,,,0.00,VWS V14.01,2013-04-01 18:47:00,
2013-04-01 14:48:00,49.8,38.9,29.67,NNE,30,3.0,9.0,66,0.00,,,0.00,VWS V14.01,2013-04-01 18:48:00,
2013-04-01 14:49:00,49.7,38.0,29.67,WNW,285,1.0,9.0,64,0.00,,,0.00,VWS V14.01,2013-04-01 18:49:00,
2013-04-01 14:50:00,49.7,38.0,29.67,WSW,249,7.0,9.0,64,0.00,,,0.00,VWS V14.01,2013-04-01 18:50:00,
2013-04-01 14:51:00,49.7,38.0,29.67,West,262,3.0,9.0,64,0.00,,,0.00,VWS V14.01,2013-04-01 18:51:00,
2013-04-01 14:52:00,49.6,37.9,29.67,South,181,6.0,12.0,64,0.00,,,0.00,VWS V14.01,2013-04-01 18:52:00,
2013-04-01 14:53:00,49.6,37.5,29.67,WSW,255,7.0,12.0,63,0.00,,,0.00,VWS V14.01,2013-04-01 18:53:00,
2013-04-01 14:54:00,49.6,37.9,29.67,West,281,3.0,12.0,64,0.00,,,0.00,VWS V14.01,2013-04-01 18:54:00,
2013-04-01 14:55:00,49.5,37.4,29.67,ENE,58,4.0,12.0,63,0.00,,,0.00,VWS V14.01,2013-04-01 18:55:00,
2013-04-01 14:56:00,49.5,37.8,29.67,WSW,249,10.0,12.0,64,0.00,,,0.00,VWS V14.01,2013-04-01 18:56:00,
2013-04-01 14:57:00,49.4,36.9,29.67,West,274,6.0,16.0,62,0.00,,,0.00,VWS V14.01,2013-04-01 18:57:00,
2013-04-01 14:58:00,49.4,36.5,29.67,SW,221,6.0,16.0,61,0.00,,,0.00,VWS V14.01,2013-04-01 18:58:00,
2013-04-01 14:59:00,49.4,36.9,29.67,West,279,9.0,16.0,62,0.00,,,0.00,VWS V14.01,2013-04-01 18:59:00,
2013-04-01 15:00:00,49.4,36.9,29.66,WSW,254,5.0,16.0,62,0.00,,,0.00,VWS V14.01,2013-04-01 19:00:00,
2013-04-01 15:01:00,49.4,36.5,29.66,West,269,2.0,5.0,61,0.00,,,0.00,VWS V14.01,2013-04-01 19:01:00,
2013-04-01 15:02:00,49.5,36.6,29.66,WSW,244,2.0,6.0,61,0.00,,,0.00,VWS V14.01,2013-04-01 19:02:00,
2013-04-01 15:03:00,49.6,37.1,29.66,SSW,211,1.0,6.0,62,0.00,,,0.00,VWS V14.01,2013-04-01 19:03:00,
2013-04-01 15:04:00,49.6,37.1,29.66,SW,217,4.0,6.0,62,0.00,,,0.00,VWS V14.01,2013-04-01 19:04:00,
2013-04-01 15:05:00,49.7,37.2,29.66,WNW,300,5.0,6.0,62,0.00,,,0.00,VWS V14.01,2013-04-01 19:05:00,
2013-04-01 15:06:00,49.8,36.9,29.66,NW,318,8.0,12.0,61,0.00,,,0.00,VWS V14.01,2013-04-01 19:06:00,
2013-04-01 15:07:00,49.9,37.0,29.66,SW,234,6.0,12.0,61,0.00,,,0.00,VWS V14.01,2013-04-01 19:07:00,
2013-04-01 15:08:00,50.0,37.1,29.66,WSW,257,4.0,12.0,61,0.00,,,0.00,VWS V14.01,2013-04-01 19:08:00,
2013-04-01 15:09:00,50.1,37.2,29.66,South,169,0.0,12.0,61,0.00,,,0.00,VWS V14.01,2013-04-01 19:09:00,
2013-04-01 15:10:00,50.3,37.4,29.66,North,11,3.0,12.0,61,0.00,,,0.00,VWS V14.01,2013-04-01 19:10:00,
2013-04-01 15:11:00,50.3,37.0,29.66,WNW,293,5.0,5.0,60,0.00,,,0.00,VWS V14.01,2013-04-01 19:11:00,
2013-04-01 15:12:00,50.4,37.0,29.66,WSW,250,3.0,7.0,60,0.00,,,0.00,VWS V14.01,2013-04-01 19:12:00,
2013-04-01 15:13:00,50.5,37.2,29.66,West,275,1.0,7.0,60,0.00,,,0.00,VWS V14.01,2013-04-01 19:13:00,
2013-04-01 15:14:00,50.6,36.4,29.66,NE,54,11.0,11.0,58,0.00,,,0.00,VWS V14.01,2013-04-01 19:14:00,
2013-04-01 15:15:00,50.7,36.5,29.66,SW,227,1.0,11.0,58,0.00,,,0.00,VWS V14.01,2013-04-01 19:15:00,
2013-04-01 15:16:00,50.7,36.5,29.66,WNW,294,0.0,11.0,58,0.00,,,0.00,VWS V14.01,2013-04-01 19:16:00,
2013-04-01 15:17:00,50.8,36.1,29.66,SSW,203,4.0,12.0,57,0.00,,,0.00,VWS V14.01,2013-04-01 19:17:00,
2013-04-01 15:18:00,50.8,36.1,29.66,SSE,161,3.0,12.0,57,0.00,,,0.00,VWS V14.01,2013-04-01 19:18:00,
2013-04-01 15:19:00,50.8,35.2,29.66,West,262,7.0,12.0,55,0.00,,,0.00,VWS V14.01,2013-04-01 19:19:00,
2013-04-01 15:20:00,50.8,35.2,29.66,SSW,206,3.0,12.0,55,0.00,,,0.00,VWS V14.01,2013-04-01 19:20:00,
2013-04-01 15:21:00,50.8,35.2,29.66,WSW,255,2.0,8.0,55,0.00,,,0.00,VWS V14.01,2013-04-01 19:21:00,
2013-04-01 15:22:00,50.8,34.8,29.66,SW,225,16.0,16.0,54,0.00,,,0.00,VWS V14.01,2013-04-01 19:22:00,
2013-04-01 15:23:00,50.7,34.7,29.66,WSW,239,6.0,16.0,54,0.00,,,0.00,VWS V14.01,2013-04-01 19:23:00,
2013-04-01 15:24:00,50.7,34.7,29.66,WNW,298,3.0,16.0,54,0.00,,,0.00,VWS V14.01,2013-04-01 19:24:00,
2013-04-01 15:25:00,50.6,34.6,29.66,West,271,4.0,16.0,54,0.00,,,0.00,VWS V14.01,2013-04-01 19:25:00,
2013-04-01 15:26:00,50.6,34.6,29.66,WSW,244,1.0,16.0,54,0.00,,,0.00,VWS V14.01,2013-04-01 19:26:00,
2013-04-01 15:27:00,50.6,34.6,29.66,NW,324,3.0,16.0,54,0.00,,,0.00,VWS V14.01,2013-04-01 19:27:00,
2013-04-01 15:28:00,50.5,34.5,29.66,NNW,343,9.0,16.0,54,0.00,,,0.00,VWS V14.01,2013-04-01 19:28:00,
2013-04-01 15:29:00,50.4,35.3,29.66,NW,319,10.0,16.0,56,0.00,,,0.00,VWS V14.01,2013-04-01 19:29:00,
2013-04-01 15:30:00,50.1,35.9,29.68,WNW,298,4.0,16.0,58,0.00,,,0.00,VWS V14.01,2013-04-01 19:30:00,
2013-04-01 15:31:00,49.8,36.1,29.68,NNE,24,6.0,9.0,59,0.00,,,0.00,VWS V14.01,2013-04-01 19:31:00,
2013-04-01 15:32:00,49.4,36.1,29.68,NNE,29,7.0,11.0,60,0.00,,,0.00,VWS V14.01,2013-04-01 19:32:00,
2013-04-01 15:33:00,49.1,36.2,29.68,ENE,67,1.0,11.0,61,0.00,,,0.00,VWS V14.01,2013-04-01 19:33:00,
2013-04-01 15:34:00,48.8,36.0,29.68,North,360,1.0,11.0,61,0.00,,,0.00,VWS V14.01,2013-04-01 19:34:00,
2013-04-01 15:35:00,48.5,36.1,29.68,NE,54,4.0,11.0,62,0.00,,,0.00,VWS V14.01,2013-04-01 19:35:00,
2013-04-01 15:36:00,48.3,36.3,29.68,NE,38,6.0,11.0,63,0.00,,,0.00,VWS V14.01,2013-04-01 19:36:00,
2013-04-01 15:37:00,48.0,36.4,29.68,NNW,344,1.0,11.0,64,0.00,,,0.00,VWS V14.01,2013-04-01 19:37:00,
2013-04-01 15:38:00,47.9,36.3,29.68,NNW,345,1.0,11.0,64,0.00,,,0.00,VWS V14.01,2013-04-01 19:38:00,
2013-04-01 15:39:00,47.7,36.5,29.68,East,99,5.0,11.0,65,0.00,,,0.00,VWS V14.01,2013-04-01 19:39:00,
2013-04-01 15:40:00,47.5,36.7,29.68,North,360,1.0,11.0,66,0.00,,,0.00,VWS V14.01,2013-04-01 19:40:00,
2013-04-01 15:41:00,47.3,36.5,29.68,NW,311,12.0,12.0,66,0.00,,,0.00,VWS V14.01,2013-04-01 19:41:00,
2013-04-01 15:42:00,47.0,36.6,29.68,SW,217,6.0,12.0,67,0.00,,,0.00,VWS V14.01,2013-04-01 19:42:00,
2013-04-01 15:43:00,46.8,36.4,29.68,NNW,327,3.0,12.0,67,0.00,,,0.00,VWS V14.01,2013-04-01 19:43:00,
2013-04-01 15:44:00,46.5,36.5,29.68,ENE,59,2.0,12.0,68,0.00,,,0.00,VWS V14.01,2013-04-01 19:44:00,
2013-04-01 15:45:00,46.3,36.3,29.71,NE,34,1.0,12.0,68,0.00,,,0.00,VWS V14.01,2013-04-01 19:45:00,
2013-04-01 15:46:00,46.0,36.4,29.71,ENE,65,8.0,12.0,69,0.00,,,0.00,VWS V14.01,2013-04-01 19:46:00,
2013-04-01 15:47:00,45.8,36.6,29.71,NE,48,3.0,12.0,70,0.00,,,0.00,VWS V14.01,2013-04-01 19:47:00,
2013-04-01 15:48:00,45.6,36.4,29.71,NE,40,3.0,12.0,70,0.00,,,0.00,VWS V14.01,2013-04-01 19:48:00,
2013-04-01 15:49:00,45.5,36.7,29.71,NE,53,5.0,12.0,71,0.00,,,0.00,VWS V14.01,2013-04-01 19:49:00,
2013-04-01 15:50:00,45.3,36.5,29.71,NNE,25,2.0,12.0,71,0.00,,,0.00,VWS V14.01,2013-04-01 19:50:00,
2013-04-01 15:51:00,45.2,36.7,29.71,NNE,22,2.0,4.0,72,0.00,,,0.00,VWS V14.01,2013-04-01 19:51:00,
2013-04-01 15:52:00,45.1,36.6,29.71,SE,146,1.0,8.0,72,0.00,,,0.00,VWS V14.01,2013-04-01 19:52:00,
2013-04-01 15:53:00,44.9,36.8,29.71,NNW,333,2.0,8.0,73,0.00,,,0.00,VWS V14.01,2013-04-01 19:53:00,
2013-04-01 15:54:00,44.8,36.7,29.71,West,270,2.0,8.0,73,0.00,,,0.00,VWS V14.01,2013-04-01 19:54:00,
2013-04-01 15:55:00,44.7,36.6,29.71,NE,48,4.0,8.0,73,0.00,,,0.00,VWS V14.01,2013-04-01 19:55:00,
2013-04-01 15:56:00,44.5,36.4,29.71,NNE,25,3.0,8.0,73,0.00,,,0.00,VWS V14.01,2013-04-01 19:56:00,
2013-04-01 15:57:00,44.4,36.7,29.71,NW,305,2.0,8.0,74,0.00,,,0.00,VWS V14.01,2013-04-01 19:57:00,
2013-04-01 15:58:00,44.3,36.5,29.71,NE,36,3.0,8.0,74,0.00,,,0.00,VWS V14.01,2013-04-01 19:58:00,
2013-04-01 15:59:00,44.2,36.5,29.71,SE,125,2.0,8.0,74,0.00,,,0.00,VWS V14.01,2013-04-01 19:59:00,
2013-04-01 16:00:00,44.1,36.4,29.71,North,349,4.0,8.0,74,0.00,,,0.00,VWS V14.01,2013-04-01 20:00:00,
2013-04-01 16:01:00,44.0,36.6,29.71,NNE,22,4.0,4.0,75,0.00,,,0.00,VWS V14.01,2013-04-01 20:01:00,
2013-04-01 16:02:00,44.0,36.6,29.71,North,5,2.0,6.0,75,0.00,,,0.00,VWS V14.01,2013-04-01 20:02:00,
2013-04-01 16:03:00,43.9,36.5,29.71,East,86,5.0,8.0,75,0.00,,,0.00,VWS V14.01,2013-04-01 20:03:00,
2013-04-01 16:04:00,43.8,36.4,29.71,North,5,1.0,8.0,75,0.00,,,0.00,VWS V14.01,2013-04-01 20:04:00,
2013-04-01 16:05:00,43.8,36.1,29.71,North,5,1.0,8.0,74,0.00,,,0.00,VWS V14.01,2013-04-01 20:05:00,
2013-04-01 16:06:00,43.7,36.0,29.71,NNW,334,2.0,8.0,74,0.00,,,0.00,VWS V14.01,2013-04-01 20:06:00,
2013-04-01 16:07:00,43.7,36.0,29.71,NNW,334,1.0,8.0,74,0.00,,,0.00,VWS V14.01,2013-04-01 20:07:00,
2013-04-01 16:08:00,43.7,36.0,29.71,NE,49,3.0,8.0,74,0.00,,,0.00,VWS V14.01,2013-04-01 20:08:00,
2013-04-01 16:09:00,43.6,36.2,29.71,NNE,22,2.0,8.0,75,0.00,,,0.00,VWS V14.01,2013-04-01 20:09:00,
2013-04-01 16:10:00,43.6,35.9,29.71,NNE,22,0.0,8.0,74,0.00,,,0.00,VWS V14.01,2013-04-01 20:10:00,
2013-04-01 16:11:00,43.6,35.9,29.71,NNE,22,0.0,1.0,74,0.00,,,0.00,VWS V14.01,2013-04-01 20:11:00,
2013-04-01 16:12:00,43.6,36.2,29.71,NE,42,3.0,4.0,75,0.00,,,0.00,VWS V14.01,2013-04-01 20:12:00,
2013-04-01 16:13:00,43.6,36.2,29.71,NE,42,1.0,4.0,75,0.00,,,0.00,VWS V14.01,2013-04-01 20:13:00,
2013-04-01 16:14:00,43.6,36.2,29.71,NNW,331,0.0,4.0,75,0.00,,,0.00,VWS V14.01,2013-04-01 20:14:00,
2013-04-01 16:15:00,43.6,36.2,29.70,WNW,294,0.0,5.0,75,0.00,,,0.00,VWS V14.01,2013-04-01 20:15:00,
2013-04-01 16:16:00,43.6,36.2,29.70,WNW,294,1.0,5.0,75,0.00,,,0.00,VWS V14.01,2013-04-01 20:16:00,
2013-04-01 16:17:00,43.6,36.2,29.70,South,171,4.0,7.0,75,0.00,,,0.00,VWS V14.01,2013-04-01 20:17:00,
2013-04-01 16:18:00,43.6,36.2,29.70,NE,52,5.0,7.0,75,0.00,,,0.00,VWS V14.01,2013-04-01 20:18:00,
2013-04-01 16:19:00,43.6,36.2,29.70,NNE,27,0.0,7.0,75,0.00,,,0.00,VWS V14.01,2013-04-01 20:19:00,
2013-04-01 16:20:00,43.6,36.2,29.70,NW,314,4.0,7.0,75,0.00,,,0.00,VWS V14.01,2013-04-01 20:20:00,
2013-04-01 16:21:00,43.6,36.2,29.70,ENE,65,1.0,5.0,75,0.00,,,0.00,VWS V14.01,2013-04-01 20:21:00,
2013-04-01 16:22:00,43.6,35.9,29.70,NE,47,3.0,5.0,74,0.00,,,0.00,VWS V14.01,2013-04-01 20:22:00,
2013-04-01 16:23:00,43.6,36.2,29.70,NW,317,0.0,5.0,75,0.00,,,0.00,VWS V14.01,2013-04-01 20:23:00,
2013-04-01 16:24:00,43.6,36.2,29.70,WNW,294,0.0,6.0,75,0.00,,,0.00,VWS V14.01,2013-04-01 20:24:00,
2013-04-01 16:25:00,43.6,36.2,29.70,ENE,69,2.0,6.0,75,0.00,,,0.00,VWS V14.01,2013-04-01 20:25:00,
2013-04-01 16:26:00,43.6,36.2,29.70,ENE,69,1.0,6.0,75,0.00,,,0.00,VWS V14.01,2013-04-01 20:26:00,
2013-04-01 16:27:00,43.6,35.9,29.70,WSW,257,5.0,6.0,74,0.00,,,0.00,VWS V14.01,2013-04-01 20:27:00,
2013-04-01 16:28:00,43.7,36.0,29.70,NE,55,3.0,6.0,74,0.00,,,0.00,VWS V14.01,2013-04-01 20:28:00,
2013-04-01 16:29:00,43.6,35.5,29.70,WNW,298,7.0,8.0,73,0.00,,,0.00,VWS V14.01,2013-04-01 20:29:00,
2013-04-01 16:30:00,43.6,35.5,29.70,NW,315,5.0,9.0,73,0.00,,,0.00,VWS V14.01,2013-04-01 20:30:00,
2013-04-01 16:31:00,43.6,35.5,29.70,NW,315,3.0,8.0,73,0.00,,,0.00,VWS V14.01,2013-04-01 20:31:00,
2013-04-01 16:32:00,43.6,35.2,29.70,NNE,24,0.0,8.0,72,0.00,,,0.00,VWS V14.01,2013-04-01 20:32:00,
2013-04-01 16:33:00,43.6,35.2,29.70,NNE,24,0.0,8.0,72,0.00,,,0.00,VWS V14.01,2013-04-01 20:33:00,
2013-04-01 16:34:00,43.7,35.3,29.70,NNE,25,2.0,8.0,72,0.00,,,0.00,VWS V14.01,2013-04-01 20:34:00,
2013-04-01 16:35:00,43.7,35.3,29.70,SSW,206,2.0,8.0,72,0.00,,,0.00,VWS V14.01,2013-04-01 20:35:00,
2013-04-01 16:36:00,43.7,35.3,29.70,NNE,30,1.0,8.0,72,0.00,,,0.00,VWS V14.01,2013-04-01 20:36:00,
2013-04-01 16:37:00,43.8,35.4,29.70,NNW,340,2.0,8.0,72,0.00,,,0.00,VWS V14.01,2013-04-01 20:37:00,
2013-04-01 16:38:00,43.8,35.4,29.70,West,281,4.0,8.0,72,0.00,,,0.00,VWS V14.01,2013-04-01 20:38:00,
2013-04-01 16:39:00,43.8,35.0,29.70,NW,313,1.0,8.0,71,0.00,,,0.00,VWS V14.01,2013-04-01 20:39:00,
2013-04-01 16:40:00,43.9,35.1,29.70,NE,56,2.0,8.0,71,0.00,,,0.00,VWS V14.01,2013-04-01 20:40:00,
2013-04-01 16:41:00,43.9,35.1,29.70,NNE,27,1.0,5.0,71,0.00,,,0.00,VWS V14.01,2013-04-01 20:41:00,
2013-04-01 16:42:00,44.0,35.2,29.70,ESE,111,1.0,5.0,71,0.00,,,0.00,VWS V14.01,2013-04-01 20:42:00,
2013-04-01 16:43:00,44.0,35.6,29.70,NW,315,4.0,5.0,72,0.00,,,0.00,VWS V14.01,2013-04-01 20:43:00,
2013-04-01 16:44:00,44.1,35.3,29.70,NNE,22,5.0,11.0,71,0.00,,,0.00,VWS V14.01,2013-04-01 20:44:00,
2013-04-01 16:45:00,44.1,35.3,29.69,WNW,286,0.0,11.0,71,0.00,,,0.00,VWS V14.01,2013-04-01 20:45:00,
2013-04-01 16:46:00,44.1,35.0,29.69,NNW,337,3.0,11.0,70,0.00,,,0.00,VWS V14.01,2013-04-01 20:46:00,
2013-04-01 16:47:00,44.2,35.0,29.69,WNW,292,2.0,11.0,70,0.00,,,0.00,VWS V14.01,2013-04-01 20:47:00,
2013-04-01 16:48:00,44.2,35.0,29.69,NW,321,2.0,11.0,70,0.00,,,0.00,VWS V14.01,2013-04-01 20:48:00,
2013-04-01 16:49:00,44.2,35.0,29.69,NW,321,0.0,11.0,70,0.00,,,0.00,VWS V14.01,2013-04-01 20:49:00,
2013-04-01 16:50:00,44.3,35.2,29.69,NW,308,7.0,11.0,70,0.00,,,0.00,VWS V14.01,2013-04-01 20:50:00,
2013-04-01 16:51:00,44.3,35.2,29.69,NNE,33,2.0,8.0,70,0.00,,,0.00,VWS V14.01,2013-04-01 20:51:00,
2013-04-01 16:52:00,44.3,34.8,29.69,West,280,3.0,8.0,69,0.00,,,0.00,VWS V14.01,2013-04-01 20:52:00,
2013-04-01 16:53:00,44.3,34.8,29.69,West,281,1.0,8.0,69,0.00,,,0.00,VWS V14.01,2013-04-01 20:53:00,
2013-04-01 16:54:00,44.4,34.9,29.69,WNW,294,0.0,8.0,69,0.00,,,0.00,VWS V14.01,2013-04-01 20:54:00,
2013-04-01 16:55:00,44.4,34.9,29.69,WNW,294,0.0,8.0,69,0.00,,,0.00,VWS V14.01,2013-04-01 20:55:00,
2013-04-01 16:56:00,44.5,35.0,29.69,WSW,254,4.0,9.0,69,0.00,,,0.00,VWS V14.01,2013-04-01 20:56:00,
2013-04-01 16:57:00,44.5,35.0,29.69,West,271,2.0,9.0,69,0.00,,,0.00,VWS V14.01,2013-04-01 20:57:00,
2013-04-01 16:58:00,44.5,34.6,29.69,NNE,32,3.0,9.0,68,0.00,,,0.00,VWS V14.01,2013-04-01 20:58:00,
2013-04-01 16:59:00,44.6,34.7,29.69,East,80,5.0,9.0,68,0.00,,,0.00,VWS V14.01,2013-04-01 20:59:00,
2013-04-01 17:00:00,44.6,34.7,29.69,East,80,1.0,9.0,68,0.00,,,0.00,VWS V14.01,2013-04-01 21:00:00,
2013-04-01 17:01:00,44.7,34.8,29.69,NNW,330,2.0,4.0,68,0.00,,,0.00,VWS V14.01,2013-04-01 21:01:00,
2013-04-01 17:02:00,44.7,34.8,29.69,East,93,3.0,4.0,68,0.00,,,0.00,VWS V14.01,2013-04-01 21:02:00,
2013-04-01 17:03:00,44.8,34.5,29.69,NE,42,2.0,8.0,67,0.00,,,0.00,VWS V14.01,2013-04-01 21:03:00,
2013-04-01 17:04:00,44.9,34.2,29.69,NNW,342,2.0,8.0,66,0.00,,,0.00,VWS V14.01,2013-04-01 21:04:00,
2013-04-01 17:05:00,44.9,34.2,29.69,NW,320,4.0,8.0,66,0.00,,,0.00,VWS V14.01,2013-04-01 21:05:00,
2013-04-01 17:06:00,45.1,34.4,29.69,West,267,7.0,8.0,66,0.00,,,0.00,VWS V14.01,2013-04-01 21:06:00,
2013-04-01 17:07:00,45.1,34.0,29.69,West,259,2.0,8.0,65,0.00,,,0.00,VWS V14.01,2013-04-01 21:07:00,
2013-04-01 17:08:00,45.3,33.9,29.69,NW,304,1.0,8.0,64,0.00,,,0.00,VWS V14.01,2013-04-01 21:08:00,
2013-04-01 17:09:00,45.4,34.0,29.69,NW,311,5.0,8.0,64,0.00,,,0.00,VWS V14.01,2013-04-01 21:09:00,
2013-04-01 17:10:00,45.5,34.0,29.69,NW,321,2.0,8.0,64,0.00,,,0.00,VWS V14.01,2013-04-01 21:10:00,
2013-04-01 17:11:00,45.6,33.8,29.69,NW,325,2.0,3.0,63,0.00,,,0.00,VWS V14.01,2013-04-01 21:11:00,
2013-04-01 17:12:00,45.7,33.8,29.69,West,269,3.0,8.0,63,0.00,,,0.00,VWS V14.01,2013-04-01 21:12:00,
2013-04-01 17:13:00,45.8,33.5,29.69,NW,314,2.0,8.0,62,0.00,,,0.00,VWS V14.01,2013-04-01 21:13:00,
2013-04-01 17:14:00,45.8,33.5,29.69,WNW,287,0.0,8.0,62,0.00,,,0.00,VWS V14.01,2013-04-01 21:14:00,
2013-04-01 17:15:00,45.9,33.2,29.69,WNW,292,0.0,8.0,61,0.00,,,0.00,VWS V14.01,2013-04-01 21:15:00,
2013-04-01 17:16:00,45.9,33.2,29.69,NW,322,5.0,8.0,61,0.00,,,0.00,VWS V14.01,2013-04-01 21:16:00,
2013-04-01 17:17:00,46.0,33.3,29.69,WNW,287,3.0,8.0,61,0.00,,,0.00,VWS V14.01,2013-04-01 21:17:00,
2013-04-01 17:18:00,46.0,32.9,29.69,NW,313,5.0,8.0,60,0.00,,,0.00,VWS V14.01,2013-04-01 21:18:00,
2013-04-01 17:19:00,46.0,32.9,29.69,NNW,328,2.0,9.0,60,0.00,,,0.00,VWS V14.01,2013-04-01 21:19:00,
2013-04-01 17:20:00,46.0,32.5,29.69,NNW,331,0.0,9.0,59,0.00,,,0.00,VWS V14.01,2013-04-01 21:20:00,
2013-04-01 17:21:00,46.0,32.5,29.69,NW,305,5.0,5.0,59,0.00,,,0.00,VWS V14.01,2013-04-01 21:21:00,
2013-04-01 17:22:00,46.1,32.6,29.69,SSW,207,2.0,5.0,59,0.00,,,0.00,VWS V14.01,2013-04-01 21:22:00,
2013-04-01 17:23:00,46.1,32.6,29.69,North,9,6.0,8.0,59,0.00,,,0.00,VWS V14.01,2013-04-01 21:23:00,
2013-04-01 17:24:00,46.1,32.2,29.69,North,355,8.0,8.0,58,0.00,,,0.00,VWS V14.01,2013-04-01 21:24:00,
2013-04-01 17:25:00,46.1,32.2,29.69,WNW,292,5.0,8.0,58,0.00,,,0.00,VWS V14.01,2013-04-01 21:25:00,
2013-04-01 17:26:00,46.1,32.2,29.69,West,273,11.0,11.0,58,0.00,,,0.00,VWS V14.01,2013-04-01 21:26:00,
2013-04-01 17:27:00,46.2,32.2,29.69,West,279,5.0,11.0,58,0.00,,,0.00,VWS V14.01,2013-04-01 21:27:00,
2013-04-01 17:28:00,46.2,31.8,29.69,West,280,1.0,11.0,57,0.00,,,0.00,VWS V14.01,2013-04-01 21:28:00,
2013-04-01 17:29:00,46.2,31.8,29.69,NNW,335,2.0,11.0,57,0.00,,,0.00,VWS V14.01,2013-04-01 21:29:00,
2013-04-01 17:30:00,46.2,31.4,29.70,NNW,330,0.0,11.0,56,0.00,,,0.00,VWS V14.01,2013-04-01 21:30:00,
2013-04-01 17:31:00,46.2,31.8,29.70,WSW,237,1.0,2.0,57,0.00,,,0.00,VWS V14.01,2013-04-01 21:31:00,
2013-04-01 17:32:00,46.2,31.8,29.70,West,259,8.0,8.0,57,0.00,,,0.00,VWS V14.01,2013-04-01 21:32:00,
2013-04-01 17:33:00,46.2,31.8,29.70,WSW,238,1.0,8.0,57,0.00,,,0.00,VWS V14.01,2013-04-01 21:33:00,
2013-04-01 17:34:00,46.3,31.5,29.70,WSW,237,0.0,8.0,56,0.00,,,0.00,VWS V14.01,2013-04-01 21:34:00,
2013-04-01 17:35:00,46.3,31.5,29.70,SE,130,4.0,8.0,56,0.00,,,0.00,VWS V14.01,2013-04-01 21:35:00,
2013-04-01 17:36:00,46.3,31.0,29.70,SSW,200,4.0,8.0,55,0.00,,,0.00,VWS V14.01,2013-04-01 21:36:00,
2013-04-01 17:37:00,46.3,31.0,29.70,WSW,248,11.0,11.0,55,0.00,,,0.00,VWS V14.01,2013-04-01 21:37:00,
2013-04-01 17:38:00,46.3,30.6,29.70,West,277,7.0,11.0,54,0.00,,,0.00,VWS V14.01,2013-04-01 21:38:00,
2013-04-01 17:39:00,46.4,30.2,29.70,WSW,258,4.0,11.0,53,0.00,,,0.00,VWS V14.01,2013-04-01 21:39:00,
2013-04-01 17:40:00,46.4,30.2,29.70,NNW,343,5.0,11.0,53,0.00,,,0.00,VWS V14.01,2013-04-01 21:40:00,
2013-04-01 17:41:00,46.5,30.3,29.70,NW,316,4.0,4.0,53,0.00,,,0.00,VWS V14.01,2013-04-01 21:41:00,
2013-04-01 17:42:00,46.5,30.3,29.70,West,270,8.0,8.0,53,0.00,,,0.00,VWS V14.01,2013-04-01 21:42:00,
2013-04-01 17:43:00,46.5,29.8,29.70,WSW,244,3.0,8.0,52,0.00,,,0.00,VWS V14.01,2013-04-01 21:43:00,
2013-04-01 17:44:00,46.6,30.4,29.70,WNW,286,2.0,8.0,53,0.00,,,0.00,VWS V14.01,2013-04-01 21:44:00,
2013-04-01 17:45:00,46.6,29.9,29.70,WNW,285,2.0,8.0,52,0.00,,,0.00,VWS V14.01,2013-04-01 21:45:00,
2013-04-01 17:46:00,46.6,29.5,29.70,NW,312,5.0,8.0,51,0.00,,,0.00,VWS V14.01,2013-04-01 21:46:00,
2013-04-01 17:47:00,46.6,29.5,29.70,West,280,12.0,12.0,51,0.00,,,0.00,VWS V14.01,2013-04-01 21:47:00,
2013-04-01 17:48:00,46.6,28.0,29.70,WNW,302,2.0,12.0,48,0.00,,,0.00,VWS V14.01,2013-04-01 21:48:00,
2013-04-01 17:49:00,46.7,27.6,29.70,WNW,283,4.0,14.0,47,0.00,,,0.00,VWS V14.01,2013-04-01 21:49:00,
2013-04-01 17:50:00,46.7,27.6,29.70,WSW,240,8.0,14.0,47,0.00,,,0.00,VWS V14.01,2013-04-01 21:50:00,
2013-04-01 17:51:00,46.7,27.0,29.70,WSW,248,3.0,8.0,46,0.00,,,0.00,VWS V14.01,2013-04-01 21:51:00,
2013-04-01 17:52:00,46.7,26.5,29.70,East,80,6.0,8.0,45,0.00,,,0.00,VWS V14.01,2013-04-01 21:52:00,
2013-04-01 17:53:00,46.7,26.0,29.70,ENE,74,3.0,8.0,44,0.00,,,0.00,VWS V14.01,2013-04-01 21:53:00,
2013-04-01 17:54:00,46.7,26.0,29.70,NW,313,12.0,12.0,44,0.00,,,0.00,VWS V14.01,2013-04-01 21:54:00,
2013-04-01 17:55:00,46.7,26.0,29.70,WSW,252,18.0,18.0,44,0.00,,,0.00,VWS V14.01,2013-04-01 21:55:00,
2013-04-01 17:56:00,46.8,24.9,29.70,SSW,212,7.0,18.0,42,0.00,,,0.00,VWS V14.01,2013-04-01 21:56:00,
2013-04-01 17:57:00,46.8,24.4,29.70,West,269,1.0,18.0,41,0.00,,,0.00,VWS V14.01,2013-04-01 21:57:00,
2013-04-01 17:58:00,46.8,24.4,29.70,SW,233,7.0,18.0,41,0.00,,,0.00,VWS V14.01,2013-04-01 21:58:00,
2013-04-01 17:59:00,46.8,24.4,29.70,WSW,240,5.0,18.0,41,0.00,,,0.00,VWS V14.01,2013-04-01 21:59:00,
2013-04-01 18:00:00,46.8,24.4,29.71,South,182,11.0,18.0,41,0.00,,,0.00,VWS V14.01,2013-04-01 22:00:00,
2013-04-01 18:01:00,46.8,23.8,29.71,WSW,258,11.0,11.0,40,0.00,,,0.00,VWS V14.01,2013-04-01 22:01:00,
2013-04-01 18:02:00,46.8,23.8,29.71,West,262,4.0,11.0,40,0.00,,,0.00,VWS V14.01,2013-04-01 22:02:00,
2013-04-01 18:03:00,46.8,23.8,29.71,WNW,295,7.0,11.0,40,0.00,,,0.00,VWS V14.01,2013-04-01 22:03:00,
2013-04-01 18:04:00,46.8,23.2,29.71,WNW,288,7.0,11.0,39,0.00,,,0.00,VWS V14.01,2013-04-01 22:04:00,
2013-04-01 18:05:00,46.7,23.1,29.71,WSW,249,8.0,11.0,39,0.00,,,0.00,VWS V14.01,2013-04-01 22:05:00,
2013-04-01 18:06:00,46.7,22.5,29.71,SW,236,9.0,13.0,38,0.00,,,0.00,VWS V14.01,2013-04-01 22:06:00,
2013-04-01 18:07:00,46.7,22.5,29.71,NW,309,2.0,15.0,38,0.00,,,0.00,VWS V14.01,2013-04-01 22:07:00,
2013-04-01 18:08:00,46.7,21.8,29.71,SSW,192,3.0,15.0,37,0.00,,,0.00,VWS V14.01,2013-04-01 22:08:00,
2013-04-01 18:09:00,46.6,22.4,29.71,WSW,254,8.0,15.0,38,0.00,,,0.00,VWS V14.01,2013-04-01 22:09:00,
2013-04-01 18:10:00,46.6,21.7,29.71,WNW,288,3.0,15.0,37,0.00,,,0.00,VWS V14.01,2013-04-01 22:10:00,
2013-04-01 18:11:00,46.5,21.6,29.71,WSW,244,6.0,13.0,37,0.00,,,0.00,VWS V14.01,2013-04-01 22:11:00,
2013-04-01 18:12:00,46.5,21.6,29.71,West,277,5.0,13.0,37,0.00,,,0.00,VWS V14.01,2013-04-01 22:12:00,
2013-04-01 18:13:00,46.4,21.6,29.71,North,10,2.0,13.0,37,0.00,,,0.00,VWS V14.01,2013-04-01 22:13:00,
2013-04-01 18:14:00,46.4,21.6,29.71,West,261,8.0,14.0,37,0.00,,,0.00,VWS V14.01,2013-04-01 22:14:00,
2013-04-01 18:15:00,46.3,21.5,29.72,WSW,254,7.0,14.0,37,0.00,,,0.00,VWS V14.01,2013-04-01 22:15:00,
2013-04-01 18:16:00,46.3,21.5,29.72,NNW,327,1.0,14.0,37,0.00,,,0.00,VWS V14.01,2013-04-01 22:16:00,
2013-04-01 18:17:00,46.3,21.5,29.72,WNW,286,7.0,14.0,37,0.00,,,0.00,VWS V14.01,2013-04-01 22:17:00,
2013-04-01 18:18:00,46.3,21.5,29.72,WNW,294,4.0,14.0,37,0.00,,,0.00,VWS V14.01,2013-04-01 22:18:00,
2013-04-01 18:19:00,46.2,21.4,29.72,NNE,22,2.0,14.0,37,0.00,,,0.00,VWS V14.01,2013-04-01 22:19:00,
2013-04-01 18:20:00,46.2,21.4,29.72,SSE,163,3.0,14.0,37,0.00,,,0.00,VWS V14.01,2013-04-01 22:20:00,
2013-04-01 18:21:00,46.1,21.3,29.72,SSE,148,3.0,10.0,37,0.00,,,0.00,VWS V14.01,2013-04-01 22:21:00,
2013-04-01 18:22:00,46.1,21.3,29.72,NW,316,4.0,10.0,37,0.00,,,0.00,VWS V14.01,2013-04-01 22:22:00,
2013-04-01 18:23:00,46.0,21.2,29.72,West,277,4.0,10.0,37,0.00,,,0.00,VWS V14.01,2013-04-01 22:23:00,
2013-04-01 18:24:00,46.0,20.6,29.72,NW,326,3.0,10.0,36,0.00,,,0.00,VWS V14.01,2013-04-01 22:24:00,
2013-04-01 18:25:00,46.0,20.6,29.72,WNW,294,3.0,10.0,36,0.00,,,0.00,VWS V14.01,2013-04-01 22:25:00,
2013-04-01 18:26:00,46.0,19.9,29.72,WSW,248,9.0,16.0,35,0.00,,,0.00,VWS V14.01,2013-04-01 22:26:00,
2013-04-01 18:27:00,45.9,19.8,29.72,NW,304,2.0,16.0,35,0.00,,,0.00,VWS V14.01,2013-04-01 22:27:00,
2013-04-01 18:28:00,45.8,19.7,29.72,SW,227,5.0,16.0,35,0.00,,,0.00,VWS V14.01,2013-04-01 22:28:00,
2013-04-01 18:29:00,45.8,20.4,29.72,East,86,2.0,16.0,36,0.00,,,0.00,VWS V14.01,2013-04-01 22:29:00,
2013-04-01 18:30:00,45.8,20.4,29.72,NNW,336,9.0,16.0,36,0.00,,,0.00,VWS V14.01,2013-04-01 22:30:00,
2013-04-01 18:31:00,45.7,19.6,29.72,West,267,4.0,12.0,35,0.00,,,0.00,VWS V14.01,2013-04-01 22:31:00,
2013-04-01 18:32:00,45.6,19.5,29.72,SW,225,5.0,12.0,35,0.00,,,0.00,VWS V14.01,2013-04-01 22:32:00,
2013-04-01 18:33:00,45.6,18.9,29.72,WSW,238,3.0,12.0,34,0.00,,,0.00,VWS V14.01,2013-04-01 22:33:00,
2013-04-01 18:34:00,45.6,18.9,29.72,NW,315,10.0,12.0,34,0.00,,,0.00,VWS V14.01,2013-04-01 22:34:00,
2013-04-01 18:35:00,45.5,18.8,29.72,West,281,2.0,12.0,34,0.00,,,0.00,VWS V14.01,2013-04-01 22:35:00,
2013-04-01 18:36:00,45.5,19.5,29.72,WSW,257,3.0,14.0,35,0.00,,,0.00,VWS V14.01,2013-04-01 22:36:00,
2013-04-01 18:37:00,45.4,19.4,29.72,SSE,159,0.0,14.0,35,0.00,,,0.00,VWS V14.01,2013-04-01 22:37:00,
2013-04-01 18:38:00,45.4,19.4,29.72,NW,310,7.0,14.0,35,0.00,,,0.00,VWS V14.01,2013-04-01 22:38:00,
2013-04-01 18:39:00,45.4,19.4,29.72,WNW,291,0.0,14.0,35,0.00,,,0.00,VWS V14.01,2013-04-01 22:39:00,
2013-04-01 18:40:00,45.3,19.3,29.72,WSW,250,13.0,14.0,35,0.00,,,0.00,VWS V14.01,2013-04-01 22:40:00,
2013-04-01 18:41:00,45.3,19.3,29.72,NW,308,5.0,13.0,35,0.00,,,0.00,VWS V14.01,2013-04-01 22:41:00,
2013-04-01 18:42:00,45.2,19.2,29.72,WSW,251,8.0,13.0,35,0.00,,,0.00,VWS V14.01,2013-04-01 22:42:00,
2013-04-01 18:43:00,45.2,19.2,29.72,West,261,5.0,13.0,35,0.00,,,0.00,VWS V14.01,2013-04-01 22:43:00,
2013-04-01 18:44:00,45.2,19.2,29.72,WNW,300,11.0,13.0,35,0.00,,,0.00,VWS V14.01,2013-04-01 22:44:00,
2013-04-01 18:45:00,45.1,19.8,29.73,WSW,243,11.0,13.0,36,0.00,,,0.00,VWS V14.01,2013-04-01 22:45:00,
2013-04-01 18:46:00,45.1,19.8,29.73,NW,322,0.0,13.0,36,0.00,,,0.00,VWS V14.01,2013-04-01 22:46:00,
2013-04-01 18:47:00,45.1,19.8,29.73,SW,225,3.0,13.0,36,0.00,,,0.00,VWS V14.01,2013-04-01 22:47:00,
2013-04-01 18:48:00,45.0,19.7,29.73,South,178,1.0,13.0,36,0.00,,,0.00,VWS V14.01,2013-04-01 22:48:00,
2013-04-01 18:49:00,45.0,20.3,29.73,WSW,252,6.0,13.0,37,0.00,,,0.00,VWS V14.01,2013-04-01 22:49:00,
2013-04-01 18:50:00,45.0,20.3,29.73,WSW,256,1.0,13.0,37,0.00,,,0.00,VWS V14.01,2013-04-01 22:50:00,
2013-04-01 18:51:00,44.9,20.2,29.73,WSW,255,2.0,4.0,37,0.00,,,0.00,VWS V14.01,2013-04-01 22:51:00,
2013-04-01 18:52:00,44.9,20.2,29.73,WSW,252,5.0,6.0,37,0.00,,,0.00,VWS V14.01,2013-04-01 22:52:00,
2013-04-01 18:53:00,44.9,20.2,29.73,WSW,252,0.0,6.0,37,0.00,,,0.00,VWS V14.01,2013-04-01 22:53:00,
2013-04-01 18:54:00,44.9,20.2,29.73,SW,232,1.0,6.0,37,0.00,,,0.00,VWS V14.01,2013-04-01 22:54:00,
2013-04-01 18:55:00,44.8,20.8,29.73,SW,232,0.0,6.0,38,0.00,,,0.00,VWS V14.01,2013-04-01 22:55:00,
2013-04-01 18:56:00,44.8,20.8,29.73,SW,232,1.0,6.0,38,0.00,,,0.00,VWS V14.01,2013-04-01 22:56:00,
2013-04-01 18:57:00,44.8,20.8,29.73,NNW,332,3.0,6.0,38,0.00,,,0.00,VWS V14.01,2013-04-01 22:57:00,
2013-04-01 18:58:00,44.7,20.7,29.73,ENE,61,2.0,6.0,38,0.00,,,0.00,VWS V14.01,2013-04-01 22:58:00,
2013-04-01 18:59:00,44.7,20.7,29.73,SSW,211,0.0,6.0,38,0.00,,,0.00,VWS V14.01,2013-04-01 22:59:00,
2013-04-01 19:00:00,44.7,21.3,29.74,WSW,242,1.0,6.0,39,0.00,,,0.00,VWS V14.01,2013-04-01 23:00:00,
2013-04-01 19:01:00,44.6,21.2,29.74,NW,319,7.0,10.0,39,0.00,,,0.00,VWS V14.01,2013-04-01 23:01:00,
2013-04-01 19:02:00,44.5,20.5,29.74,WNW,300,2.0,10.0,38,0.00,,,0.00,VWS V14.01,2013-04-01 23:02:00,
2013-04-01 19:03:00,44.5,21.1,29.74,WNW,300,0.0,10.0,39,0.00,,,0.00,VWS V14.01,2013-04-01 23:03:00,
2013-04-01 19:04:00,44.4,21.0,29.74,SSW,209,3.0,10.0,39,0.00,,,0.00,VWS V14.01,2013-04-01 23:04:00,
2013-04-01 19:05:00,44.4,21.0,29.74,West,269,2.0,10.0,39,0.00,,,0.00,VWS V14.01,2013-04-01 23:05:00,
2013-04-01 19:06:00,44.3,21.5,29.74,West,281,9.0,10.0,40,0.00,,,0.00,VWS V14.01,2013-04-01 23:06:00,
2013-04-01 19:07:00,44.2,20.8,29.74,West,281,2.0,10.0,39,0.00,,,0.00,VWS V14.01,2013-04-01 23:07:00,
2013-04-01 19:08:00,44.1,20.7,29.74,ENE,58,8.0,10.0,39,0.00,,,0.00,VWS V14.01,2013-04-01 23:08:00,
2013-04-01 19:09:00,44.1,21.3,29.74,NE,45,3.0,10.0,40,0.00,,,0.00,VWS V14.01,2013-04-01 23:09:00,
2013-04-01 19:10:00,44.0,21.2,29.74,NW,315,1.0,10.0,40,0.00,,,0.00,VWS V14.01,2013-04-01 23:10:00,
2013-04-01 19:11:00,43.9,21.2,29.74,NE,45,4.0,13.0,40,0.00,,,0.00,VWS V14.01,2013-04-01 23:11:00,
2013-04-01 19:12:00,43.8,20.5,29.74,NNE,13,2.0,13.0,39,0.00,,,0.00,VWS V14.01,2013-04-01 23:12:00,
2013-04-01 19:13:00,43.8,21.1,29.74,West,275,1.0,13.0,40,0.00,,,0.00,VWS V14.01,2013-04-01 23:13:00,
2013-04-01 19:14:00,43.7,21.0,29.74,NNE,21,0.0,13.0,40,0.00,,,0.00,VWS V14.01,2013-04-01 23:14:00,
2013-04-01 19:15:00,43.6,20.9,29.76,NW,318,3.0,13.0,40,0.00,,,0.00,VWS V14.01,2013-04-01 23:15:00,
2013-04-01 19:16:00,43.6,20.9,29.76,East,80,3.0,13.0,40,0.00,,,0.00,VWS V14.01,2013-04-01 23:16:00,
2013-04-01 19:17:00,43.5,20.8,29.76,NNE,19,0.0,13.0,40,0.00,,,0.00,VWS V14.01,2013-04-01 23:17:00,
2013-04-01 19:18:00,43.5,20.8,29.76,SW,236,0.0,13.0,40,0.00,,,0.00,VWS V14.01,2013-04-01 23:18:00,
2013-04-01 19:19:00,43.4,20.7,29.76,East,85,3.0,13.0,40,0.00,,,0.00,VWS V14.01,2013-04-01 23:19:00,
2013-04-01 19:20:00,43.4,21.3,29.76,North,355,3.0,13.0,41,0.00,,,0.00,VWS V14.01,2013-04-01 23:20:00,
2013-04-01 19:21:00,43.3,20.6,29.76,North,9,1.0,3.0,40,0.00,,,0.00,VWS V14.01,2013-04-01 23:21:00,
2013-04-01 19:22:00,43.3,20.6,29.76,NW,304,2.0,3.0,40,0.00,,,0.00,VWS V14.01,2013-04-01 23:22:00,
2013-04-01 19:23:00,43.2,21.1,29.76,NE,47,3.0,13.0,41,0.00,,,0.00,VWS V14.01,2013-04-01 23:23:00,
2013-04-01 19:24:00,43.1,21.0,29.76,WSW,254,2.0,13.0,41,0.00,,,0.00,VWS V14.01,2013-04-01 23:24:00,
2013-04-01 19:25:00,43.1,21.0,29.76,West,272,5.0,13.0,41,0.00,,,0.00,VWS V14.01,2013-04-01 23:25:00,
2013-04-01 19:26:00,43.0,20.4,29.76,NW,319,13.0,13.0,40,0.00,,,0.00,VWS V14.01,2013-04-01 23:26:00,
2013-04-01 19:27:00,42.9,20.8,29.76,NNE,13,1.0,13.0,41,0.00,,,0.00,VWS V14.01,2013-04-01 23:27:00,
2013-04-01 19:28:00,42.8,20.8,29.76,NW,320,1.0,13.0,41,0.00,,,0.00,VWS V14.01,2013-04-01 23:28:00,
2013-04-01 19:29:00,42.7,20.7,29.76,NW,311,5.0,13.0,41,0.00,,,0.00,VWS V14.01,2013-04-01 23:29:00,
2013-04-01 19:30:00,42.7,20.7,29.77,NW,306,2.0,13.0,41,0.00,,,0.00,VWS V14.01,2013-04-01 23:30:00,
2013-04-01 19:31:00,42.6,20.0,29.77,WSW,248,1.0,7.0,40,0.00,,,0.00,VWS V14.01,2013-04-01 23:31:00,
2013-04-01 19:32:00,42.5,19.9,29.77,NNE,14,5.0,10.0,40,0.00,,,0.00,VWS V14.01,2013-04-01 23:32:00,
2013-04-01 19:33:00,42.5,20.5,29.77,SW,234,4.0,10.0,41,0.00,,,0.00,VWS V14.01,2013-04-01 23:33:00,
2013-04-01 19:34:00,42.4,20.4,29.77,SSW,203,1.0,10.0,41,0.00,,,0.00,VWS V14.01,2013-04-01 23:34:00,
2013-04-01 19:35:00,42.3,20.3,29.77,NE,35,0.0,10.0,41,0.00,,,0.00,VWS V14.01,2013-04-01 23:35:00,
2013-04-01 19:36:00,42.3,20.3,29.77,ENE,71,2.0,10.0,41,0.00,,,0.00,VWS V14.01,2013-04-01 23:36:00,
2013-04-01 19:37:00,42.2,20.2,29.77,WNW,288,2.0,14.0,41,0.00,,,0.00,VWS V14.01,2013-04-01 23:37:00,
2013-04-01 19:38:00,42.2,20.2,29.77,North,11,0.0,14.0,41,0.00,,,0.00,VWS V14.01,2013-04-01 23:38:00,
2013-04-01 19:39:00,42.1,20.7,29.77,NW,315,10.0,14.0,42,0.00,,,0.00,VWS V14.01,2013-04-01 23:39:00,
2013-04-01 19:40:00,42.0,20.0,29.77,NNW,348,4.0,14.0,41,0.00,,,0.00,VWS V14.01,2013-04-01 23:40:00,
2013-04-01 19:41:00,41.9,19.9,29.77,NE,49,2.0,8.0,41,0.00,,,0.00,VWS V14.01,2013-04-01 23:41:00,
2013-04-01 19:42:00,41.8,20.4,29.77,NW,318,0.0,8.0,42,0.00,,,0.00,VWS V14.01,2013-04-01 23:42:00,
2013-04-01 19:43:00,41.8,20.4,29.77,NNE,32,5.0,8.0,42,0.00,,,0.00,VWS V14.01,2013-04-01 23:43:00,
2013-04-01 19:44:00,41.8,20.4,29.77,NE,35,0.0,8.0,42,0.00,,,0.00,VWS V14.01,2013-04-01 23:44:00,
2013-04-01 19:45:00,41.7,20.9,29.78,NE,35,0.0,8.0,43,0.00,,,0.00,VWS V14.01,2013-04-01 23:45:00,
2013-04-01 19:46:00,41.6,20.8,29.78,NW,310,4.0,9.0,43,0.00,,,0.00,VWS V14.01,2013-04-01 23:46:00,
2013-04-01 19:47:00,41.6,20.2,29.78,WNW,292,1.0,9.0,42,0.00,,,0.00,VWS V14.01,2013-04-01 23:47:00,
2013-04-01 19:48:00,41.5,20.7,29.78,ENE,67,4.0,9.0,43,0.00,,,0.00,VWS V14.01,2013-04-01 23:48:00,
2013-04-01 19:49:00,41.5,20.7,29.78,NW,313,5.0,9.0,43,0.00,,,0.00,VWS V14.01,2013-04-01 23:49:00,
2013-04-01 19:50:00,41.4,20.6,29.78,SW,221,4.0,9.0,43,0.00,,,0.00,VWS V14.01,2013-04-01 23:50:00,
2013-04-01 19:51:00,41.3,20.5,29.78,East,90,2.0,3.0,43,0.00,,,0.00,VWS V14.01,2013-04-01 23:51:00,
2013-04-01 19:52:00,41.2,20.4,29.78,East,95,1.0,6.0,43,0.00,,,0.00,VWS V14.01,2013-04-01 23:52:00,
2013-04-01 19:53:00,41.1,20.3,29.78,East,95,2.0,6.0,43,0.00,,,0.00,VWS V14.01,2013-04-01 23:53:00,
2013-04-01 19:54:00,41.1,20.9,29.78,NNE,30,5.0,13.0,44,0.00,,,0.00,VWS V14.01,2013-04-01 23:54:00,
2013-04-01 19:55:00,41.0,20.8,29.78,NNE,24,3.0,13.0,44,0.00,,,0.00,VWS V14.01,2013-04-01 23:55:00,
2013-04-01 19:56:00,40.9,20.1,29.78,NNW,343,2.0,13.0,43,0.00,,,0.00,VWS V14.01,2013-04-01 23:56:00,
2013-04-01 19:57:00,40.8,20.6,29.78,SW,217,8.0,13.0,44,0.00,,,0.00,VWS V14.01,2013-04-01 23:57:00,
2013-04-01 19:58:00,40.7,20.5,29.78,NNE,24,3.0,13.0,44,0.00,,,0.00,VWS V14.01,2013-04-01 23:58:00,
2013-04-01 19:59:00,40.7,20.5,29.78,NE,36,4.0,13.0,44,0.00,,,0.00,VWS V14.01,2013-04-01 23:59:00,
2013-04-01 20:00:00,40.6,20.4,29.79,NNE,29,7.0,13.0,44,0.00,,,0.00,VWS V14.01,2013-04-02 00:00:00,
2013-04-01 20:01:00,40.5,20.3,29.79,NNW,344,0.0,7.0,44,0.00,,,0.00,VWS V14.01,2013-04-02 00:01:00,
2013-04-01 20:02:00,40.4,19.7,29.79,ENE,58,5.0,11.0,43,0.00,,,0.00,VWS V14.01,2013-04-02 00:02:00,
2013-04-01 20:03:00,40.4,19.7,29.79,West,264,9.0,16.0,43,0.00,,,0.00,VWS V14.01,2013-04-02 00:03:00,
2013-04-01 20:04:00,40.3,19.6,29.79,NE,36,9.0,16.0,43,0.00,,,0.00,VWS V14.01,2013-04-02 00:04:00,
2013-04-01 20:05:00,40.2,19.5,29.79,NW,306,1.0,16.0,43,0.00,,,0.00,VWS V14.01,2013-04-02 00:05:00,
2013-04-01 20:06:00,40.2,19.5,29.79,WNW,302,6.0,16.0,43,0.00,,,0.00,VWS V14.01,2013-04-02 00:06:00,
2013-04-01 20:07:00,40.0,19.9,29.79,NE,42,4.0,16.0,44,0.00,,,0.00,VWS V14.01,2013-04-02 00:07:00,
2013-04-01 20:08:00,40.0,19.9,29.79,NE,42,2.0,16.0,44,0.00,,,0.00,VWS V14.01,2013-04-02 00:08:00,
2013-04-01 20:09:00,40.0,19.3,29.79,NE,42,1.0,16.0,43,0.00,,,0.00,VWS V14.01,2013-04-02 00:09:00,
2013-04-01 20:10:00,39.9,19.2,29.79,NE,36,2.0,16.0,43,0.00,,,0.00,VWS V14.01,2013-04-02 00:10:00,
2013-04-01 20:11:00,39.8,19.1,29.79,NNW,346,1.0,8.0,43,0.00,,,0.00,VWS V14.01,2013-04-02 00:11:00,
2013-04-01 20:12:00,39.8,19.7,29.79,NNW,347,1.0,8.0,44,0.00,,,0.00,VWS V14.01,2013-04-02 00:12:00,
2013-04-01 20:13:00,39.7,19.6,29.79,NNW,340,2.0,8.0,44,0.00,,,0.00,VWS V14.01,2013-04-02 00:13:00,
2013-04-01 20:14:00,39.7,19.6,29.79,NNW,331,3.0,8.0,44,0.00,,,0.00,VWS V14.01,2013-04-02 00:14:00,
2013-04-01 20:15:00,39.6,19.5,29.81,NNW,331,3.0,8.0,44,0.00,,,0.00,VWS V14.01,2013-04-02 00:15:00,
2013-04-01 20:16:00,39.6,19.5,29.81,NW,322,9.0,9.0,44,0.00,,,0.00,VWS V14.01,2013-04-02 00:16:00,
2013-04-01 20:17:00,39.5,19.4,29.81,NNW,343,2.0,9.0,44,0.00,,,0.00,VWS V14.01,2013-04-02 00:17:00,
2013-04-01 20:18:00,39.5,19.4,29.81,NW,313,0.0,9.0,44,0.00,,,0.00,VWS V14.01,2013-04-02 00:18:00,
2013-04-01 20:19:00,39.4,19.3,29.81,NE,36,6.0,9.0,44,0.00,,,0.00,VWS V14.01,2013-04-02 00:19:00,
2013-04-01 20:20:00,39.3,19.2,29.81,NE,43,10.0,11.0,44,0.00,,,0.00,VWS V14.01,2013-04-02 00:20:00,
2013-04-01 20:21:00,39.2,18.6,29.81,NE,49,1.0,8.0,43,0.00,,,0.00,VWS V14.01,2013-04-02 00:21:00,
2013-04-01 20:22:00,39.2,18.6,29.81,ENE,69,3.0,8.0,43,0.00,,,0.00,VWS V14.01,2013-04-02 00:22:00,
2013-04-01 20:23:00,39.1,18.5,29.81,ENE,73,3.0,8.0,43,0.00,,,0.00,VWS V14.01,2013-04-02 00:23:00,
2013-04-01 20:24:00,39.0,18.4,29.81,NNW,338,6.0,8.0,43,0.00,,,0.00,VWS V14.01,2013-04-02 00:24:00,
2013-04-01 20:25:00,39.0,18.4,29.81,NNW,343,9.0,9.0,43,0.00,,,0.00,VWS V14.01,2013-04-02 00:25:00,
2013-04-01 20:26:00,38.9,18.3,29.81,NW,322,4.0,9.0,43,0.00,,,0.00,VWS V14.01,2013-04-02 00:26:00,
2013-04-01 20:27:00,38.8,18.2,29.81,WNW,299,0.0,9.0,43,0.00,,,0.00,VWS V14.01,2013-04-02 00:27:00,
2013-04-01 20:28:00,38.8,18.2,29.81,ENE,62,4.0,10.0,43,0.00,,,0.00,VWS V14.01,2013-04-02 00:28:00,
2013-04-01 20:29:00,38.7,17.6,29.81,North,11,5.0,10.0,42,0.00,,,0.00,VWS V14.01,2013-04-02 00:29:00,
2013-04-01 20:30:00,38.6,17.5,29.82,NE,40,2.0,10.0,42,0.00,,,0.00,VWS V14.01,2013-04-02 00:30:00,
2013-04-01 20:31:00,38.6,18.0,29.82,NNE,18,7.0,7.0,43,0.00,,,0.00,VWS V14.01,2013-04-02 00:31:00,
2013-04-01 20:32:00,38.5,18.0,29.82,NE,40,7.0,7.0,43,0.00,,,0.00,VWS V14.01,2013-04-02 00:32:00,
2013-04-01 20:33:00,38.5,18.0,29.82,North,355,2.0,7.0,43,0.00,,,0.00,VWS V14.01,2013-04-02 00:33:00,
2013-04-01 20:34:00,38.4,17.9,29.82,NE,37,4.0,7.0,43,0.00,,,0.00,VWS V14.01,2013-04-02 00:34:00,
2013-04-01 20:35:00,38.4,17.3,29.82,NW,317,2.0,7.0,42,0.00,,,0.00,VWS V14.01,2013-04-02 00:35:00,
2013-04-01 20:36:00,38.4,16.8,29.82,NNE,17,2.0,7.0,41,0.00,,,0.00,VWS V14.01,2013-04-02 00:36:00,
2013-04-01 20:37:00,38.3,17.2,29.82,WSW,256,2.0,7.0,42,0.00,,,0.00,VWS V14.01,2013-04-02 00:37:00,
2013-04-01 20:38:00,38.3,17.2,29.82,East,95,6.0,8.0,42,0.00,,,0.00,VWS V14.01,2013-04-02 00:38:00,
2013-04-01 20:39:00,38.2,16.6,29.82,NNW,330,2.0,8.0,41,0.00,,,0.00,VWS V14.01,2013-04-02 00:39:00,
2013-04-01 20:40:00,38.2,17.1,29.82,NNE,26,2.0,8.0,42,0.00,,,0.00,VWS V14.01,2013-04-02 00:40:00,
2013-04-01 20:41:00,38.1,17.0,29.82,SE,142,4.0,5.0,42,0.00,,,0.00,VWS V14.01,2013-04-02 00:41:00,
2013-04-01 20:42:00,38.0,16.4,29.82,NW,311,7.0,7.0,41,0.00,,,0.00,VWS V14.01,2013-04-02 00:42:00,
2013-04-01 20:43:00,38.0,17.0,29.82,NW,315,1.0,13.0,42,0.00,,,0.00,VWS V14.01,2013-04-02 00:43:00,
2013-04-01 20:44:00,38.0,16.4,29.82,NW,318,0.0,13.0,41,0.00,,,0.00,VWS V14.01,2013-04-02 00:44:00,
2013-04-01 20:45:00,37.9,16.3,29.84,WNW,296,3.0,13.0,41,0.00,,,0.00,VWS V14.01,2013-04-02 00:45:00,
2013-04-01 20:46:00,37.8,16.2,29.84,NW,313,3.0,13.0,41,0.00,,,0.00,VWS V14.01,2013-04-02 00:46:00,
2013-04-01 20:47:00,37.8,16.2,29.84,NW,317,0.0,13.0,41,0.00,,,0.00,VWS V14.01,2013-04-02 00:47:00,
2013-04-01 20:48:00,37.7,16.1,29.84,East,83,0.0,13.0,41,0.00,,,0.00,VWS V14.01,2013-04-02 00:48:00,
2013-04-01 20:49:00,37.7,16.1,29.84,NW,310,1.0,13.0,41,0.00,,,0.00,VWS V14.01,2013-04-02 00:49:00,
2013-04-01 20:50:00,37.6,16.0,29.84,NNE,13,5.0,13.0,41,0.00,,,0.00,VWS V14.01,2013-04-02 00:50:00,
2013-04-01 20:51:00,37.6,16.0,29.84,North,11,1.0,5.0,41,0.00,,,0.00,VWS V14.01,2013-04-02 00:51:00,
2013-04-01 20:52:00,37.6,16.0,29.84,NNE,30,3.0,5.0,41,0.00,,,0.00,VWS V14.01,2013-04-02 00:52:00,
2013-04-01 20:53:00,37.6,16.0,29.84,NNW,333,2.0,7.0,41,0.00,,,0.00,VWS V14.01,2013-04-02 00:53:00,
2013-04-01 20:54:00,37.5,16.0,29.84,NNW,329,2.0,7.0,41,0.00,,,0.00,VWS V14.01,2013-04-02 00:54:00,
2013-04-01 20:55:00,37.5,16.5,29.84,WNW,303,0.0,7.0,42,0.00,,,0.00,VWS V14.01,2013-04-02 00:55:00,
2013-04-01 20:56:00,37.5,16.0,29.84,North,5,5.0,7.0,41,0.00,,,0.00,VWS V14.01,2013-04-02 00:56:00,
2013-04-01 20:57:00,37.4,15.9,29.84,WNW,302,0.0,10.0,41,0.00,,,0.00,VWS V14.01,2013-04-02 00:57:00,
2013-04-01 20:58:00,37.3,15.8,29.84,NNW,340,5.0,10.0,41,0.00,,,0.00,VWS V14.01,2013-04-02 00:58:00,
2013-04-01 20:59:00,37.3,15.8,29.84,NW,315,1.0,12.0,41,0.00,,,0.00,VWS V14.01,2013-04-02 00:59:00,
2013-04-01 21:00:00,37.3,15.8,29.84,NW,306,1.0,12.0,41,0.00,,,0.00,VWS V14.01,2013-04-02 01:00:00,
2013-04-01 21:01:00,37.2,15.7,29.84,NNE,15,4.0,5.0,41,0.00,,,0.00,VWS V14.01,2013-04-02 01:01:00,
2013-04-01 21:02:00,37.2,15.1,29.84,SSE,165,3.0,5.0,40,0.00,,,0.00,VWS V14.01,2013-04-02 01:02:00,
2013-04-01 21:03:00,37.1,15.0,29.84,WNW,292,4.0,5.0,40,0.00,,,0.00,VWS V14.01,2013-04-02 01:03:00,
2013-04-01 21:04:00,37.1,15.0,29.84,NNE,19,0.0,11.0,40,0.00,,,0.00,VWS V14.01,2013-04-02 01:04:00,
2013-04-01 21:05:00,37.1,14.4,29.84,North,5,5.0,11.0,39,0.00,,,0.00,VWS V14.01,2013-04-02 01:05:00,
2013-04-01 21:06:00,37.0,14.4,29.84,NE,51,3.0,11.0,39,0.00,,,0.00,VWS V14.01,2013-04-02 01:06:00,
2013-04-01 21:07:00,37.0,14.4,29.84,NE,55,3.0,11.0,39,0.00,,,0.00,VWS V14.01,2013-04-02 01:07:00,
2013-04-01 21:08:00,37.0,14.4,29.84,North,9,3.0,11.0,39,0.00,,,0.00,VWS V14.01,2013-04-02 01:08:00,
2013-04-01 21:09:00,36.9,14.3,29.84,WNW,293,4.0,11.0,39,0.00,,,0.00,VWS V14.01,2013-04-02 01:09:00,
2013-04-01 21:10:00,36.9,14.3,29.84,WNW,293,0.0,11.0,39,0.00,,,0.00,VWS V14.01,2013-04-02 01:10:00,
2013-04-01 21:11:00,36.9,14.3,29.84,South,173,1.0,3.0,39,0.00,,,0.00,VWS V14.01,2013-04-02 01:11:00,
2013-04-01 21:12:00,36.8,14.2,29.84,WNW,300,5.0,7.0,39,0.00,,,0.00,VWS V14.01,2013-04-02 01:12:00,
2013-04-01 21:13:00,36.8,14.2,29.84,NW,321,3.0,10.0,39,0.00,,,0.00,VWS V14.01,2013-04-02 01:13:00,
2013-04-01 21:14:00,36.7,14.1,29.84,NNW,328,0.0,10.0,39,0.00,,,0.00,VWS V14.01,2013-04-02 01:14:00,
2013-04-01 21:15:00,36.7,14.1,29.85,NW,326,2.0,10.0,39,0.00,,,0.00,VWS V14.01,2013-04-02 01:15:00,
2013-04-01 21:16:00,36.7,14.1,29.85,NE,46,6.0,10.0,39,0.00,,,0.00,VWS V14.01,2013-04-02 01:16:00,
2013-04-01 21:17:00,36.6,14.0,29.85,ENE,59,0.0,10.0,39,0.00,,,0.00,VWS V14.01,2013-04-02 01:17:00,
2013-04-01 21:18:00,36.6,14.6,29.85,WNW,292,0.0,10.0,40,0.00,,,0.00,VWS V14.01,2013-04-02 01:18:00,
2013-04-01 21:19:00,36.6,14.6,29.85,SW,223,1.0,10.0,40,0.00,,,0.00,VWS V14.01,2013-04-02 01:19:00,
2013-04-01 21:20:00,36.5,14.5,29.85,NNW,343,1.0,10.0,40,0.00,,,0.00,VWS V14.01,2013-04-02 01:20:00,
2013-04-01 21:21:00,36.5,13.9,29.85,NNW,344,0.0,1.0,39,0.00,,,0.00,VWS V14.01,2013-04-02 01:21:00,
2013-04-01 21:22:00,36.5,13.9,29.85,NNE,24,0.0,3.0,39,0.00,,,0.00,VWS V14.01,2013-04-02 01:22:00,
2013-04-01 21:23:00,36.4,13.8,29.85,NW,304,3.0,3.0,39,0.00,,,0.00,VWS V14.01,2013-04-02 01:23:00,
2013-04-01 21:24:00,36.4,13.8,29.85,North,5,2.0,7.0,39,0.00,,,0.00,VWS V14.01,2013-04-02 01:24:00,
2013-04-01 21:25:00,36.3,13.7,29.85,North,5,0.0,7.0,39,0.00,,,0.00,VWS V14.01,2013-04-02 01:25:00,
2013-04-01 21:26:00,36.3,13.7,29.85,NNW,327,1.0,7.0,39,0.00,,,0.00,VWS V14.01,2013-04-02 01:26:00,
2013-04-01 21:27:00,36.2,14.2,29.85,WSW,257,0.0,7.0,40,0.00,,,0.00,VWS V14.01,2013-04-02 01:27:00,
2013-04-01 21:28:00,36.2,14.2,29.85,WSW,257,1.0,7.0,40,0.00,,,0.00,VWS V14.01,2013-04-02 01:28:00,
2013-04-01 21:29:00,36.2,14.2,29.85,WSW,248,2.0,7.0,40,0.00,,,0.00,VWS V14.01,2013-04-02 01:29:00,
2013-04-01 21:30:00,36.1,14.1,29.85,WNW,287,2.0,7.0,40,0.00,,,0.00,VWS V14.01,2013-04-02 01:30:00,
2013-04-01 21:31:00,36.1,14.1,29.85,North,350,4.0,8.0,40,0.00,,,0.00,VWS V14.01,2013-04-02 01:31:00,
2013-04-01 21:32:00,36.0,14.0,29.85,NNW,340,0.0,8.0,40,0.00,,,0.00,VWS V14.01,2013-04-02 01:32:00,
2013-04-01 21:33:00,36.0,14.0,29.85,NNW,340,0.0,8.0,40,0.00,,,0.00,VWS V14.01,2013-04-02 01:33:00,
2013-04-01 21:34:00,36.0,14.0,29.85,NNW,340,2.0,8.0,40,0.00,,,0.00,VWS V14.01,2013-04-02 01:34:00,
2013-04-01 21:35:00,36.0,14.6,29.85,North,355,2.0,8.0,41,0.00,,,0.00,VWS V14.01,2013-04-02 01:35:00,
2013-04-01 21:36:00,35.9,14.5,29.85,North,355,0.0,8.0,41,0.00,,,0.00,VWS V14.01,2013-04-02 01:36:00,
2013-04-01 21:37:00,35.9,14.5,29.85,North,5,1.0,8.0,41,0.00,,,0.00,VWS V14.01,2013-04-02 01:37:00,
2013-04-01 21:38:00,35.9,14.5,29.85,NW,324,0.0,8.0,41,0.00,,,0.00,VWS V14.01,2013-04-02 01:38:00,
2013-04-01 21:39:00,35.8,14.4,29.85,NW,324,0.0,8.0,41,0.00,,,0.00,VWS V14.01,2013-04-02 01:39:00,
2013-04-01 21:40:00,35.8,14.4,29.85,NW,324,1.0,8.0,41,0.00,,,0.00,VWS V14.01,2013-04-02 01:40:00,
2013-04-01 21:41:00,35.7,14.3,29.85,NNW,336,0.0,6.0,41,0.00,,,0.00,VWS V14.01,2013-04-02 01:41:00,
2013-04-01 21:42:00,35.7,13.8,29.85,North,5,2.0,6.0,40,0.00,,,0.00,VWS V14.01,2013-04-02 01:42:00,
2013-04-01 21:43:00,35.7,14.3,29.85,NNE,24,2.0,6.0,41,0.00,,,0.00,VWS V14.01,2013-04-02 01:43:00,
2013-04-01 21:44:00,35.6,14.2,29.87,NNW,342,1.0,6.0,41,0.00,,,0.00,VWS V14.01,2013-04-02 01:44:00,
2013-04-01 21:45:00,35.6,14.2,29.87,NNW,342,0.0,6.0,41,0.00,,,0.00,VWS V14.01,2013-04-02 01:45:00,
2013-04-01 21:46:00,35.6,14.2,29.87,NNW,342,0.0,6.0,41,0.00,,,0.00,VWS V14.01,2013-04-02 01:46:00,
2013-04-01 21:47:00,35.5,14.1,29.87,NNW,342,1.0,6.0,41,0.00,,,0.00,VWS V14.01,2013-04-02 01:47:00,
2013-04-01 21:48:00,35.5,14.1,29.87,NNW,339,3.0,6.0,41,0.00,,,0.00,VWS V14.01,2013-04-02 01:48:00,
2013-04-01 21:49:00,35.5,14.1,29.87,NNE,15,1.0,6.0,41,0.00,,,0.00,VWS V14.01,2013-04-02 01:49:00,
2013-04-01 21:50:00,35.4,14.6,29.87,NW,315,5.0,6.0,42,0.00,,,0.00,VWS V14.01,2013-04-02 01:50:00,
2013-04-01 21:51:00,35.4,14.1,29.87,NE,37,4.0,5.0,41,0.00,,,0.00,VWS V14.01,2013-04-02 01:51:00,
2013-04-01 21:52:00,35.3,14.5,29.87,West,275,2.0,7.0,42,0.00,,,0.00,VWS V14.01,2013-04-02 01:52:00,
2013-04-01 21:53:00,35.3,14.0,29.87,ENE,60,4.0,7.0,41,0.00,,,0.00,VWS V14.01,2013-04-02 01:53:00,
2013-04-01 21:54:00,35.3,14.0,29.87,NNE,28,2.0,7.0,41,0.00,,,0.00,VWS V14.01,2013-04-02 01:54:00,
2013-04-01 21:55:00,35.3,14.0,29.87,SE,125,0.0,7.0,41,0.00,,,0.00,VWS V14.01,2013-04-02 01:55:00,
2013-04-01 21:56:00,35.2,13.9,29.87,SE,125,3.0,7.0,41,0.00,,,0.00,VWS V14.01,2013-04-02 01:56:00,
2013-04-01 21:57:00,35.2,13.9,29.87,NE,55,2.0,7.0,41,0.00,,,0.00,VWS V14.01,2013-04-02 01:57:00,
2013-04-01 21:58:00,35.2,13.9,29.87,WNW,296,10.0,10.0,41,0.00,,,0.00,VWS V14.01,2013-04-02 01:58:00,
2013-04-01 21:59:00,35.2,13.9,29.87,NW,305,4.0,10.0,41,0.00,,,0.00,VWS V14.01,2013-04-02 01:59:00,
2013-04-01 22:00:00,35.2,13.9,29.87,East,80,2.0,10.0,41,0.00,,,0.00,VWS V14.01,2013-04-02 02:00:00,
2013-04-01 22:01:00,35.1,13.8,29.87,East,80,2.0,3.0,41,0.00,,,0.00,VWS V14.01,2013-04-02 02:01:00,
2013-04-01 22:02:00,35.1,13.8,29.87,East,80,0.0,3.0,41,0.00,,,0.00,VWS V14.01,2013-04-02 02:02:00,
2013-04-01 22:03:00,35.1,14.3,29.87,South,179,1.0,3.0,42,0.00,,,0.00,VWS V14.01,2013-04-02 02:03:00,
2013-04-01 22:04:00,35.1,14.3,29.87,South,190,2.0,3.0,42,0.00,,,0.00,VWS V14.01,2013-04-02 02:04:00,
2013-04-01 22:05:00,35.1,14.3,29.87,South,190,3.0,4.0,42,0.00,,,0.00,VWS V14.01,2013-04-02 02:05:00,
2013-04-01 22:06:00,35.0,14.2,29.87,South,190,1.0,4.0,42,0.00,,,0.00,VWS V14.01,2013-04-02 02:06:00,
2013-04-01 22:07:00,35.0,14.8,29.87,SSW,211,3.0,12.0,43,0.00,,,0.00,VWS V14.01,2013-04-02 02:07:00,
2013-04-01 22:08:00,35.0,14.2,29.87,North,355,4.0,12.0,42,0.00,,,0.00,VWS V14.01,2013-04-02 02:08:00,
2013-04-01 22:09:00,34.9,14.1,29.87,North,5,1.0,12.0,42,0.00,,,0.00,VWS V14.01,2013-04-02 02:09:00,
2013-04-01 22:10:00,34.9,14.1,29.87,NNW,348,3.0,12.0,42,0.00,,,0.00,VWS V14.01,2013-04-02 02:10:00,
2013-04-01 22:11:00,34.9,14.1,29.87,SW,220,2.0,3.0,42,0.00,,,0.00,VWS V14.01,2013-04-02 02:11:00,
2013-04-01 22:12:00,34.9,14.1,29.87,South,190,3.0,3.0,42,0.00,,,0.00,VWS V14.01,2013-04-02 02:12:00,
2013-04-01 22:13:00,34.8,14.1,29.87,NNW,339,3.0,3.0,42,0.00,,,0.00,VWS V14.01,2013-04-02 02:13:00,
2013-04-01 22:14:00,34.8,14.6,29.87,NNW,344,1.0,9.0,43,0.00,,,0.00,VWS V14.01,2013-04-02 02:14:00,
2013-04-01 22:15:00,34.8,14.1,29.87,North,11,2.0,9.0,42,0.00,,,0.00,VWS V14.01,2013-04-02 02:15:00,
2013-04-01 22:16:00,34.8,14.1,29.87,NE,49,1.0,9.0,42,0.00,,,0.00,VWS V14.01,2013-04-02 02:16:00,
2013-04-01 22:17:00,34.8,14.1,29.87,NE,49,0.0,9.0,42,0.00,,,0.00,VWS V14.01,2013-04-02 02:17:00,
2013-04-01 22:18:00,34.7,14.0,29.87,SW,227,1.0,10.0,42,0.00,,,0.00,VWS V14.01,2013-04-02 02:18:00,
2013-04-01 22:19:00,34.7,14.5,29.87,SW,227,0.0,10.0,43,0.00,,,0.00,VWS V14.01,2013-04-02 02:19:00,
2013-04-01 22:20:00,34.7,14.5,29.87,WSW,253,5.0,10.0,43,0.00,,,0.00,VWS V14.01,2013-04-02 02:20:00,
2013-04-01 22:21:00,34.7,14.0,29.87,WNW,288,1.0,5.0,42,0.00,,,0.00,VWS V14.01,2013-04-02 02:21:00,
2013-04-01 22:22:00,34.6,13.9,29.87,West,273,0.0,5.0,42,0.00,,,0.00,VWS V14.01,2013-04-02 02:22:00,
2013-04-01 22:23:00,34.6,14.4,29.87,SE,144,2.0,5.0,43,0.00,,,0.00,VWS V14.01,2013-04-02 02:23:00,
2013-04-01 22:24:00,34.6,14.4,29.87,SE,144,0.0,5.0,43,0.00,,,0.00,VWS V14.01,2013-04-02 02:24:00,
2013-04-01 22:25:00,34.6,13.9,29.87,SE,144,0.0,5.0,42,0.00,,,0.00,VWS V14.01,2013-04-02 02:25:00,
2013-04-01 22:26:00,34.6,14.4,29.87,SE,144,0.0,5.0,43,0.00,,,0.00,VWS V14.01,2013-04-02 02:26:00,
2013-04-01 22:27:00,34.5,14.3,29.87,SW,217,0.0,5.0,43,0.00,,,0.00,VWS V14.01,2013-04-02 02:27:00,
2013-04-01 22:28:00,34.5,14.3,29.87,West,265,1.0,5.0,43,0.00,,,0.00,VWS V14.01,2013-04-02 02:28:00,
2013-04-01 22:29:00,34.5,14.3,29.87,WNW,286,4.0,6.0,43,0.00,,,0.00,VWS V14.01,2013-04-02 02:29:00,
2013-04-01 22:30:00,34.4,14.2,29.88,NW,315,2.0,6.0,43,0.00,,,0.00,VWS V14.01,2013-04-02 02:30:00,
2013-04-01 22:31:00,34.4,14.2,29.88,NW,325,6.0,8.0,43,0.00,,,0.00,VWS V14.01,2013-04-02 02:31:00,
2013-04-01 22:32:00,34.4,14.2,29.88,NW,319,5.0,9.0,43,0.00,,,0.00,VWS V14.01,2013-04-02 02:32:00,
2013-04-01 22:33:00,34.3,14.1,29.88,West,275,5.0,9.0,43,0.00,,,0.00,VWS V14.01,2013-04-02 02:33:00,
2013-04-01 22:34:00,34.3,14.1,29.88,West,275,0.0,9.0,43,0.00,,,0.00,VWS V14.01,2013-04-02 02:34:00,
2013-04-01 22:35:00,34.3,14.1,29.88,West,275,4.0,9.0,43,0.00,,,0.00,VWS V14.01,2013-04-02 02:35:00,
2013-04-01 22:36:00,34.3,14.1,29.88,NNW,327,2.0,9.0,43,0.00,,,0.00,VWS V14.01,2013-04-02 02:36:00,
2013-04-01 22:37:00,34.3,14.7,29.88,NW,320,1.0,9.0,44,0.00,,,0.00,VWS V14.01,2013-04-02 02:37:00,
2013-04-01 22:38:00,34.2,14.1,29.88,ENE,73,0.0,9.0,43,0.00,,,0.00,VWS V14.01,2013-04-02 02:38:00,
2013-04-01 22:39:00,34.2,14.6,29.88,SW,224,1.0,9.0,44,0.00,,,0.00,VWS V14.01,2013-04-02 02:39:00,
2013-04-01 22:40:00,34.1,14.5,29.88,ENE,65,0.0,9.0,44,0.00,,,0.00,VWS V14.01,2013-04-02 02:40:00,
2013-04-01 22:41:00,34.1,14.5,29.88,NNW,342,0.0,3.0,44,0.00,,,0.00,VWS V14.01,2013-04-02 02:41:00,
2013-04-01 22:42:00,34.1,14.5,29.88,North,355,0.0,3.0,44,0.00,,,0.00,VWS V14.01,2013-04-02 02:42:00,
2013-04-01 22:43:00,34.1,14.5,29.88,North,355,1.0,3.0,44,0.00,,,0.00,VWS V14.01,2013-04-02 02:43:00,
2013-04-01 22:44:00,34.0,14.4,29.88,NW,325,3.0,3.0,44,0.00,,,0.00,VWS V14.01,2013-04-02 02:44:00,
2013-04-01 22:45:00,34.0,14.4,29.88,NW,325,0.0,3.0,44,0.00,,,0.00,VWS V14.01,2013-04-02 02:45:00,
2013-04-01 22:46:00,34.0,14.4,29.88,WNW,285,3.0,9.0,44,0.00,,,0.00,VWS V14.01,2013-04-02 02:46:00,
2013-04-01 22:47:00,34.0,14.4,29.88,WNW,290,0.0,9.0,44,0.00,,,0.00,VWS V14.01,2013-04-02 02:47:00,
2013-04-01 22:48:00,34.0,14.4,29.88,West,265,4.0,9.0,44,0.00,,,0.00,VWS V14.01,2013-04-02 02:48:00,
2013-04-01 22:49:00,33.9,14.3,29.88,NW,320,2.0,9.0,44,0.00,,,0.00,VWS V14.01,2013-04-02 02:49:00,
2013-04-01 22:50:00,33.9,14.3,29.88,SW,234,1.0,9.0,44,0.00,,,0.00,VWS V14.01,2013-04-02 02:50:00,
2013-04-01 22:51:00,33.9,14.3,29.88,NNW,343,0.0,4.0,44,0.00,,,0.00,VWS V14.01,2013-04-02 02:51:00,
2013-04-01 22:52:00,33.9,14.3,29.88,WSW,249,3.0,4.0,44,0.00,,,0.00,VWS V14.01,2013-04-02 02:52:00,
2013-04-01 22:53:00,33.9,14.3,29.88,WSW,249,0.0,4.0,44,0.00,,,0.00,VWS V14.01,2013-04-02 02:53:00,
2013-04-01 22:54:00,33.8,14.2,29.88,North,360,5.0,6.0,44,0.00,,,0.00,VWS V14.01,2013-04-02 02:54:00,
2013-04-01 22:55:00,33.8,14.7,29.88,WSW,250,0.0,6.0,45,0.00,,,0.00,VWS V14.01,2013-04-02 02:55:00,
2013-04-01 22:56:00,33.8,14.2,29.88,WNW,292,1.0,6.0,44,0.00,,,0.00,VWS V14.01,2013-04-02 02:56:00,
2013-04-01 22:57:00,33.8,14.2,29.88,NNW,343,0.0,6.0,44,0.00,,,0.00,VWS V14.01,2013-04-02 02:57:00,
2013-04-01 22:58:00,33.8,14.7,29.88,NNW,343,0.0,6.0,45,0.00,,,0.00,VWS V14.01,2013-04-02 02:58:00,
2013-04-01 22:59:00,33.7,14.6,29.88,NW,315,2.0,6.0,45,0.00,,,0.00,VWS V14.01,2013-04-02 02:59:00,
2013-04-01 23:00:00,33.7,14.6,29.88,WSW,253,3.0,6.0,45,0.00,,,0.00,VWS V14.01,2013-04-02 03:00:00,
2013-04-01 23:01:00,33.7,15.1,29.88,South,184,3.0,3.0,46,0.00,,,0.00,VWS V14.01,2013-04-02 03:01:00,
2013-04-01 23:02:00,33.7,14.6,29.88,North,355,2.0,5.0,45,0.00,,,0.00,VWS V14.01,2013-04-02 03:02:00,
2013-04-01 23:03:00,33.7,14.6,29.88,North,355,0.0,5.0,45,0.00,,,0.00,VWS V14.01,2013-04-02 03:03:00,
2013-04-01 23:04:00,33.6,14.5,29.88,North,355,1.0,5.0,45,0.00,,,0.00,VWS V14.01,2013-04-02 03:04:00,
2013-04-01 23:05:00,33.6,14.5,29.88,SE,126,2.0,5.0,45,0.00,,,0.00,VWS V14.01,2013-04-02 03:05:00,
2013-04-01 23:06:00,33.5,14.4,29.88,SW,232,1.0,5.0,45,0.00,,,0.00,VWS V14.01,2013-04-02 03:06:00,
2013-04-01 23:07:00,33.5,14.9,29.88,WNW,296,0.0,5.0,46,0.00,,,0.00,VWS V14.01,2013-04-02 03:07:00,
2013-04-01 23:08:00,33.5,14.4,29.88,NNE,18,1.0,5.0,45,0.00,,,0.00,VWS V14.01,2013-04-02 03:08:00,
2013-04-01 23:09:00,33.5,14.9,29.88,NNW,344,0.0,5.0,46,0.00,,,0.00,VWS V14.01,2013-04-02 03:09:00,
2013-04-01 23:10:00,33.5,14.9,29.88,SSE,162,1.0,5.0,46,0.00,,,0.00,VWS V14.01,2013-04-02 03:10:00,
2013-04-01 23:11:00,33.4,14.9,29.88,SSE,162,0.0,1.0,46,0.00,,,0.00,VWS V14.01,2013-04-02 03:11:00,
2013-04-01 23:12:00,33.4,14.9,29.88,SSE,162,0.0,1.0,46,0.00,,,0.00,VWS V14.01,2013-04-02 03:12:00,
2013-04-01 23:13:00,33.4,14.9,29.88,NW,324,0.0,6.0,46,0.00,,,0.00,VWS V14.01,2013-04-02 03:13:00,
2013-04-01 23:14:00,33.4,15.4,29.88,ENE,67,1.0,6.0,47,0.00,,,0.00,VWS V14.01,2013-04-02 03:14:00,
2013-04-01 23:15:00,33.3,14.8,29.89,NNW,330,3.0,6.0,46,0.00,,,0.00,VWS V14.01,2013-04-02 03:15:00,
2013-04-01 23:16:00,33.3,14.8,29.89,NNW,333,1.0,6.0,46,0.00,,,0.00,VWS V14.01,2013-04-02 03:16:00,
2013-04-01 23:17:00,33.2,14.7,29.89,NW,324,2.0,6.0,46,0.00,,,0.00,VWS V14.01,2013-04-02 03:17:00,
2013-04-01 23:18:00,33.3,14.8,29.89,NW,317,2.0,6.0,46,0.00,,,0.00,VWS V14.01,2013-04-02 03:18:00,
2013-04-01 23:19:00,33.2,14.7,29.89,NW,317,0.0,6.0,46,0.00,,,0.00,VWS V14.01,2013-04-02 03:19:00,
2013-04-01 23:20:00,33.2,14.7,29.89,NW,317,0.0,6.0,46,0.00,,,0.00,VWS V14.01,2013-04-02 03:20:00,
2013-04-01 23:21:00,33.2,14.7,29.89,NNE,24,2.0,2.0,46,0.00,,,0.00,VWS V14.01,2013-04-02 03:21:00,
2013-04-01 23:22:00,33.2,14.7,29.89,NNE,27,0.0,2.0,46,0.00,,,0.00,VWS V14.01,2013-04-02 03:22:00,
2013-04-01 23:23:00,33.2,14.7,29.89,SE,128,1.0,3.0,46,0.00,,,0.00,VWS V14.01,2013-04-02 03:23:00,
2013-04-01 23:24:00,33.2,14.7,29.89,SE,136,3.0,3.0,46,0.00,,,0.00,VWS V14.01,2013-04-02 03:24:00,
2013-04-01 23:25:00,33.1,15.1,29.89,North,355,0.0,3.0,47,0.00,,,0.00,VWS V14.01,2013-04-02 03:25:00,
2013-04-01 23:26:00,33.1,14.6,29.89,NW,313,1.0,3.0,46,0.00,,,0.00,VWS V14.01,2013-04-02 03:26:00,
2013-04-01 23:27:00,33.1,15.1,29.89,WNW,294,4.0,4.0,47,0.00,,,0.00,VWS V14.01,2013-04-02 03:27:00,
2013-04-01 23:28:00,33.1,15.1,29.89,NNE,24,0.0,4.0,47,0.00,,,0.00,VWS V14.01,2013-04-02 03:28:00,
2013-04-01 23:29:00,33.1,15.1,29.89,NNE,24,0.0,4.0,47,0.00,,,0.00,VWS V14.01,2013-04-02 03:29:00,
2013-04-01 23:30:00,33.1,15.6,29.89,NNE,24,0.0,4.0,48,0.00,,,0.00,VWS V14.01,2013-04-02 03:30:00,
2013-04-01 23:31:00,33.0,15.5,29.89,NNE,24,0.0,1.0,48,0.00,,,0.00,VWS V14.01,2013-04-02 03:31:00,
2013-04-01 23:32:00,33.0,15.0,29.89,NNE,29,1.0,2.0,47,0.00,,,0.00,VWS V14.01,2013-04-02 03:32:00,
2013-04-01 23:33:00,33.0,15.5,29.89,NNE,28,0.0,2.0,48,0.00,,,0.00,VWS V14.01,2013-04-02 03:33:00,
2013-04-01 23:34:00,32.9,14.9,29.89,NE,40,0.0,2.0,47,0.00,,,0.00,VWS V14.01,2013-04-02 03:34:00,
2013-04-01 23:35:00,32.9,15.4,29.89,NNW,328,2.0,2.0,48,0.00,,,0.00,VWS V14.01,2013-04-02 03:35:00,
2013-04-01 23:36:00,32.9,15.4,29.89,NW,323,0.0,2.0,48,0.00,,,0.00,VWS V14.01,2013-04-02 03:36:00,
2013-04-01 23:37:00,32.8,15.3,29.89,West,272,4.0,4.0,48,0.00,,,0.00,VWS V14.01,2013-04-02 03:37:00,
2013-04-01 23:38:00,32.8,15.3,29.89,West,272,0.0,4.0,48,0.00,,,0.00,VWS V14.01,2013-04-02 03:38:00,
2013-04-01 23:39:00,32.8,14.8,29.89,West,272,0.0,4.0,47,0.00,,,0.00,VWS V14.01,2013-04-02 03:39:00,
2013-04-01 23:40:00,32.7,15.2,29.89,NNE,18,0.0,4.0,48,0.00,,,0.00,VWS V14.01,2013-04-02 03:40:00,
2013-04-01 23:41:00,32.7,15.2,29.89,NNW,348,2.0,3.0,48,0.00,,,0.00,VWS V14.01,2013-04-02 03:41:00,
2013-04-01 23:42:00,32.7,15.2,29.89,NNW,327,1.0,4.0,48,0.00,,,0.00,VWS V14.01,2013-04-02 03:42:00,
2013-04-01 23:43:00,32.7,15.2,29.89,NNW,327,0.0,4.0,48,0.00,,,0.00,VWS V14.01,2013-04-02 03:43:00,
2013-04-01 23:44:00,32.7,15.2,29.89,NNW,327,0.0,4.0,48,0.00,,,0.00,VWS V14.01,2013-04-02 03:44:00,
2013-04-01 23:45:00,32.6,15.1,29.89,NNW,327,0.0,4.0,48,0.00,,,0.00,VWS V14.01,2013-04-02 03:45:00,
2013-04-01 23:46:00,32.6,15.1,29.89,NNW,327,0.0,4.0,48,0.00,,,0.00,VWS V14.01,2013-04-02 03:46:00,
2013-04-01 23:47:00,32.6,15.1,29.89,NW,306,0.0,4.0,48,0.00,,,0.00,VWS V14.01,2013-04-02 03:47:00,
2013-04-01 23:48:00,32.6,15.6,29.89,NW,306,2.0,4.0,49,0.00,,,0.00,VWS V14.01,2013-04-02 03:48:00,
2013-04-01 23:49:00,32.6,15.6,29.89,NW,307,0.0,4.0,49,0.00,,,0.00,VWS V14.01,2013-04-02 03:49:00,
2013-04-01 23:50:00,32.6,15.6,29.89,NW,307,1.0,4.0,49,0.00,,,0.00,VWS V14.01,2013-04-02 03:50:00,
2013-04-01 23:51:00,32.5,15.5,29.89,ENE,59,3.0,4.0,49,0.00,,,0.00,VWS V14.01,2013-04-02 03:51:00,
2013-04-01 23:52:00,32.5,15.5,29.89,ENE,60,0.0,4.0,49,0.00,,,0.00,VWS V14.01,2013-04-02 03:52:00,
2013-04-01 23:53:00,32.5,15.5,29.89,ENE,61,1.0,4.0,49,0.00,,,0.00,VWS V14.01,2013-04-02 03:53:00,
2013-04-01 23:54:00,32.5,15.0,29.89,ENE,61,0.0,4.0,48,0.00,,,0.00,VWS V14.01,2013-04-02 03:54:00,
2013-04-01 23:55:00,32.4,15.4,29.89,WNW,292,4.0,6.0,49,0.00,,,0.00,VWS V14.01,2013-04-02 03:55:00,
2013-04-01 23:56:00,32.4,15.4,29.89,North,5,0.0,6.0,49,0.00,,,0.00,VWS V14.01,2013-04-02 03:56:00,
2013-04-01 23:57:00,32.4,15.4,29.89,West,281,1.0,6.0,49,0.00,,,0.00,VWS V14.01,2013-04-02 03:57:00,
2013-04-01 23:58:00,32.4,15.4,29.89,WSW,254,7.0,7.0,49,0.00,,,0.00,VWS V14.01,2013-04-02 03:58:00,
2013-04-01 23:59:00,32.4,15.4,29.89,WSW,245,0.0,7.0,49,0.00,,,0.00,VWS V14.01,2013-04-02 03:59:00,